<?xml version="1.0" encoding="UTF-8" standalone="no" ?>
<gpx xmlns="http://www.topografix.com/GPX/1/1" xmlns:xsi="http://www.w3.org/2001/XMLSchema-instance" xsi:schemaLocation="http://www.topografix.com/GPX/1/1 http://www.topografix.com/GPX/1/1/gpx.xsd" version="1.1" creator="VisuGPX - https://www.visugpx.com">
  <metadata>
    <name>Barcelonnette-Les Thuiles-Le Sauze</name>
    <desc><![CDATA[Petit boucle d'échauffement depuis Barcelonnette jusqu'au Sauze via les Thuiles.]]></desc>
  </metadata>
  <trk>
    <name><![CDATA[2023-07-07 09:50]]></name>
    <desc><![CDATA[<p>Heure de départ: 09:50 7 juil. 2023<br/>Heure d'arrivée: 11:55 7 juil. 2023<br/>Distance: 27 km (02:04)<br/>Temps déplacement: 01:41<br/>Vitesse moyenne: 12,99 km/h<br/>Vitesse moyenne mouv.: 15,96 km/h<br/>Vitesse Max.: 48,6 km/h<br/>Altitude minimale: 1105 m<br/>Altitude maximale: 1355 m<br/>Vitesse de montée: 788,6 m/h<br/>Vitesse de descente: -1113,4 m/h<br/>Gain d'altitude: 910 m<br/>Perte d'altitude: -960 m<br/>Temps de montée: 01:09<br/>Temps de descente: 00:51<br/></p><hr align="center" width="480" style="height: 2px; width: 517px"/>]]></desc>
    <trkseg>
      <trkpt lat="44.39051" lon="6.64523">
        <ele>1195.6</ele>
        <time>2023-07-07T07:50:31Z</time>
      </trkpt>
      <trkpt lat="44.39042" lon="6.64532">
        <ele>1194.1</ele>
        <time>2023-07-07T07:50:41Z</time>
      </trkpt>
      <trkpt lat="44.39034" lon="6.64541">
        <ele>1193</ele>
        <time>2023-07-07T07:50:44Z</time>
      </trkpt>
      <trkpt lat="44.39026" lon="6.64557">
        <ele>1192.6</ele>
        <time>2023-07-07T07:50:47Z</time>
      </trkpt>
      <trkpt lat="44.39023" lon="6.64569">
        <ele>1192.1</ele>
        <time>2023-07-07T07:50:49Z</time>
      </trkpt>
      <trkpt lat="44.39018" lon="6.64581">
        <ele>1191.5</ele>
        <time>2023-07-07T07:50:51Z</time>
      </trkpt>
      <trkpt lat="44.39012" lon="6.64594">
        <ele>1190.6</ele>
        <time>2023-07-07T07:50:54Z</time>
      </trkpt>
      <trkpt lat="44.39002" lon="6.64595">
        <ele>1188.3</ele>
        <time>2023-07-07T07:50:57Z</time>
      </trkpt>
      <trkpt lat="44.38998" lon="6.64581">
        <ele>1186.2</ele>
        <time>2023-07-07T07:51:00Z</time>
      </trkpt>
      <trkpt lat="44.39002" lon="6.64564">
        <ele>1186.2</ele>
        <time>2023-07-07T07:51:03Z</time>
      </trkpt>
      <trkpt lat="44.39005" lon="6.64551">
        <ele>1185.8</ele>
        <time>2023-07-07T07:51:05Z</time>
      </trkpt>
      <trkpt lat="44.39008" lon="6.64539">
        <ele>1185.3</ele>
        <time>2023-07-07T07:51:07Z</time>
      </trkpt>
      <trkpt lat="44.39012" lon="6.64527">
        <ele>1184.9</ele>
        <time>2023-07-07T07:51:09Z</time>
      </trkpt>
      <trkpt lat="44.39017" lon="6.6451">
        <ele>1184.5</ele>
        <time>2023-07-07T07:51:12Z</time>
      </trkpt>
      <trkpt lat="44.39022" lon="6.64494">
        <ele>1184</ele>
        <time>2023-07-07T07:51:15Z</time>
      </trkpt>
      <trkpt lat="44.39023" lon="6.64476">
        <ele>1181.3</ele>
        <time>2023-07-07T07:51:18Z</time>
      </trkpt>
      <trkpt lat="44.39022" lon="6.64462">
        <ele>1179.3</ele>
        <time>2023-07-07T07:51:20Z</time>
      </trkpt>
      <trkpt lat="44.39021" lon="6.64449">
        <ele>1177.8</ele>
        <time>2023-07-07T07:51:22Z</time>
      </trkpt>
      <trkpt lat="44.39021" lon="6.64433">
        <ele>1176</ele>
        <time>2023-07-07T07:51:24Z</time>
      </trkpt>
      <trkpt lat="44.39017" lon="6.64417">
        <ele>1173.4</ele>
        <time>2023-07-07T07:51:26Z</time>
      </trkpt>
      <trkpt lat="44.39017" lon="6.64402">
        <ele>1171.5</ele>
        <time>2023-07-07T07:51:28Z</time>
      </trkpt>
      <trkpt lat="44.3902" lon="6.64388">
        <ele>1170.5</ele>
        <time>2023-07-07T07:51:30Z</time>
      </trkpt>
      <trkpt lat="44.39024" lon="6.64376">
        <ele>1170.4</ele>
        <time>2023-07-07T07:51:32Z</time>
      </trkpt>
      <trkpt lat="44.39029" lon="6.64357">
        <ele>1170</ele>
        <time>2023-07-07T07:51:35Z</time>
      </trkpt>
      <trkpt lat="44.39026" lon="6.64345">
        <ele>1168.4</ele>
        <time>2023-07-07T07:51:38Z</time>
      </trkpt>
      <trkpt lat="44.39016" lon="6.64352">
        <ele>1166</ele>
        <time>2023-07-07T07:51:42Z</time>
      </trkpt>
      <trkpt lat="44.39009" lon="6.64361">
        <ele>1164.5</ele>
        <time>2023-07-07T07:51:44Z</time>
      </trkpt>
      <trkpt lat="44.39001" lon="6.64372">
        <ele>1163.5</ele>
        <time>2023-07-07T07:51:46Z</time>
      </trkpt>
      <trkpt lat="44.38994" lon="6.64381">
        <ele>1162.8</ele>
        <time>2023-07-07T07:51:48Z</time>
      </trkpt>
      <trkpt lat="44.38985" lon="6.64395">
        <ele>1162.4</ele>
        <time>2023-07-07T07:51:51Z</time>
      </trkpt>
      <trkpt lat="44.38979" lon="6.64406">
        <ele>1162.4</ele>
        <time>2023-07-07T07:51:53Z</time>
      </trkpt>
      <trkpt lat="44.38974" lon="6.6442">
        <ele>1162.7</ele>
        <time>2023-07-07T07:51:55Z</time>
      </trkpt>
      <trkpt lat="44.38971" lon="6.64433">
        <ele>1163.4</ele>
        <time>2023-07-07T07:51:57Z</time>
      </trkpt>
      <trkpt lat="44.38969" lon="6.64445">
        <ele>1164.3</ele>
        <time>2023-07-07T07:51:59Z</time>
      </trkpt>
      <trkpt lat="44.38963" lon="6.64461">
        <ele>1164.9</ele>
        <time>2023-07-07T07:52:02Z</time>
      </trkpt>
      <trkpt lat="44.38961" lon="6.64474">
        <ele>1165.8</ele>
        <time>2023-07-07T07:52:07Z</time>
      </trkpt>
      <trkpt lat="44.38951" lon="6.64485">
        <ele>1164.8</ele>
        <time>2023-07-07T07:52:54Z</time>
      </trkpt>
      <trkpt lat="44.3894" lon="6.64494">
        <ele>1163.1</ele>
        <time>2023-07-07T07:52:57Z</time>
      </trkpt>
      <trkpt lat="44.38931" lon="6.64505">
        <ele>1162.2</ele>
        <time>2023-07-07T07:52:59Z</time>
      </trkpt>
      <trkpt lat="44.38923" lon="6.64518">
        <ele>1161.5</ele>
        <time>2023-07-07T07:53:01Z</time>
      </trkpt>
      <trkpt lat="44.38915" lon="6.64532">
        <ele>1160.8</ele>
        <time>2023-07-07T07:53:04Z</time>
      </trkpt>
      <trkpt lat="44.38908" lon="6.64545">
        <ele>1160.1</ele>
        <time>2023-07-07T07:53:07Z</time>
      </trkpt>
      <trkpt lat="44.38903" lon="6.64559">
        <ele>1159.8</ele>
        <time>2023-07-07T07:53:10Z</time>
      </trkpt>
      <trkpt lat="44.38896" lon="6.64571">
        <ele>1158.6</ele>
        <time>2023-07-07T07:53:13Z</time>
      </trkpt>
      <trkpt lat="44.38887" lon="6.64575">
        <ele>1156.1</ele>
        <time>2023-07-07T07:53:16Z</time>
      </trkpt>
      <trkpt lat="44.38877" lon="6.64566">
        <ele>1152.5</ele>
        <time>2023-07-07T07:53:20Z</time>
      </trkpt>
      <trkpt lat="44.38875" lon="6.64549">
        <ele>1151.4</ele>
        <time>2023-07-07T07:53:22Z</time>
      </trkpt>
      <trkpt lat="44.38876" lon="6.64533">
        <ele>1150.1</ele>
        <time>2023-07-07T07:53:24Z</time>
      </trkpt>
      <trkpt lat="44.38879" lon="6.64515">
        <ele>1149.6</ele>
        <time>2023-07-07T07:53:26Z</time>
      </trkpt>
      <trkpt lat="44.38883" lon="6.64498">
        <ele>1149.1</ele>
        <time>2023-07-07T07:53:28Z</time>
      </trkpt>
      <trkpt lat="44.38886" lon="6.64482">
        <ele>1148.2</ele>
        <time>2023-07-07T07:53:30Z</time>
      </trkpt>
      <trkpt lat="44.38886" lon="6.64466">
        <ele>1146.9</ele>
        <time>2023-07-07T07:53:32Z</time>
      </trkpt>
      <trkpt lat="44.38886" lon="6.64452">
        <ele>1146</ele>
        <time>2023-07-07T07:53:34Z</time>
      </trkpt>
      <trkpt lat="44.38881" lon="6.64438">
        <ele>1144.4</ele>
        <time>2023-07-07T07:53:36Z</time>
      </trkpt>
      <trkpt lat="44.38875" lon="6.64427">
        <ele>1142.9</ele>
        <time>2023-07-07T07:53:38Z</time>
      </trkpt>
      <trkpt lat="44.38868" lon="6.64415">
        <ele>1141.2</ele>
        <time>2023-07-07T07:53:40Z</time>
      </trkpt>
      <trkpt lat="44.38859" lon="6.64405">
        <ele>1139.3</ele>
        <time>2023-07-07T07:53:42Z</time>
      </trkpt>
      <trkpt lat="44.38849" lon="6.64397">
        <ele>1138</ele>
        <time>2023-07-07T07:53:44Z</time>
      </trkpt>
      <trkpt lat="44.3884" lon="6.64391">
        <ele>1136.8</ele>
        <time>2023-07-07T07:53:46Z</time>
      </trkpt>
      <trkpt lat="44.38826" lon="6.64384">
        <ele>1135.3</ele>
        <time>2023-07-07T07:53:48Z</time>
      </trkpt>
      <trkpt lat="44.38812" lon="6.64376">
        <ele>1134</ele>
        <time>2023-07-07T07:53:50Z</time>
      </trkpt>
      <trkpt lat="44.388" lon="6.64371">
        <ele>1133.1</ele>
        <time>2023-07-07T07:53:52Z</time>
      </trkpt>
      <trkpt lat="44.38788" lon="6.64365">
        <ele>1132.4</ele>
        <time>2023-07-07T07:53:54Z</time>
      </trkpt>
      <trkpt lat="44.38776" lon="6.64361">
        <ele>1131.9</ele>
        <time>2023-07-07T07:53:56Z</time>
      </trkpt>
      <trkpt lat="44.38762" lon="6.64354">
        <ele>1131.4</ele>
        <time>2023-07-07T07:53:58Z</time>
      </trkpt>
      <trkpt lat="44.38748" lon="6.6435">
        <ele>1131</ele>
        <time>2023-07-07T07:54:00Z</time>
      </trkpt>
      <trkpt lat="44.38735" lon="6.64347">
        <ele>1131</ele>
        <time>2023-07-07T07:54:02Z</time>
      </trkpt>
      <trkpt lat="44.38724" lon="6.64344">
        <ele>1131</ele>
        <time>2023-07-07T07:54:04Z</time>
      </trkpt>
      <trkpt lat="44.38714" lon="6.64341">
        <ele>1131</ele>
        <time>2023-07-07T07:54:06Z</time>
      </trkpt>
      <trkpt lat="44.38703" lon="6.6434">
        <ele>1131</ele>
        <time>2023-07-07T07:54:09Z</time>
      </trkpt>
      <trkpt lat="44.38698" lon="6.64329">
        <ele>1131</ele>
        <time>2023-07-07T07:54:14Z</time>
      </trkpt>
      <trkpt lat="44.38697" lon="6.64314">
        <ele>1131</ele>
        <time>2023-07-07T07:54:18Z</time>
      </trkpt>
      <trkpt lat="44.38696" lon="6.64298">
        <ele>1131</ele>
        <time>2023-07-07T07:54:22Z</time>
      </trkpt>
      <trkpt lat="44.38696" lon="6.64285">
        <ele>1131</ele>
        <time>2023-07-07T07:54:25Z</time>
      </trkpt>
      <trkpt lat="44.38697" lon="6.6427">
        <ele>1131</ele>
        <time>2023-07-07T07:54:28Z</time>
      </trkpt>
      <trkpt lat="44.38699" lon="6.64254">
        <ele>1131</ele>
        <time>2023-07-07T07:54:31Z</time>
      </trkpt>
      <trkpt lat="44.38703" lon="6.6424">
        <ele>1131</ele>
        <time>2023-07-07T07:54:34Z</time>
      </trkpt>
      <trkpt lat="44.38708" lon="6.64224">
        <ele>1131</ele>
        <time>2023-07-07T07:54:37Z</time>
      </trkpt>
      <trkpt lat="44.38711" lon="6.64212">
        <ele>1131</ele>
        <time>2023-07-07T07:54:39Z</time>
      </trkpt>
      <trkpt lat="44.38715" lon="6.64198">
        <ele>1131</ele>
        <time>2023-07-07T07:54:41Z</time>
      </trkpt>
      <trkpt lat="44.38718" lon="6.64184">
        <ele>1131</ele>
        <time>2023-07-07T07:54:43Z</time>
      </trkpt>
      <trkpt lat="44.38722" lon="6.6417">
        <ele>1131</ele>
        <time>2023-07-07T07:54:45Z</time>
      </trkpt>
      <trkpt lat="44.38725" lon="6.64155">
        <ele>1130.6</ele>
        <time>2023-07-07T07:54:47Z</time>
      </trkpt>
      <trkpt lat="44.38729" lon="6.6414">
        <ele>1130.1</ele>
        <time>2023-07-07T07:54:49Z</time>
      </trkpt>
      <trkpt lat="44.38732" lon="6.64125">
        <ele>1130</ele>
        <time>2023-07-07T07:54:51Z</time>
      </trkpt>
      <trkpt lat="44.38736" lon="6.6411">
        <ele>1130</ele>
        <time>2023-07-07T07:54:53Z</time>
      </trkpt>
      <trkpt lat="44.3874" lon="6.64095">
        <ele>1129.8</ele>
        <time>2023-07-07T07:54:55Z</time>
      </trkpt>
      <trkpt lat="44.38744" lon="6.6408">
        <ele>1129.7</ele>
        <time>2023-07-07T07:54:57Z</time>
      </trkpt>
      <trkpt lat="44.38747" lon="6.64064">
        <ele>1129.3</ele>
        <time>2023-07-07T07:54:59Z</time>
      </trkpt>
      <trkpt lat="44.3875" lon="6.64048">
        <ele>1129</ele>
        <time>2023-07-07T07:55:01Z</time>
      </trkpt>
      <trkpt lat="44.38754" lon="6.64033">
        <ele>1129</ele>
        <time>2023-07-07T07:55:03Z</time>
      </trkpt>
      <trkpt lat="44.38757" lon="6.64018">
        <ele>1128.7</ele>
        <time>2023-07-07T07:55:05Z</time>
      </trkpt>
      <trkpt lat="44.3876" lon="6.64003">
        <ele>1128.4</ele>
        <time>2023-07-07T07:55:07Z</time>
      </trkpt>
      <trkpt lat="44.38763" lon="6.63988">
        <ele>1128.3</ele>
        <time>2023-07-07T07:55:09Z</time>
      </trkpt>
      <trkpt lat="44.38767" lon="6.63974">
        <ele>1128</ele>
        <time>2023-07-07T07:55:11Z</time>
      </trkpt>
      <trkpt lat="44.3877" lon="6.63959">
        <ele>1128</ele>
        <time>2023-07-07T07:55:13Z</time>
      </trkpt>
      <trkpt lat="44.38774" lon="6.63944">
        <ele>1128</ele>
        <time>2023-07-07T07:55:15Z</time>
      </trkpt>
      <trkpt lat="44.38777" lon="6.6393">
        <ele>1127.5</ele>
        <time>2023-07-07T07:55:17Z</time>
      </trkpt>
      <trkpt lat="44.38782" lon="6.63917">
        <ele>1127.2</ele>
        <time>2023-07-07T07:55:19Z</time>
      </trkpt>
      <trkpt lat="44.38785" lon="6.63904">
        <ele>1127.1</ele>
        <time>2023-07-07T07:55:21Z</time>
      </trkpt>
      <trkpt lat="44.38788" lon="6.63888">
        <ele>1127</ele>
        <time>2023-07-07T07:55:23Z</time>
      </trkpt>
      <trkpt lat="44.38792" lon="6.63874">
        <ele>1127</ele>
        <time>2023-07-07T07:55:25Z</time>
      </trkpt>
      <trkpt lat="44.38795" lon="6.63858">
        <ele>1127</ele>
        <time>2023-07-07T07:55:27Z</time>
      </trkpt>
      <trkpt lat="44.38798" lon="6.63845">
        <ele>1127</ele>
        <time>2023-07-07T07:55:29Z</time>
      </trkpt>
      <trkpt lat="44.38801" lon="6.63831">
        <ele>1126.9</ele>
        <time>2023-07-07T07:55:31Z</time>
      </trkpt>
      <trkpt lat="44.38806" lon="6.6382">
        <ele>1126.5</ele>
        <time>2023-07-07T07:55:33Z</time>
      </trkpt>
      <trkpt lat="44.38808" lon="6.63805">
        <ele>1126</ele>
        <time>2023-07-07T07:55:35Z</time>
      </trkpt>
      <trkpt lat="44.38811" lon="6.6379">
        <ele>1126</ele>
        <time>2023-07-07T07:55:37Z</time>
      </trkpt>
      <trkpt lat="44.38812" lon="6.63775">
        <ele>1126</ele>
        <time>2023-07-07T07:55:39Z</time>
      </trkpt>
      <trkpt lat="44.38814" lon="6.6376">
        <ele>1126</ele>
        <time>2023-07-07T07:55:41Z</time>
      </trkpt>
      <trkpt lat="44.38817" lon="6.63746">
        <ele>1126.2</ele>
        <time>2023-07-07T07:55:43Z</time>
      </trkpt>
      <trkpt lat="44.38819" lon="6.63732">
        <ele>1126.6</ele>
        <time>2023-07-07T07:55:45Z</time>
      </trkpt>
      <trkpt lat="44.38821" lon="6.63718">
        <ele>1127.1</ele>
        <time>2023-07-07T07:55:47Z</time>
      </trkpt>
      <trkpt lat="44.38824" lon="6.63704">
        <ele>1127.2</ele>
        <time>2023-07-07T07:55:49Z</time>
      </trkpt>
      <trkpt lat="44.38825" lon="6.6369">
        <ele>1127.4</ele>
        <time>2023-07-07T07:55:51Z</time>
      </trkpt>
      <trkpt lat="44.38827" lon="6.63676">
        <ele>1127.7</ele>
        <time>2023-07-07T07:55:53Z</time>
      </trkpt>
      <trkpt lat="44.38828" lon="6.63662">
        <ele>1128.1</ele>
        <time>2023-07-07T07:55:55Z</time>
      </trkpt>
      <trkpt lat="44.38831" lon="6.63645">
        <ele>1128.7</ele>
        <time>2023-07-07T07:55:58Z</time>
      </trkpt>
      <trkpt lat="44.38835" lon="6.63629">
        <ele>1129</ele>
        <time>2023-07-07T07:56:01Z</time>
      </trkpt>
      <trkpt lat="44.38837" lon="6.63613">
        <ele>1129.1</ele>
        <time>2023-07-07T07:56:04Z</time>
      </trkpt>
      <trkpt lat="44.38839" lon="6.63596">
        <ele>1129.3</ele>
        <time>2023-07-07T07:56:07Z</time>
      </trkpt>
      <trkpt lat="44.38842" lon="6.63579">
        <ele>1129.7</ele>
        <time>2023-07-07T07:56:10Z</time>
      </trkpt>
      <trkpt lat="44.38845" lon="6.63562">
        <ele>1130.3</ele>
        <time>2023-07-07T07:56:13Z</time>
      </trkpt>
      <trkpt lat="44.38848" lon="6.63545">
        <ele>1130.7</ele>
        <time>2023-07-07T07:56:16Z</time>
      </trkpt>
      <trkpt lat="44.38849" lon="6.63527">
        <ele>1131.2</ele>
        <time>2023-07-07T07:56:19Z</time>
      </trkpt>
      <trkpt lat="44.38852" lon="6.63511">
        <ele>1131.9</ele>
        <time>2023-07-07T07:56:22Z</time>
      </trkpt>
      <trkpt lat="44.38855" lon="6.63496">
        <ele>1132.5</ele>
        <time>2023-07-07T07:56:25Z</time>
      </trkpt>
      <trkpt lat="44.38858" lon="6.6348">
        <ele>1132.8</ele>
        <time>2023-07-07T07:56:28Z</time>
      </trkpt>
      <trkpt lat="44.38859" lon="6.63465">
        <ele>1133.1</ele>
        <time>2023-07-07T07:56:31Z</time>
      </trkpt>
      <trkpt lat="44.38861" lon="6.63451">
        <ele>1133.7</ele>
        <time>2023-07-07T07:56:34Z</time>
      </trkpt>
      <trkpt lat="44.38862" lon="6.63437">
        <ele>1134.3</ele>
        <time>2023-07-07T07:56:37Z</time>
      </trkpt>
      <trkpt lat="44.38864" lon="6.63423">
        <ele>1134.9</ele>
        <time>2023-07-07T07:56:40Z</time>
      </trkpt>
      <trkpt lat="44.38865" lon="6.6341">
        <ele>1135.2</ele>
        <time>2023-07-07T07:56:43Z</time>
      </trkpt>
      <trkpt lat="44.38866" lon="6.63395">
        <ele>1135.3</ele>
        <time>2023-07-07T07:56:47Z</time>
      </trkpt>
      <trkpt lat="44.3887" lon="6.63381">
        <ele>1135.8</ele>
        <time>2023-07-07T07:56:51Z</time>
      </trkpt>
      <trkpt lat="44.38871" lon="6.63366">
        <ele>1136.2</ele>
        <time>2023-07-07T07:56:55Z</time>
      </trkpt>
      <trkpt lat="44.38873" lon="6.63354">
        <ele>1136.4</ele>
        <time>2023-07-07T07:56:58Z</time>
      </trkpt>
      <trkpt lat="44.38876" lon="6.63339">
        <ele>1136.6</ele>
        <time>2023-07-07T07:57:01Z</time>
      </trkpt>
      <trkpt lat="44.38885" lon="6.63327">
        <ele>1136.8</ele>
        <time>2023-07-07T07:57:04Z</time>
      </trkpt>
      <trkpt lat="44.38895" lon="6.6332">
        <ele>1137.3</ele>
        <time>2023-07-07T07:57:07Z</time>
      </trkpt>
      <trkpt lat="44.38905" lon="6.63313">
        <ele>1137.7</ele>
        <time>2023-07-07T07:57:10Z</time>
      </trkpt>
      <trkpt lat="44.38915" lon="6.63305">
        <ele>1137.9</ele>
        <time>2023-07-07T07:57:13Z</time>
      </trkpt>
      <trkpt lat="44.38924" lon="6.63296">
        <ele>1138.2</ele>
        <time>2023-07-07T07:57:16Z</time>
      </trkpt>
      <trkpt lat="44.38933" lon="6.63286">
        <ele>1138.5</ele>
        <time>2023-07-07T07:57:19Z</time>
      </trkpt>
      <trkpt lat="44.38941" lon="6.63277">
        <ele>1138.7</ele>
        <time>2023-07-07T07:57:22Z</time>
      </trkpt>
      <trkpt lat="44.38948" lon="6.63267">
        <ele>1138.9</ele>
        <time>2023-07-07T07:57:25Z</time>
      </trkpt>
      <trkpt lat="44.38956" lon="6.63257">
        <ele>1139.1</ele>
        <time>2023-07-07T07:57:28Z</time>
      </trkpt>
      <trkpt lat="44.38964" lon="6.63249">
        <ele>1139.4</ele>
        <time>2023-07-07T07:57:31Z</time>
      </trkpt>
      <trkpt lat="44.38972" lon="6.63241">
        <ele>1139.6</ele>
        <time>2023-07-07T07:57:34Z</time>
      </trkpt>
      <trkpt lat="44.38979" lon="6.63232">
        <ele>1140.1</ele>
        <time>2023-07-07T07:57:37Z</time>
      </trkpt>
      <trkpt lat="44.38987" lon="6.63222">
        <ele>1140.6</ele>
        <time>2023-07-07T07:57:40Z</time>
      </trkpt>
      <trkpt lat="44.38995" lon="6.63215">
        <ele>1141.3</ele>
        <time>2023-07-07T07:57:43Z</time>
      </trkpt>
      <trkpt lat="44.39005" lon="6.63207">
        <ele>1142</ele>
        <time>2023-07-07T07:57:47Z</time>
      </trkpt>
      <trkpt lat="44.39014" lon="6.63199">
        <ele>1142.7</ele>
        <time>2023-07-07T07:57:51Z</time>
      </trkpt>
      <trkpt lat="44.39025" lon="6.6319">
        <ele>1143.5</ele>
        <time>2023-07-07T07:57:55Z</time>
      </trkpt>
      <trkpt lat="44.39034" lon="6.63183">
        <ele>1144.1</ele>
        <time>2023-07-07T07:57:59Z</time>
      </trkpt>
      <trkpt lat="44.39044" lon="6.63174">
        <ele>1144.5</ele>
        <time>2023-07-07T07:58:03Z</time>
      </trkpt>
      <trkpt lat="44.39052" lon="6.63167">
        <ele>1144.8</ele>
        <time>2023-07-07T07:58:06Z</time>
      </trkpt>
      <trkpt lat="44.3906" lon="6.63159">
        <ele>1144.8</ele>
        <time>2023-07-07T07:58:09Z</time>
      </trkpt>
      <trkpt lat="44.39067" lon="6.6315">
        <ele>1144.9</ele>
        <time>2023-07-07T07:58:12Z</time>
      </trkpt>
      <trkpt lat="44.39074" lon="6.63137">
        <ele>1144.9</ele>
        <time>2023-07-07T07:58:16Z</time>
      </trkpt>
      <trkpt lat="44.39079" lon="6.63125">
        <ele>1145</ele>
        <time>2023-07-07T07:58:19Z</time>
      </trkpt>
      <trkpt lat="44.39083" lon="6.63113">
        <ele>1145</ele>
        <time>2023-07-07T07:58:22Z</time>
      </trkpt>
      <trkpt lat="44.39086" lon="6.63101">
        <ele>1144.9</ele>
        <time>2023-07-07T07:58:25Z</time>
      </trkpt>
      <trkpt lat="44.39089" lon="6.63087">
        <ele>1144.7</ele>
        <time>2023-07-07T07:58:28Z</time>
      </trkpt>
      <trkpt lat="44.39092" lon="6.63075">
        <ele>1144.8</ele>
        <time>2023-07-07T07:58:31Z</time>
      </trkpt>
      <trkpt lat="44.39096" lon="6.63063">
        <ele>1145.1</ele>
        <time>2023-07-07T07:58:34Z</time>
      </trkpt>
      <trkpt lat="44.39101" lon="6.63052">
        <ele>1145.3</ele>
        <time>2023-07-07T07:58:37Z</time>
      </trkpt>
      <trkpt lat="44.39107" lon="6.63038">
        <ele>1146.3</ele>
        <time>2023-07-07T07:58:41Z</time>
      </trkpt>
      <trkpt lat="44.39113" lon="6.63028">
        <ele>1147.2</ele>
        <time>2023-07-07T07:58:44Z</time>
      </trkpt>
      <trkpt lat="44.39121" lon="6.63016">
        <ele>1148</ele>
        <time>2023-07-07T07:58:48Z</time>
      </trkpt>
      <trkpt lat="44.39129" lon="6.63006">
        <ele>1148.9</ele>
        <time>2023-07-07T07:58:52Z</time>
      </trkpt>
      <trkpt lat="44.39138" lon="6.62997">
        <ele>1149.9</ele>
        <time>2023-07-07T07:58:56Z</time>
      </trkpt>
      <trkpt lat="44.39147" lon="6.62989">
        <ele>1150.8</ele>
        <time>2023-07-07T07:59:00Z</time>
      </trkpt>
      <trkpt lat="44.39154" lon="6.6298">
        <ele>1151.6</ele>
        <time>2023-07-07T07:59:04Z</time>
      </trkpt>
      <trkpt lat="44.39161" lon="6.62971">
        <ele>1152.4</ele>
        <time>2023-07-07T07:59:08Z</time>
      </trkpt>
      <trkpt lat="44.3917" lon="6.6296">
        <ele>1153.4</ele>
        <time>2023-07-07T07:59:13Z</time>
      </trkpt>
      <trkpt lat="44.39177" lon="6.62951">
        <ele>1154.2</ele>
        <time>2023-07-07T07:59:17Z</time>
      </trkpt>
      <trkpt lat="44.39185" lon="6.62944">
        <ele>1155</ele>
        <time>2023-07-07T07:59:21Z</time>
      </trkpt>
      <trkpt lat="44.39194" lon="6.62938">
        <ele>1155.7</ele>
        <time>2023-07-07T07:59:25Z</time>
      </trkpt>
      <trkpt lat="44.39203" lon="6.62932">
        <ele>1156.5</ele>
        <time>2023-07-07T07:59:29Z</time>
      </trkpt>
      <trkpt lat="44.3921" lon="6.62923">
        <ele>1156.8</ele>
        <time>2023-07-07T07:59:33Z</time>
      </trkpt>
      <trkpt lat="44.39215" lon="6.62909">
        <ele>1157</ele>
        <time>2023-07-07T07:59:37Z</time>
      </trkpt>
      <trkpt lat="44.39219" lon="6.62895">
        <ele>1157</ele>
        <time>2023-07-07T07:59:41Z</time>
      </trkpt>
      <trkpt lat="44.39221" lon="6.62881">
        <ele>1156.7</ele>
        <time>2023-07-07T07:59:45Z</time>
      </trkpt>
      <trkpt lat="44.39222" lon="6.62868">
        <ele>1156.2</ele>
        <time>2023-07-07T07:59:48Z</time>
      </trkpt>
      <trkpt lat="44.39223" lon="6.62853">
        <ele>1156.1</ele>
        <time>2023-07-07T07:59:51Z</time>
      </trkpt>
      <trkpt lat="44.39227" lon="6.62838">
        <ele>1156.4</ele>
        <time>2023-07-07T07:59:54Z</time>
      </trkpt>
      <trkpt lat="44.39231" lon="6.62825">
        <ele>1156.6</ele>
        <time>2023-07-07T07:59:57Z</time>
      </trkpt>
      <trkpt lat="44.39235" lon="6.62812">
        <ele>1157</ele>
        <time>2023-07-07T08:00:00Z</time>
      </trkpt>
      <trkpt lat="44.39239" lon="6.62799">
        <ele>1157.2</ele>
        <time>2023-07-07T08:00:03Z</time>
      </trkpt>
      <trkpt lat="44.39242" lon="6.62785">
        <ele>1157.4</ele>
        <time>2023-07-07T08:00:06Z</time>
      </trkpt>
      <trkpt lat="44.39242" lon="6.62771">
        <ele>1157.4</ele>
        <time>2023-07-07T08:00:09Z</time>
      </trkpt>
      <trkpt lat="44.39242" lon="6.62758">
        <ele>1157.4</ele>
        <time>2023-07-07T08:00:12Z</time>
      </trkpt>
      <trkpt lat="44.39243" lon="6.62744">
        <ele>1157.6</ele>
        <time>2023-07-07T08:00:16Z</time>
      </trkpt>
      <trkpt lat="44.39242" lon="6.62728">
        <ele>1158</ele>
        <time>2023-07-07T08:00:20Z</time>
      </trkpt>
      <trkpt lat="44.39239" lon="6.62713">
        <ele>1158</ele>
        <time>2023-07-07T08:00:23Z</time>
      </trkpt>
      <trkpt lat="44.39236" lon="6.62697">
        <ele>1158</ele>
        <time>2023-07-07T08:00:26Z</time>
      </trkpt>
      <trkpt lat="44.39231" lon="6.62677">
        <ele>1157.8</ele>
        <time>2023-07-07T08:00:29Z</time>
      </trkpt>
      <trkpt lat="44.39229" lon="6.62663">
        <ele>1157.6</ele>
        <time>2023-07-07T08:00:31Z</time>
      </trkpt>
      <trkpt lat="44.39224" lon="6.62647">
        <ele>1156.6</ele>
        <time>2023-07-07T08:00:33Z</time>
      </trkpt>
      <trkpt lat="44.3922" lon="6.62634">
        <ele>1155.8</ele>
        <time>2023-07-07T08:00:35Z</time>
      </trkpt>
      <trkpt lat="44.39216" lon="6.62617">
        <ele>1155.3</ele>
        <time>2023-07-07T08:00:37Z</time>
      </trkpt>
      <trkpt lat="44.39212" lon="6.62601">
        <ele>1154.5</ele>
        <time>2023-07-07T08:00:39Z</time>
      </trkpt>
      <trkpt lat="44.39206" lon="6.6258">
        <ele>1153.1</ele>
        <time>2023-07-07T08:00:41Z</time>
      </trkpt>
      <trkpt lat="44.39199" lon="6.62559">
        <ele>1151.6</ele>
        <time>2023-07-07T08:00:43Z</time>
      </trkpt>
      <trkpt lat="44.39193" lon="6.62541">
        <ele>1150.4</ele>
        <time>2023-07-07T08:00:45Z</time>
      </trkpt>
      <trkpt lat="44.39188" lon="6.62521">
        <ele>1149.3</ele>
        <time>2023-07-07T08:00:47Z</time>
      </trkpt>
      <trkpt lat="44.39182" lon="6.62501">
        <ele>1148.1</ele>
        <time>2023-07-07T08:00:49Z</time>
      </trkpt>
      <trkpt lat="44.39177" lon="6.62484">
        <ele>1147.4</ele>
        <time>2023-07-07T08:00:51Z</time>
      </trkpt>
      <trkpt lat="44.39173" lon="6.62466">
        <ele>1146.4</ele>
        <time>2023-07-07T08:00:53Z</time>
      </trkpt>
      <trkpt lat="44.39169" lon="6.62448">
        <ele>1145.4</ele>
        <time>2023-07-07T08:00:55Z</time>
      </trkpt>
      <trkpt lat="44.39167" lon="6.62432">
        <ele>1144.6</ele>
        <time>2023-07-07T08:00:57Z</time>
      </trkpt>
      <trkpt lat="44.39166" lon="6.62415">
        <ele>1143.9</ele>
        <time>2023-07-07T08:00:59Z</time>
      </trkpt>
      <trkpt lat="44.39164" lon="6.62398">
        <ele>1143</ele>
        <time>2023-07-07T08:01:01Z</time>
      </trkpt>
      <trkpt lat="44.39163" lon="6.62381">
        <ele>1142.5</ele>
        <time>2023-07-07T08:01:03Z</time>
      </trkpt>
      <trkpt lat="44.3916" lon="6.62361">
        <ele>1142</ele>
        <time>2023-07-07T08:01:05Z</time>
      </trkpt>
      <trkpt lat="44.39156" lon="6.62339">
        <ele>1140.7</ele>
        <time>2023-07-07T08:01:07Z</time>
      </trkpt>
      <trkpt lat="44.39154" lon="6.62327">
        <ele>1139.8</ele>
        <time>2023-07-07T08:01:08Z</time>
      </trkpt>
      <trkpt lat="44.3915" lon="6.62315">
        <ele>1138.7</ele>
        <time>2023-07-07T08:01:09Z</time>
      </trkpt>
      <trkpt lat="44.39147" lon="6.62303">
        <ele>1137.7</ele>
        <time>2023-07-07T08:01:10Z</time>
      </trkpt>
      <trkpt lat="44.39141" lon="6.62279">
        <ele>1136.1</ele>
        <time>2023-07-07T08:01:12Z</time>
      </trkpt>
      <trkpt lat="44.39136" lon="6.62254">
        <ele>1134.2</ele>
        <time>2023-07-07T08:01:14Z</time>
      </trkpt>
      <trkpt lat="44.39135" lon="6.62241">
        <ele>1133.5</ele>
        <time>2023-07-07T08:01:15Z</time>
      </trkpt>
      <trkpt lat="44.39135" lon="6.62228">
        <ele>1133.1</ele>
        <time>2023-07-07T08:01:16Z</time>
      </trkpt>
      <trkpt lat="44.39135" lon="6.62214">
        <ele>1132.9</ele>
        <time>2023-07-07T08:01:17Z</time>
      </trkpt>
      <trkpt lat="44.39135" lon="6.62199">
        <ele>1132.8</ele>
        <time>2023-07-07T08:01:18Z</time>
      </trkpt>
      <trkpt lat="44.39136" lon="6.62185">
        <ele>1132.9</ele>
        <time>2023-07-07T08:01:19Z</time>
      </trkpt>
      <trkpt lat="44.39138" lon="6.62172">
        <ele>1133</ele>
        <time>2023-07-07T08:01:20Z</time>
      </trkpt>
      <trkpt lat="44.39141" lon="6.62159">
        <ele>1133.1</ele>
        <time>2023-07-07T08:01:21Z</time>
      </trkpt>
      <trkpt lat="44.39144" lon="6.62147">
        <ele>1133.2</ele>
        <time>2023-07-07T08:01:22Z</time>
      </trkpt>
      <trkpt lat="44.3915" lon="6.62125">
        <ele>1133.6</ele>
        <time>2023-07-07T08:01:24Z</time>
      </trkpt>
      <trkpt lat="44.39155" lon="6.62107">
        <ele>1134.3</ele>
        <time>2023-07-07T08:01:26Z</time>
      </trkpt>
      <trkpt lat="44.39158" lon="6.62091">
        <ele>1134.9</ele>
        <time>2023-07-07T08:01:28Z</time>
      </trkpt>
      <trkpt lat="44.39162" lon="6.62078">
        <ele>1135.4</ele>
        <time>2023-07-07T08:01:30Z</time>
      </trkpt>
      <trkpt lat="44.39164" lon="6.62062">
        <ele>1135</ele>
        <time>2023-07-07T08:01:33Z</time>
      </trkpt>
      <trkpt lat="44.39167" lon="6.62047">
        <ele>1135</ele>
        <time>2023-07-07T08:01:37Z</time>
      </trkpt>
      <trkpt lat="44.39168" lon="6.6203">
        <ele>1135.1</ele>
        <time>2023-07-07T08:01:41Z</time>
      </trkpt>
      <trkpt lat="44.39166" lon="6.62017">
        <ele>1135</ele>
        <time>2023-07-07T08:01:44Z</time>
      </trkpt>
      <trkpt lat="44.39164" lon="6.62003">
        <ele>1134.8</ele>
        <time>2023-07-07T08:01:48Z</time>
      </trkpt>
      <trkpt lat="44.39157" lon="6.61995">
        <ele>1134.3</ele>
        <time>2023-07-07T08:02:25Z</time>
      </trkpt>
      <trkpt lat="44.39147" lon="6.61991">
        <ele>1133.6</ele>
        <time>2023-07-07T08:02:30Z</time>
      </trkpt>
      <trkpt lat="44.39136" lon="6.61986">
        <ele>1132.8</ele>
        <time>2023-07-07T08:02:34Z</time>
      </trkpt>
      <trkpt lat="44.39143" lon="6.61999">
        <ele>1133.3</ele>
        <time>2023-07-07T08:02:51Z</time>
      </trkpt>
      <trkpt lat="44.39154" lon="6.61995">
        <ele>1134.1</ele>
        <time>2023-07-07T08:02:54Z</time>
      </trkpt>
      <trkpt lat="44.3916" lon="6.61979">
        <ele>1134.5</ele>
        <time>2023-07-07T08:02:57Z</time>
      </trkpt>
      <trkpt lat="44.39159" lon="6.61963">
        <ele>1134.4</ele>
        <time>2023-07-07T08:03:00Z</time>
      </trkpt>
      <trkpt lat="44.39157" lon="6.61945">
        <ele>1134.3</ele>
        <time>2023-07-07T08:03:03Z</time>
      </trkpt>
      <trkpt lat="44.39157" lon="6.61933">
        <ele>1134.3</ele>
        <time>2023-07-07T08:03:05Z</time>
      </trkpt>
      <trkpt lat="44.39156" lon="6.6192">
        <ele>1134.2</ele>
        <time>2023-07-07T08:03:07Z</time>
      </trkpt>
      <trkpt lat="44.39154" lon="6.61903">
        <ele>1133.8</ele>
        <time>2023-07-07T08:03:09Z</time>
      </trkpt>
      <trkpt lat="44.39153" lon="6.61884">
        <ele>1133.5</ele>
        <time>2023-07-07T08:03:12Z</time>
      </trkpt>
      <trkpt lat="44.39153" lon="6.6187">
        <ele>1133.5</ele>
        <time>2023-07-07T08:03:14Z</time>
      </trkpt>
      <trkpt lat="44.39151" lon="6.61857">
        <ele>1133.4</ele>
        <time>2023-07-07T08:03:16Z</time>
      </trkpt>
      <trkpt lat="44.39147" lon="6.61842">
        <ele>1133.3</ele>
        <time>2023-07-07T08:03:18Z</time>
      </trkpt>
      <trkpt lat="44.39144" lon="6.61826">
        <ele>1133.5</ele>
        <time>2023-07-07T08:03:21Z</time>
      </trkpt>
      <trkpt lat="44.3914" lon="6.6181">
        <ele>1133.9</ele>
        <time>2023-07-07T08:03:24Z</time>
      </trkpt>
      <trkpt lat="44.39135" lon="6.61795">
        <ele>1134.6</ele>
        <time>2023-07-07T08:03:27Z</time>
      </trkpt>
      <trkpt lat="44.39131" lon="6.61782">
        <ele>1135.1</ele>
        <time>2023-07-07T08:03:30Z</time>
      </trkpt>
      <trkpt lat="44.39125" lon="6.61768">
        <ele>1135.5</ele>
        <time>2023-07-07T08:03:33Z</time>
      </trkpt>
      <trkpt lat="44.39121" lon="6.61755">
        <ele>1136.1</ele>
        <time>2023-07-07T08:03:36Z</time>
      </trkpt>
      <trkpt lat="44.39117" lon="6.61741">
        <ele>1136.5</ele>
        <time>2023-07-07T08:03:39Z</time>
      </trkpt>
      <trkpt lat="44.39114" lon="6.61726">
        <ele>1137</ele>
        <time>2023-07-07T08:03:42Z</time>
      </trkpt>
      <trkpt lat="44.39113" lon="6.61713">
        <ele>1137.4</ele>
        <time>2023-07-07T08:03:45Z</time>
      </trkpt>
      <trkpt lat="44.39113" lon="6.61697">
        <ele>1138</ele>
        <time>2023-07-07T08:03:49Z</time>
      </trkpt>
      <trkpt lat="44.39115" lon="6.61683">
        <ele>1139</ele>
        <time>2023-07-07T08:03:54Z</time>
      </trkpt>
      <trkpt lat="44.39117" lon="6.6167">
        <ele>1140</ele>
        <time>2023-07-07T08:03:59Z</time>
      </trkpt>
      <trkpt lat="44.39117" lon="6.61656">
        <ele>1141</ele>
        <time>2023-07-07T08:04:03Z</time>
      </trkpt>
      <trkpt lat="44.3912" lon="6.61642">
        <ele>1142.1</ele>
        <time>2023-07-07T08:04:08Z</time>
      </trkpt>
      <trkpt lat="44.39124" lon="6.6163">
        <ele>1143</ele>
        <time>2023-07-07T08:04:12Z</time>
      </trkpt>
      <trkpt lat="44.39127" lon="6.61617">
        <ele>1143.7</ele>
        <time>2023-07-07T08:04:16Z</time>
      </trkpt>
      <trkpt lat="44.3913" lon="6.61602">
        <ele>1144.5</ele>
        <time>2023-07-07T08:04:20Z</time>
      </trkpt>
      <trkpt lat="44.39132" lon="6.61588">
        <ele>1145.4</ele>
        <time>2023-07-07T08:04:24Z</time>
      </trkpt>
      <trkpt lat="44.39136" lon="6.61576">
        <ele>1146.2</ele>
        <time>2023-07-07T08:04:28Z</time>
      </trkpt>
      <trkpt lat="44.3914" lon="6.61564">
        <ele>1146.7</ele>
        <time>2023-07-07T08:04:32Z</time>
      </trkpt>
      <trkpt lat="44.39146" lon="6.61551">
        <ele>1147.6</ele>
        <time>2023-07-07T08:04:37Z</time>
      </trkpt>
      <trkpt lat="44.39151" lon="6.61537">
        <ele>1148.8</ele>
        <time>2023-07-07T08:04:42Z</time>
      </trkpt>
      <trkpt lat="44.39155" lon="6.61525">
        <ele>1149.7</ele>
        <time>2023-07-07T08:04:47Z</time>
      </trkpt>
      <trkpt lat="44.39157" lon="6.6151">
        <ele>1150.3</ele>
        <time>2023-07-07T08:04:52Z</time>
      </trkpt>
      <trkpt lat="44.39162" lon="6.61499">
        <ele>1150.9</ele>
        <time>2023-07-07T08:04:57Z</time>
      </trkpt>
      <trkpt lat="44.39166" lon="6.61485">
        <ele>1151.5</ele>
        <time>2023-07-07T08:05:02Z</time>
      </trkpt>
      <trkpt lat="44.39172" lon="6.61474">
        <ele>1152.3</ele>
        <time>2023-07-07T08:05:07Z</time>
      </trkpt>
      <trkpt lat="44.39178" lon="6.61464">
        <ele>1153.3</ele>
        <time>2023-07-07T08:05:12Z</time>
      </trkpt>
      <trkpt lat="44.39183" lon="6.61452">
        <ele>1154.2</ele>
        <time>2023-07-07T08:05:17Z</time>
      </trkpt>
      <trkpt lat="44.39188" lon="6.6144">
        <ele>1154.9</ele>
        <time>2023-07-07T08:05:22Z</time>
      </trkpt>
      <trkpt lat="44.39192" lon="6.61427">
        <ele>1155.6</ele>
        <time>2023-07-07T08:05:27Z</time>
      </trkpt>
      <trkpt lat="44.39194" lon="6.61412">
        <ele>1156.1</ele>
        <time>2023-07-07T08:05:32Z</time>
      </trkpt>
      <trkpt lat="44.39196" lon="6.61399">
        <ele>1156.8</ele>
        <time>2023-07-07T08:05:37Z</time>
      </trkpt>
      <trkpt lat="44.39199" lon="6.61384">
        <ele>1157.6</ele>
        <time>2023-07-07T08:05:42Z</time>
      </trkpt>
      <trkpt lat="44.39202" lon="6.6137">
        <ele>1158.5</ele>
        <time>2023-07-07T08:05:47Z</time>
      </trkpt>
      <trkpt lat="44.39209" lon="6.61359">
        <ele>1159.6</ele>
        <time>2023-07-07T08:05:52Z</time>
      </trkpt>
      <trkpt lat="44.39215" lon="6.61348">
        <ele>1161</ele>
        <time>2023-07-07T08:05:57Z</time>
      </trkpt>
      <trkpt lat="44.39221" lon="6.61338">
        <ele>1162.5</ele>
        <time>2023-07-07T08:06:02Z</time>
      </trkpt>
      <trkpt lat="44.3923" lon="6.6133">
        <ele>1163.7</ele>
        <time>2023-07-07T08:06:07Z</time>
      </trkpt>
      <trkpt lat="44.39236" lon="6.61321">
        <ele>1164.5</ele>
        <time>2023-07-07T08:06:11Z</time>
      </trkpt>
      <trkpt lat="44.39243" lon="6.61308">
        <ele>1165.4</ele>
        <time>2023-07-07T08:06:16Z</time>
      </trkpt>
      <trkpt lat="44.39246" lon="6.61293">
        <ele>1166.2</ele>
        <time>2023-07-07T08:06:21Z</time>
      </trkpt>
      <trkpt lat="44.39244" lon="6.61279">
        <ele>1166.5</ele>
        <time>2023-07-07T08:06:25Z</time>
      </trkpt>
      <trkpt lat="44.39241" lon="6.61267">
        <ele>1166.8</ele>
        <time>2023-07-07T08:06:30Z</time>
      </trkpt>
      <trkpt lat="44.39237" lon="6.61253">
        <ele>1167.3</ele>
        <time>2023-07-07T08:06:34Z</time>
      </trkpt>
      <trkpt lat="44.39233" lon="6.61239">
        <ele>1167.8</ele>
        <time>2023-07-07T08:06:38Z</time>
      </trkpt>
      <trkpt lat="44.39228" lon="6.61225">
        <ele>1168.1</ele>
        <time>2023-07-07T08:06:42Z</time>
      </trkpt>
      <trkpt lat="44.39223" lon="6.61211">
        <ele>1168</ele>
        <time>2023-07-07T08:06:46Z</time>
      </trkpt>
      <trkpt lat="44.3922" lon="6.61196">
        <ele>1167.8</ele>
        <time>2023-07-07T08:06:50Z</time>
      </trkpt>
      <trkpt lat="44.39216" lon="6.61182">
        <ele>1167.5</ele>
        <time>2023-07-07T08:06:54Z</time>
      </trkpt>
      <trkpt lat="44.39211" lon="6.61167">
        <ele>1167.2</ele>
        <time>2023-07-07T08:06:58Z</time>
      </trkpt>
      <trkpt lat="44.39207" lon="6.61155">
        <ele>1167.1</ele>
        <time>2023-07-07T08:07:01Z</time>
      </trkpt>
      <trkpt lat="44.39202" lon="6.61142">
        <ele>1166.8</ele>
        <time>2023-07-07T08:07:04Z</time>
      </trkpt>
      <trkpt lat="44.39198" lon="6.61131">
        <ele>1166.6</ele>
        <time>2023-07-07T08:07:08Z</time>
      </trkpt>
      <trkpt lat="44.39193" lon="6.6112">
        <ele>1166.5</ele>
        <time>2023-07-07T08:08:22Z</time>
      </trkpt>
      <trkpt lat="44.3919" lon="6.61108">
        <ele>1166.6</ele>
        <time>2023-07-07T08:08:26Z</time>
      </trkpt>
      <trkpt lat="44.39185" lon="6.61096">
        <ele>1166.6</ele>
        <time>2023-07-07T08:08:29Z</time>
      </trkpt>
      <trkpt lat="44.39182" lon="6.61081">
        <ele>1166.7</ele>
        <time>2023-07-07T08:08:32Z</time>
      </trkpt>
      <trkpt lat="44.39178" lon="6.61067">
        <ele>1166.5</ele>
        <time>2023-07-07T08:08:35Z</time>
      </trkpt>
      <trkpt lat="44.39173" lon="6.61052">
        <ele>1166.6</ele>
        <time>2023-07-07T08:08:38Z</time>
      </trkpt>
      <trkpt lat="44.39168" lon="6.61036">
        <ele>1166.8</ele>
        <time>2023-07-07T08:08:41Z</time>
      </trkpt>
      <trkpt lat="44.39163" lon="6.61021">
        <ele>1166.7</ele>
        <time>2023-07-07T08:08:44Z</time>
      </trkpt>
      <trkpt lat="44.39158" lon="6.61005">
        <ele>1166.4</ele>
        <time>2023-07-07T08:08:47Z</time>
      </trkpt>
      <trkpt lat="44.39156" lon="6.60988">
        <ele>1166.6</ele>
        <time>2023-07-07T08:08:50Z</time>
      </trkpt>
      <trkpt lat="44.39154" lon="6.60971">
        <ele>1167.1</ele>
        <time>2023-07-07T08:08:53Z</time>
      </trkpt>
      <trkpt lat="44.39153" lon="6.60958">
        <ele>1167</ele>
        <time>2023-07-07T08:08:55Z</time>
      </trkpt>
      <trkpt lat="44.39154" lon="6.60944">
        <ele>1167.1</ele>
        <time>2023-07-07T08:08:57Z</time>
      </trkpt>
      <trkpt lat="44.39153" lon="6.6093">
        <ele>1167</ele>
        <time>2023-07-07T08:08:59Z</time>
      </trkpt>
      <trkpt lat="44.3915" lon="6.60912">
        <ele>1166.8</ele>
        <time>2023-07-07T08:09:01Z</time>
      </trkpt>
      <trkpt lat="44.39148" lon="6.60895">
        <ele>1166.7</ele>
        <time>2023-07-07T08:09:03Z</time>
      </trkpt>
      <trkpt lat="44.3915" lon="6.60878">
        <ele>1166.4</ele>
        <time>2023-07-07T08:09:06Z</time>
      </trkpt>
      <trkpt lat="44.39151" lon="6.60862">
        <ele>1165.9</ele>
        <time>2023-07-07T08:09:08Z</time>
      </trkpt>
      <trkpt lat="44.39152" lon="6.60848">
        <ele>1165.9</ele>
        <time>2023-07-07T08:09:10Z</time>
      </trkpt>
      <trkpt lat="44.39153" lon="6.60833">
        <ele>1166</ele>
        <time>2023-07-07T08:09:12Z</time>
      </trkpt>
      <trkpt lat="44.39153" lon="6.6082">
        <ele>1165.5</ele>
        <time>2023-07-07T08:09:14Z</time>
      </trkpt>
      <trkpt lat="44.39154" lon="6.60806">
        <ele>1165.1</ele>
        <time>2023-07-07T08:09:16Z</time>
      </trkpt>
      <trkpt lat="44.39153" lon="6.60794">
        <ele>1165</ele>
        <time>2023-07-07T08:09:18Z</time>
      </trkpt>
      <trkpt lat="44.39153" lon="6.6078">
        <ele>1165</ele>
        <time>2023-07-07T08:09:20Z</time>
      </trkpt>
      <trkpt lat="44.39153" lon="6.60766">
        <ele>1164.6</ele>
        <time>2023-07-07T08:09:22Z</time>
      </trkpt>
      <trkpt lat="44.39153" lon="6.60747">
        <ele>1164</ele>
        <time>2023-07-07T08:09:25Z</time>
      </trkpt>
      <trkpt lat="44.39154" lon="6.60731">
        <ele>1163.7</ele>
        <time>2023-07-07T08:09:27Z</time>
      </trkpt>
      <trkpt lat="44.39153" lon="6.60714">
        <ele>1163.2</ele>
        <time>2023-07-07T08:09:29Z</time>
      </trkpt>
      <trkpt lat="44.39156" lon="6.60698">
        <ele>1162.7</ele>
        <time>2023-07-07T08:09:31Z</time>
      </trkpt>
      <trkpt lat="44.3916" lon="6.60682">
        <ele>1162.3</ele>
        <time>2023-07-07T08:09:33Z</time>
      </trkpt>
      <trkpt lat="44.39166" lon="6.60668">
        <ele>1162</ele>
        <time>2023-07-07T08:09:35Z</time>
      </trkpt>
      <trkpt lat="44.39175" lon="6.60657">
        <ele>1162</ele>
        <time>2023-07-07T08:09:37Z</time>
      </trkpt>
      <trkpt lat="44.39183" lon="6.60643">
        <ele>1161.7</ele>
        <time>2023-07-07T08:09:39Z</time>
      </trkpt>
      <trkpt lat="44.39189" lon="6.60631">
        <ele>1161.5</ele>
        <time>2023-07-07T08:09:41Z</time>
      </trkpt>
      <trkpt lat="44.39199" lon="6.60623">
        <ele>1161.4</ele>
        <time>2023-07-07T08:09:43Z</time>
      </trkpt>
      <trkpt lat="44.39205" lon="6.60612">
        <ele>1161</ele>
        <time>2023-07-07T08:09:45Z</time>
      </trkpt>
      <trkpt lat="44.39212" lon="6.60602">
        <ele>1160.4</ele>
        <time>2023-07-07T08:09:47Z</time>
      </trkpt>
      <trkpt lat="44.39222" lon="6.60596">
        <ele>1159.9</ele>
        <time>2023-07-07T08:09:49Z</time>
      </trkpt>
      <trkpt lat="44.39232" lon="6.60581">
        <ele>1158.9</ele>
        <time>2023-07-07T08:09:52Z</time>
      </trkpt>
      <trkpt lat="44.3924" lon="6.60572">
        <ele>1158.4</ele>
        <time>2023-07-07T08:09:54Z</time>
      </trkpt>
      <trkpt lat="44.39247" lon="6.60562">
        <ele>1158.1</ele>
        <time>2023-07-07T08:09:56Z</time>
      </trkpt>
      <trkpt lat="44.39255" lon="6.60553">
        <ele>1158.1</ele>
        <time>2023-07-07T08:09:58Z</time>
      </trkpt>
      <trkpt lat="44.39262" lon="6.60543">
        <ele>1158</ele>
        <time>2023-07-07T08:10:00Z</time>
      </trkpt>
      <trkpt lat="44.39271" lon="6.60535">
        <ele>1158</ele>
        <time>2023-07-07T08:10:02Z</time>
      </trkpt>
      <trkpt lat="44.39282" lon="6.60525">
        <ele>1157.8</ele>
        <time>2023-07-07T08:10:04Z</time>
      </trkpt>
      <trkpt lat="44.3929" lon="6.60514">
        <ele>1157.2</ele>
        <time>2023-07-07T08:10:06Z</time>
      </trkpt>
      <trkpt lat="44.393" lon="6.60504">
        <ele>1157</ele>
        <time>2023-07-07T08:10:08Z</time>
      </trkpt>
      <trkpt lat="44.39312" lon="6.60495">
        <ele>1157</ele>
        <time>2023-07-07T08:10:10Z</time>
      </trkpt>
      <trkpt lat="44.39323" lon="6.60484">
        <ele>1157.1</ele>
        <time>2023-07-07T08:10:12Z</time>
      </trkpt>
      <trkpt lat="44.39334" lon="6.60472">
        <ele>1157</ele>
        <time>2023-07-07T08:10:14Z</time>
      </trkpt>
      <trkpt lat="44.39344" lon="6.60459">
        <ele>1156.9</ele>
        <time>2023-07-07T08:10:16Z</time>
      </trkpt>
      <trkpt lat="44.39353" lon="6.60451">
        <ele>1156.9</ele>
        <time>2023-07-07T08:10:18Z</time>
      </trkpt>
      <trkpt lat="44.39361" lon="6.6044">
        <ele>1156.8</ele>
        <time>2023-07-07T08:10:20Z</time>
      </trkpt>
      <trkpt lat="44.39371" lon="6.60431">
        <ele>1157.2</ele>
        <time>2023-07-07T08:10:22Z</time>
      </trkpt>
      <trkpt lat="44.39378" lon="6.60423">
        <ele>1157.5</ele>
        <time>2023-07-07T08:10:24Z</time>
      </trkpt>
      <trkpt lat="44.39388" lon="6.60416">
        <ele>1157.9</ele>
        <time>2023-07-07T08:10:26Z</time>
      </trkpt>
      <trkpt lat="44.39395" lon="6.60406">
        <ele>1158.2</ele>
        <time>2023-07-07T08:10:28Z</time>
      </trkpt>
      <trkpt lat="44.394" lon="6.60395">
        <ele>1158.4</ele>
        <time>2023-07-07T08:10:30Z</time>
      </trkpt>
      <trkpt lat="44.39406" lon="6.6038">
        <ele>1158.3</ele>
        <time>2023-07-07T08:10:32Z</time>
      </trkpt>
      <trkpt lat="44.39412" lon="6.60367">
        <ele>1157.9</ele>
        <time>2023-07-07T08:10:34Z</time>
      </trkpt>
      <trkpt lat="44.39418" lon="6.60351">
        <ele>1157.4</ele>
        <time>2023-07-07T08:10:36Z</time>
      </trkpt>
      <trkpt lat="44.39424" lon="6.60337">
        <ele>1157</ele>
        <time>2023-07-07T08:10:38Z</time>
      </trkpt>
      <trkpt lat="44.39431" lon="6.60326">
        <ele>1156.9</ele>
        <time>2023-07-07T08:10:40Z</time>
      </trkpt>
      <trkpt lat="44.39435" lon="6.60313">
        <ele>1156</ele>
        <time>2023-07-07T08:10:42Z</time>
      </trkpt>
      <trkpt lat="44.39439" lon="6.603">
        <ele>1155.2</ele>
        <time>2023-07-07T08:10:44Z</time>
      </trkpt>
      <trkpt lat="44.39444" lon="6.60288">
        <ele>1154.7</ele>
        <time>2023-07-07T08:10:46Z</time>
      </trkpt>
      <trkpt lat="44.39449" lon="6.60276">
        <ele>1154.4</ele>
        <time>2023-07-07T08:10:48Z</time>
      </trkpt>
      <trkpt lat="44.39456" lon="6.60266">
        <ele>1154.2</ele>
        <time>2023-07-07T08:10:50Z</time>
      </trkpt>
      <trkpt lat="44.39463" lon="6.60255">
        <ele>1154.1</ele>
        <time>2023-07-07T08:10:52Z</time>
      </trkpt>
      <trkpt lat="44.39472" lon="6.60246">
        <ele>1154.4</ele>
        <time>2023-07-07T08:10:54Z</time>
      </trkpt>
      <trkpt lat="44.39479" lon="6.60238">
        <ele>1154.4</ele>
        <time>2023-07-07T08:10:56Z</time>
      </trkpt>
      <trkpt lat="44.39487" lon="6.6023">
        <ele>1154.5</ele>
        <time>2023-07-07T08:10:58Z</time>
      </trkpt>
      <trkpt lat="44.39495" lon="6.60221">
        <ele>1154.4</ele>
        <time>2023-07-07T08:11:00Z</time>
      </trkpt>
      <trkpt lat="44.39502" lon="6.60212">
        <ele>1155.2</ele>
        <time>2023-07-07T08:11:02Z</time>
      </trkpt>
      <trkpt lat="44.39508" lon="6.60198">
        <ele>1155.8</ele>
        <time>2023-07-07T08:11:05Z</time>
      </trkpt>
      <trkpt lat="44.3951" lon="6.60186">
        <ele>1156.2</ele>
        <time>2023-07-07T08:11:08Z</time>
      </trkpt>
      <trkpt lat="44.3951" lon="6.60171">
        <ele>1156.3</ele>
        <time>2023-07-07T08:11:11Z</time>
      </trkpt>
      <trkpt lat="44.39507" lon="6.60154">
        <ele>1156.5</ele>
        <time>2023-07-07T08:11:14Z</time>
      </trkpt>
      <trkpt lat="44.39504" lon="6.60137">
        <ele>1156.7</ele>
        <time>2023-07-07T08:11:17Z</time>
      </trkpt>
      <trkpt lat="44.39503" lon="6.60123">
        <ele>1157</ele>
        <time>2023-07-07T08:11:20Z</time>
      </trkpt>
      <trkpt lat="44.39503" lon="6.6011">
        <ele>1157.4</ele>
        <time>2023-07-07T08:11:23Z</time>
      </trkpt>
      <trkpt lat="44.39503" lon="6.60095">
        <ele>1158.6</ele>
        <time>2023-07-07T08:11:28Z</time>
      </trkpt>
      <trkpt lat="44.39504" lon="6.60082">
        <ele>1159.9</ele>
        <time>2023-07-07T08:11:32Z</time>
      </trkpt>
      <trkpt lat="44.39502" lon="6.60069">
        <ele>1160.9</ele>
        <time>2023-07-07T08:11:36Z</time>
      </trkpt>
      <trkpt lat="44.39496" lon="6.60055">
        <ele>1161.5</ele>
        <time>2023-07-07T08:11:40Z</time>
      </trkpt>
      <trkpt lat="44.39491" lon="6.60043">
        <ele>1161.1</ele>
        <time>2023-07-07T08:11:44Z</time>
      </trkpt>
      <trkpt lat="44.39488" lon="6.60031">
        <ele>1161.2</ele>
        <time>2023-07-07T08:11:47Z</time>
      </trkpt>
      <trkpt lat="44.39486" lon="6.60015">
        <ele>1161.5</ele>
        <time>2023-07-07T08:11:50Z</time>
      </trkpt>
      <trkpt lat="44.39483" lon="6.59997">
        <ele>1161.6</ele>
        <time>2023-07-07T08:11:53Z</time>
      </trkpt>
      <trkpt lat="44.3948" lon="6.59985">
        <ele>1161.7</ele>
        <time>2023-07-07T08:11:55Z</time>
      </trkpt>
      <trkpt lat="44.39475" lon="6.59973">
        <ele>1161.6</ele>
        <time>2023-07-07T08:11:57Z</time>
      </trkpt>
      <trkpt lat="44.39471" lon="6.59959">
        <ele>1162.3</ele>
        <time>2023-07-07T08:12:00Z</time>
      </trkpt>
      <trkpt lat="44.39468" lon="6.59947">
        <ele>1162.6</ele>
        <time>2023-07-07T08:12:03Z</time>
      </trkpt>
      <trkpt lat="44.39467" lon="6.59933">
        <ele>1163.4</ele>
        <time>2023-07-07T08:12:07Z</time>
      </trkpt>
      <trkpt lat="44.39465" lon="6.59919">
        <ele>1164</ele>
        <time>2023-07-07T08:12:11Z</time>
      </trkpt>
      <trkpt lat="44.39462" lon="6.59904">
        <ele>1164.2</ele>
        <time>2023-07-07T08:12:15Z</time>
      </trkpt>
      <trkpt lat="44.3946" lon="6.5989">
        <ele>1164.9</ele>
        <time>2023-07-07T08:12:19Z</time>
      </trkpt>
      <trkpt lat="44.39457" lon="6.59876">
        <ele>1164.9</ele>
        <time>2023-07-07T08:12:22Z</time>
      </trkpt>
      <trkpt lat="44.39457" lon="6.59862">
        <ele>1165.6</ele>
        <time>2023-07-07T08:12:25Z</time>
      </trkpt>
      <trkpt lat="44.39456" lon="6.59849">
        <ele>1165.6</ele>
        <time>2023-07-07T08:12:28Z</time>
      </trkpt>
      <trkpt lat="44.39457" lon="6.59835">
        <ele>1166.1</ele>
        <time>2023-07-07T08:12:31Z</time>
      </trkpt>
      <trkpt lat="44.3946" lon="6.59822">
        <ele>1166.3</ele>
        <time>2023-07-07T08:12:34Z</time>
      </trkpt>
      <trkpt lat="44.39463" lon="6.59806">
        <ele>1166.5</ele>
        <time>2023-07-07T08:12:37Z</time>
      </trkpt>
      <trkpt lat="44.39467" lon="6.59789">
        <ele>1166.4</ele>
        <time>2023-07-07T08:12:40Z</time>
      </trkpt>
      <trkpt lat="44.39469" lon="6.59776">
        <ele>1166</ele>
        <time>2023-07-07T08:12:42Z</time>
      </trkpt>
      <trkpt lat="44.39471" lon="6.59764">
        <ele>1165.6</ele>
        <time>2023-07-07T08:12:44Z</time>
      </trkpt>
      <trkpt lat="44.39473" lon="6.5975">
        <ele>1165.2</ele>
        <time>2023-07-07T08:12:46Z</time>
      </trkpt>
      <trkpt lat="44.39475" lon="6.59738">
        <ele>1165.5</ele>
        <time>2023-07-07T08:12:48Z</time>
      </trkpt>
      <trkpt lat="44.39476" lon="6.59725">
        <ele>1165.5</ele>
        <time>2023-07-07T08:12:50Z</time>
      </trkpt>
      <trkpt lat="44.39477" lon="6.59711">
        <ele>1165.6</ele>
        <time>2023-07-07T08:12:52Z</time>
      </trkpt>
      <trkpt lat="44.39477" lon="6.59697">
        <ele>1165.5</ele>
        <time>2023-07-07T08:12:54Z</time>
      </trkpt>
      <trkpt lat="44.39478" lon="6.59684">
        <ele>1165.9</ele>
        <time>2023-07-07T08:12:56Z</time>
      </trkpt>
      <trkpt lat="44.39479" lon="6.59667">
        <ele>1165.9</ele>
        <time>2023-07-07T08:12:59Z</time>
      </trkpt>
      <trkpt lat="44.39479" lon="6.59651">
        <ele>1165.8</ele>
        <time>2023-07-07T08:13:02Z</time>
      </trkpt>
      <trkpt lat="44.39476" lon="6.59636">
        <ele>1165.1</ele>
        <time>2023-07-07T08:13:04Z</time>
      </trkpt>
      <trkpt lat="44.39476" lon="6.59623">
        <ele>1164.4</ele>
        <time>2023-07-07T08:13:06Z</time>
      </trkpt>
      <trkpt lat="44.39476" lon="6.59611">
        <ele>1164</ele>
        <time>2023-07-07T08:13:08Z</time>
      </trkpt>
      <trkpt lat="44.39476" lon="6.59598">
        <ele>1164.1</ele>
        <time>2023-07-07T08:13:10Z</time>
      </trkpt>
      <trkpt lat="44.39475" lon="6.59584">
        <ele>1163.8</ele>
        <time>2023-07-07T08:13:12Z</time>
      </trkpt>
      <trkpt lat="44.39473" lon="6.59571">
        <ele>1163.7</ele>
        <time>2023-07-07T08:13:14Z</time>
      </trkpt>
      <trkpt lat="44.39471" lon="6.59554">
        <ele>1163.7</ele>
        <time>2023-07-07T08:13:17Z</time>
      </trkpt>
      <trkpt lat="44.39465" lon="6.59542">
        <ele>1162.9</ele>
        <time>2023-07-07T08:13:19Z</time>
      </trkpt>
      <trkpt lat="44.39459" lon="6.59532">
        <ele>1162</ele>
        <time>2023-07-07T08:13:21Z</time>
      </trkpt>
      <trkpt lat="44.3945" lon="6.5952">
        <ele>1160.9</ele>
        <time>2023-07-07T08:13:24Z</time>
      </trkpt>
      <trkpt lat="44.39442" lon="6.59511">
        <ele>1159.5</ele>
        <time>2023-07-07T08:13:39Z</time>
      </trkpt>
      <trkpt lat="44.39428" lon="6.59513">
        <ele>1157.1</ele>
        <time>2023-07-07T08:13:42Z</time>
      </trkpt>
      <trkpt lat="44.39416" lon="6.59517">
        <ele>1155</ele>
        <time>2023-07-07T08:13:44Z</time>
      </trkpt>
      <trkpt lat="44.39403" lon="6.59519">
        <ele>1153</ele>
        <time>2023-07-07T08:13:46Z</time>
      </trkpt>
      <trkpt lat="44.39389" lon="6.59517">
        <ele>1151</ele>
        <time>2023-07-07T08:13:48Z</time>
      </trkpt>
      <trkpt lat="44.39374" lon="6.59508">
        <ele>1149.4</ele>
        <time>2023-07-07T08:13:50Z</time>
      </trkpt>
      <trkpt lat="44.39359" lon="6.59503">
        <ele>1147.7</ele>
        <time>2023-07-07T08:13:52Z</time>
      </trkpt>
      <trkpt lat="44.39341" lon="6.59503">
        <ele>1145.9</ele>
        <time>2023-07-07T08:13:54Z</time>
      </trkpt>
      <trkpt lat="44.39332" lon="6.59504">
        <ele>1144.9</ele>
        <time>2023-07-07T08:13:55Z</time>
      </trkpt>
      <trkpt lat="44.39323" lon="6.59506">
        <ele>1143.9</ele>
        <time>2023-07-07T08:13:56Z</time>
      </trkpt>
      <trkpt lat="44.39314" lon="6.59507">
        <ele>1143</ele>
        <time>2023-07-07T08:13:57Z</time>
      </trkpt>
      <trkpt lat="44.39305" lon="6.59507">
        <ele>1142</ele>
        <time>2023-07-07T08:13:58Z</time>
      </trkpt>
      <trkpt lat="44.39288" lon="6.59507">
        <ele>1139.4</ele>
        <time>2023-07-07T08:14:00Z</time>
      </trkpt>
      <trkpt lat="44.3927" lon="6.59506">
        <ele>1136.7</ele>
        <time>2023-07-07T08:14:02Z</time>
      </trkpt>
      <trkpt lat="44.39261" lon="6.59506">
        <ele>1135</ele>
        <time>2023-07-07T08:14:03Z</time>
      </trkpt>
      <trkpt lat="44.39245" lon="6.59504">
        <ele>1132.5</ele>
        <time>2023-07-07T08:14:05Z</time>
      </trkpt>
      <trkpt lat="44.39228" lon="6.59502">
        <ele>1129.9</ele>
        <time>2023-07-07T08:14:07Z</time>
      </trkpt>
      <trkpt lat="44.39211" lon="6.59498">
        <ele>1127.8</ele>
        <time>2023-07-07T08:14:09Z</time>
      </trkpt>
      <trkpt lat="44.39202" lon="6.59494">
        <ele>1126.7</ele>
        <time>2023-07-07T08:14:10Z</time>
      </trkpt>
      <trkpt lat="44.39193" lon="6.59493">
        <ele>1125.5</ele>
        <time>2023-07-07T08:14:11Z</time>
      </trkpt>
      <trkpt lat="44.39175" lon="6.59489">
        <ele>1122.8</ele>
        <time>2023-07-07T08:14:13Z</time>
      </trkpt>
      <trkpt lat="44.39166" lon="6.59483">
        <ele>1121.3</ele>
        <time>2023-07-07T08:14:14Z</time>
      </trkpt>
      <trkpt lat="44.39155" lon="6.59477">
        <ele>1120.3</ele>
        <time>2023-07-07T08:14:15Z</time>
      </trkpt>
      <trkpt lat="44.39145" lon="6.59473">
        <ele>1119.5</ele>
        <time>2023-07-07T08:14:16Z</time>
      </trkpt>
      <trkpt lat="44.39134" lon="6.59468">
        <ele>1118.5</ele>
        <time>2023-07-07T08:14:17Z</time>
      </trkpt>
      <trkpt lat="44.39122" lon="6.59464">
        <ele>1117.4</ele>
        <time>2023-07-07T08:14:18Z</time>
      </trkpt>
      <trkpt lat="44.39112" lon="6.59458">
        <ele>1116.6</ele>
        <time>2023-07-07T08:14:19Z</time>
      </trkpt>
      <trkpt lat="44.39101" lon="6.59452">
        <ele>1115.8</ele>
        <time>2023-07-07T08:14:20Z</time>
      </trkpt>
      <trkpt lat="44.39089" lon="6.59447">
        <ele>1115.2</ele>
        <time>2023-07-07T08:14:21Z</time>
      </trkpt>
      <trkpt lat="44.39077" lon="6.59442">
        <ele>1114.5</ele>
        <time>2023-07-07T08:14:22Z</time>
      </trkpt>
      <trkpt lat="44.39064" lon="6.59437">
        <ele>1113.6</ele>
        <time>2023-07-07T08:14:23Z</time>
      </trkpt>
      <trkpt lat="44.39053" lon="6.59431">
        <ele>1112.9</ele>
        <time>2023-07-07T08:14:24Z</time>
      </trkpt>
      <trkpt lat="44.39042" lon="6.59426">
        <ele>1112.2</ele>
        <time>2023-07-07T08:14:25Z</time>
      </trkpt>
      <trkpt lat="44.3903" lon="6.59421">
        <ele>1111.3</ele>
        <time>2023-07-07T08:14:26Z</time>
      </trkpt>
      <trkpt lat="44.3902" lon="6.59418">
        <ele>1110.7</ele>
        <time>2023-07-07T08:14:27Z</time>
      </trkpt>
      <trkpt lat="44.39011" lon="6.59414">
        <ele>1110.3</ele>
        <time>2023-07-07T08:14:28Z</time>
      </trkpt>
      <trkpt lat="44.38994" lon="6.59404">
        <ele>1109.3</ele>
        <time>2023-07-07T08:14:30Z</time>
      </trkpt>
      <trkpt lat="44.3898" lon="6.59393">
        <ele>1108.4</ele>
        <time>2023-07-07T08:14:32Z</time>
      </trkpt>
      <trkpt lat="44.38966" lon="6.59386">
        <ele>1107.7</ele>
        <time>2023-07-07T08:14:34Z</time>
      </trkpt>
      <trkpt lat="44.38956" lon="6.59379">
        <ele>1107.1</ele>
        <time>2023-07-07T08:14:36Z</time>
      </trkpt>
      <trkpt lat="44.38947" lon="6.59373">
        <ele>1106.5</ele>
        <time>2023-07-07T08:14:38Z</time>
      </trkpt>
      <trkpt lat="44.3894" lon="6.59361">
        <ele>1106</ele>
        <time>2023-07-07T08:14:42Z</time>
      </trkpt>
      <trkpt lat="44.38941" lon="6.59347">
        <ele>1105.5</ele>
        <time>2023-07-07T08:14:45Z</time>
      </trkpt>
      <trkpt lat="44.38949" lon="6.59332">
        <ele>1105.1</ele>
        <time>2023-07-07T08:14:48Z</time>
      </trkpt>
      <trkpt lat="44.38954" lon="6.59318">
        <ele>1105.1</ele>
        <time>2023-07-07T08:14:50Z</time>
      </trkpt>
      <trkpt lat="44.38959" lon="6.59304">
        <ele>1105</ele>
        <time>2023-07-07T08:14:52Z</time>
      </trkpt>
      <trkpt lat="44.38964" lon="6.5929">
        <ele>1104.8</ele>
        <time>2023-07-07T08:14:54Z</time>
      </trkpt>
      <trkpt lat="44.3897" lon="6.59274">
        <ele>1104.8</ele>
        <time>2023-07-07T08:14:56Z</time>
      </trkpt>
      <trkpt lat="44.38977" lon="6.59259">
        <ele>1104.5</ele>
        <time>2023-07-07T08:14:58Z</time>
      </trkpt>
      <trkpt lat="44.38983" lon="6.59242">
        <ele>1104.3</ele>
        <time>2023-07-07T08:15:00Z</time>
      </trkpt>
      <trkpt lat="44.38991" lon="6.59226">
        <ele>1104.1</ele>
        <time>2023-07-07T08:15:02Z</time>
      </trkpt>
      <trkpt lat="44.38998" lon="6.59209">
        <ele>1103.5</ele>
        <time>2023-07-07T08:15:04Z</time>
      </trkpt>
      <trkpt lat="44.39006" lon="6.5919">
        <ele>1102.8</ele>
        <time>2023-07-07T08:15:06Z</time>
      </trkpt>
      <trkpt lat="44.39013" lon="6.59171">
        <ele>1102.2</ele>
        <time>2023-07-07T08:15:08Z</time>
      </trkpt>
      <trkpt lat="44.39021" lon="6.59152">
        <ele>1102</ele>
        <time>2023-07-07T08:15:10Z</time>
      </trkpt>
      <trkpt lat="44.39029" lon="6.59133">
        <ele>1101.8</ele>
        <time>2023-07-07T08:15:12Z</time>
      </trkpt>
      <trkpt lat="44.39036" lon="6.59115">
        <ele>1101.1</ele>
        <time>2023-07-07T08:15:14Z</time>
      </trkpt>
      <trkpt lat="44.39043" lon="6.59096">
        <ele>1101</ele>
        <time>2023-07-07T08:15:16Z</time>
      </trkpt>
      <trkpt lat="44.3905" lon="6.59077">
        <ele>1101</ele>
        <time>2023-07-07T08:15:18Z</time>
      </trkpt>
      <trkpt lat="44.39057" lon="6.59058">
        <ele>1101</ele>
        <time>2023-07-07T08:15:20Z</time>
      </trkpt>
      <trkpt lat="44.39063" lon="6.59039">
        <ele>1101</ele>
        <time>2023-07-07T08:15:22Z</time>
      </trkpt>
      <trkpt lat="44.39069" lon="6.59019">
        <ele>1101</ele>
        <time>2023-07-07T08:15:24Z</time>
      </trkpt>
      <trkpt lat="44.39074" lon="6.59">
        <ele>1101</ele>
        <time>2023-07-07T08:15:26Z</time>
      </trkpt>
      <trkpt lat="44.39077" lon="6.58979">
        <ele>1100.8</ele>
        <time>2023-07-07T08:15:28Z</time>
      </trkpt>
      <trkpt lat="44.39079" lon="6.58959">
        <ele>1100.8</ele>
        <time>2023-07-07T08:15:30Z</time>
      </trkpt>
      <trkpt lat="44.39079" lon="6.58938">
        <ele>1100.8</ele>
        <time>2023-07-07T08:15:32Z</time>
      </trkpt>
      <trkpt lat="44.39079" lon="6.58917">
        <ele>1100.8</ele>
        <time>2023-07-07T08:15:34Z</time>
      </trkpt>
      <trkpt lat="44.39079" lon="6.58898">
        <ele>1100.9</ele>
        <time>2023-07-07T08:15:36Z</time>
      </trkpt>
      <trkpt lat="44.39078" lon="6.58879">
        <ele>1101</ele>
        <time>2023-07-07T08:15:38Z</time>
      </trkpt>
      <trkpt lat="44.39076" lon="6.58859">
        <ele>1101.1</ele>
        <time>2023-07-07T08:15:40Z</time>
      </trkpt>
      <trkpt lat="44.39074" lon="6.5884">
        <ele>1101.8</ele>
        <time>2023-07-07T08:15:42Z</time>
      </trkpt>
      <trkpt lat="44.3907" lon="6.58821">
        <ele>1102.2</ele>
        <time>2023-07-07T08:15:44Z</time>
      </trkpt>
      <trkpt lat="44.39068" lon="6.58804">
        <ele>1102.5</ele>
        <time>2023-07-07T08:15:46Z</time>
      </trkpt>
      <trkpt lat="44.39064" lon="6.58788">
        <ele>1102.9</ele>
        <time>2023-07-07T08:15:48Z</time>
      </trkpt>
      <trkpt lat="44.39061" lon="6.58772">
        <ele>1103.5</ele>
        <time>2023-07-07T08:15:50Z</time>
      </trkpt>
      <trkpt lat="44.39058" lon="6.58756">
        <ele>1103.9</ele>
        <time>2023-07-07T08:15:52Z</time>
      </trkpt>
      <trkpt lat="44.39054" lon="6.5874">
        <ele>1104.3</ele>
        <time>2023-07-07T08:15:54Z</time>
      </trkpt>
      <trkpt lat="44.39051" lon="6.58725">
        <ele>1104.6</ele>
        <time>2023-07-07T08:15:56Z</time>
      </trkpt>
      <trkpt lat="44.39047" lon="6.58711">
        <ele>1104.8</ele>
        <time>2023-07-07T08:15:58Z</time>
      </trkpt>
      <trkpt lat="44.39044" lon="6.58697">
        <ele>1105</ele>
        <time>2023-07-07T08:16:00Z</time>
      </trkpt>
      <trkpt lat="44.3904" lon="6.58684">
        <ele>1105.2</ele>
        <time>2023-07-07T08:16:02Z</time>
      </trkpt>
      <trkpt lat="44.39035" lon="6.58669">
        <ele>1105.5</ele>
        <time>2023-07-07T08:16:04Z</time>
      </trkpt>
      <trkpt lat="44.39031" lon="6.58655">
        <ele>1105.3</ele>
        <time>2023-07-07T08:16:06Z</time>
      </trkpt>
      <trkpt lat="44.39027" lon="6.58641">
        <ele>1105</ele>
        <time>2023-07-07T08:16:08Z</time>
      </trkpt>
      <trkpt lat="44.39023" lon="6.58627">
        <ele>1105</ele>
        <time>2023-07-07T08:16:10Z</time>
      </trkpt>
      <trkpt lat="44.3902" lon="6.58613">
        <ele>1105.1</ele>
        <time>2023-07-07T08:16:12Z</time>
      </trkpt>
      <trkpt lat="44.39016" lon="6.58599">
        <ele>1105.2</ele>
        <time>2023-07-07T08:16:14Z</time>
      </trkpt>
      <trkpt lat="44.39012" lon="6.58584">
        <ele>1105.3</ele>
        <time>2023-07-07T08:16:16Z</time>
      </trkpt>
      <trkpt lat="44.39009" lon="6.5857">
        <ele>1105.3</ele>
        <time>2023-07-07T08:16:18Z</time>
      </trkpt>
      <trkpt lat="44.39007" lon="6.58555">
        <ele>1105.5</ele>
        <time>2023-07-07T08:16:20Z</time>
      </trkpt>
      <trkpt lat="44.39004" lon="6.58541">
        <ele>1105.4</ele>
        <time>2023-07-07T08:16:22Z</time>
      </trkpt>
      <trkpt lat="44.39002" lon="6.58525">
        <ele>1105.3</ele>
        <time>2023-07-07T08:16:24Z</time>
      </trkpt>
      <trkpt lat="44.39001" lon="6.58511">
        <ele>1105.7</ele>
        <time>2023-07-07T08:16:26Z</time>
      </trkpt>
      <trkpt lat="44.39" lon="6.58496">
        <ele>1106.1</ele>
        <time>2023-07-07T08:16:28Z</time>
      </trkpt>
      <trkpt lat="44.38999" lon="6.58483">
        <ele>1106.6</ele>
        <time>2023-07-07T08:16:30Z</time>
      </trkpt>
      <trkpt lat="44.38998" lon="6.58463">
        <ele>1106.2</ele>
        <time>2023-07-07T08:16:33Z</time>
      </trkpt>
      <trkpt lat="44.38997" lon="6.58449">
        <ele>1105.1</ele>
        <time>2023-07-07T08:16:35Z</time>
      </trkpt>
      <trkpt lat="44.38994" lon="6.58434">
        <ele>1106.1</ele>
        <time>2023-07-07T08:16:37Z</time>
      </trkpt>
      <trkpt lat="44.38993" lon="6.58419">
        <ele>1108.2</ele>
        <time>2023-07-07T08:16:39Z</time>
      </trkpt>
      <trkpt lat="44.38992" lon="6.58404">
        <ele>1108.9</ele>
        <time>2023-07-07T08:16:41Z</time>
      </trkpt>
      <trkpt lat="44.38992" lon="6.58388">
        <ele>1109.4</ele>
        <time>2023-07-07T08:16:43Z</time>
      </trkpt>
      <trkpt lat="44.38992" lon="6.58372">
        <ele>1109.4</ele>
        <time>2023-07-07T08:16:45Z</time>
      </trkpt>
      <trkpt lat="44.38992" lon="6.58356">
        <ele>1109.4</ele>
        <time>2023-07-07T08:16:47Z</time>
      </trkpt>
      <trkpt lat="44.38993" lon="6.58341">
        <ele>1109.5</ele>
        <time>2023-07-07T08:16:49Z</time>
      </trkpt>
      <trkpt lat="44.38995" lon="6.58325">
        <ele>1109.4</ele>
        <time>2023-07-07T08:16:51Z</time>
      </trkpt>
      <trkpt lat="44.38995" lon="6.58309">
        <ele>1108.9</ele>
        <time>2023-07-07T08:16:53Z</time>
      </trkpt>
      <trkpt lat="44.38997" lon="6.58294">
        <ele>1108.4</ele>
        <time>2023-07-07T08:16:55Z</time>
      </trkpt>
      <trkpt lat="44.38998" lon="6.5828">
        <ele>1108</ele>
        <time>2023-07-07T08:16:57Z</time>
      </trkpt>
      <trkpt lat="44.38999" lon="6.58264">
        <ele>1107.4</ele>
        <time>2023-07-07T08:16:59Z</time>
      </trkpt>
      <trkpt lat="44.39" lon="6.58248">
        <ele>1107</ele>
        <time>2023-07-07T08:17:01Z</time>
      </trkpt>
      <trkpt lat="44.39001" lon="6.5823">
        <ele>1107.1</ele>
        <time>2023-07-07T08:17:03Z</time>
      </trkpt>
      <trkpt lat="44.39002" lon="6.58214">
        <ele>1107.2</ele>
        <time>2023-07-07T08:17:05Z</time>
      </trkpt>
      <trkpt lat="44.39002" lon="6.58197">
        <ele>1107.2</ele>
        <time>2023-07-07T08:17:07Z</time>
      </trkpt>
      <trkpt lat="44.39004" lon="6.58183">
        <ele>1107.4</ele>
        <time>2023-07-07T08:17:09Z</time>
      </trkpt>
      <trkpt lat="44.39006" lon="6.58166">
        <ele>1107.4</ele>
        <time>2023-07-07T08:17:11Z</time>
      </trkpt>
      <trkpt lat="44.39008" lon="6.58149">
        <ele>1107.6</ele>
        <time>2023-07-07T08:17:13Z</time>
      </trkpt>
      <trkpt lat="44.39012" lon="6.58133">
        <ele>1107.6</ele>
        <time>2023-07-07T08:17:15Z</time>
      </trkpt>
      <trkpt lat="44.39016" lon="6.58117">
        <ele>1107.4</ele>
        <time>2023-07-07T08:17:17Z</time>
      </trkpt>
      <trkpt lat="44.39023" lon="6.58102">
        <ele>1107.3</ele>
        <time>2023-07-07T08:17:19Z</time>
      </trkpt>
      <trkpt lat="44.39031" lon="6.58086">
        <ele>1107.3</ele>
        <time>2023-07-07T08:17:21Z</time>
      </trkpt>
      <trkpt lat="44.39039" lon="6.58071">
        <ele>1107.4</ele>
        <time>2023-07-07T08:17:23Z</time>
      </trkpt>
      <trkpt lat="44.39047" lon="6.58055">
        <ele>1107.3</ele>
        <time>2023-07-07T08:17:25Z</time>
      </trkpt>
      <trkpt lat="44.39056" lon="6.58039">
        <ele>1107.4</ele>
        <time>2023-07-07T08:17:27Z</time>
      </trkpt>
      <trkpt lat="44.39066" lon="6.58022">
        <ele>1107.1</ele>
        <time>2023-07-07T08:17:29Z</time>
      </trkpt>
      <trkpt lat="44.39076" lon="6.58004">
        <ele>1106.6</ele>
        <time>2023-07-07T08:17:31Z</time>
      </trkpt>
      <trkpt lat="44.39087" lon="6.57988">
        <ele>1106.4</ele>
        <time>2023-07-07T08:17:33Z</time>
      </trkpt>
      <trkpt lat="44.39097" lon="6.57969">
        <ele>1105.8</ele>
        <time>2023-07-07T08:17:35Z</time>
      </trkpt>
      <trkpt lat="44.39107" lon="6.57951">
        <ele>1106</ele>
        <time>2023-07-07T08:17:37Z</time>
      </trkpt>
      <trkpt lat="44.39118" lon="6.57932">
        <ele>1105</ele>
        <time>2023-07-07T08:17:39Z</time>
      </trkpt>
      <trkpt lat="44.39129" lon="6.57914">
        <ele>1104.1</ele>
        <time>2023-07-07T08:17:41Z</time>
      </trkpt>
      <trkpt lat="44.39136" lon="6.57905">
        <ele>1104</ele>
        <time>2023-07-07T08:17:42Z</time>
      </trkpt>
      <trkpt lat="44.39146" lon="6.57885">
        <ele>1103.2</ele>
        <time>2023-07-07T08:17:44Z</time>
      </trkpt>
      <trkpt lat="44.39151" lon="6.57875">
        <ele>1102.9</ele>
        <time>2023-07-07T08:17:45Z</time>
      </trkpt>
      <trkpt lat="44.39162" lon="6.57856">
        <ele>1102.3</ele>
        <time>2023-07-07T08:17:47Z</time>
      </trkpt>
      <trkpt lat="44.39172" lon="6.57835">
        <ele>1101.5</ele>
        <time>2023-07-07T08:17:49Z</time>
      </trkpt>
      <trkpt lat="44.39182" lon="6.57814">
        <ele>1101.4</ele>
        <time>2023-07-07T08:17:51Z</time>
      </trkpt>
      <trkpt lat="44.39187" lon="6.57804">
        <ele>1101.3</ele>
        <time>2023-07-07T08:17:52Z</time>
      </trkpt>
      <trkpt lat="44.39192" lon="6.57793">
        <ele>1100.9</ele>
        <time>2023-07-07T08:17:53Z</time>
      </trkpt>
      <trkpt lat="44.39197" lon="6.57782">
        <ele>1100.5</ele>
        <time>2023-07-07T08:17:54Z</time>
      </trkpt>
      <trkpt lat="44.39202" lon="6.57771">
        <ele>1100.1</ele>
        <time>2023-07-07T08:17:55Z</time>
      </trkpt>
      <trkpt lat="44.39208" lon="6.57759">
        <ele>1100</ele>
        <time>2023-07-07T08:17:56Z</time>
      </trkpt>
      <trkpt lat="44.39213" lon="6.57748">
        <ele>1099.9</ele>
        <time>2023-07-07T08:17:57Z</time>
      </trkpt>
      <trkpt lat="44.39219" lon="6.57737">
        <ele>1099.7</ele>
        <time>2023-07-07T08:17:58Z</time>
      </trkpt>
      <trkpt lat="44.39224" lon="6.57726">
        <ele>1099.4</ele>
        <time>2023-07-07T08:17:59Z</time>
      </trkpt>
      <trkpt lat="44.3923" lon="6.57716">
        <ele>1099.2</ele>
        <time>2023-07-07T08:18:00Z</time>
      </trkpt>
      <trkpt lat="44.39235" lon="6.57706">
        <ele>1099</ele>
        <time>2023-07-07T08:18:01Z</time>
      </trkpt>
      <trkpt lat="44.3924" lon="6.57694">
        <ele>1098.9</ele>
        <time>2023-07-07T08:18:02Z</time>
      </trkpt>
      <trkpt lat="44.39245" lon="6.57683">
        <ele>1098.7</ele>
        <time>2023-07-07T08:18:03Z</time>
      </trkpt>
      <trkpt lat="44.39249" lon="6.57673">
        <ele>1098.4</ele>
        <time>2023-07-07T08:18:04Z</time>
      </trkpt>
      <trkpt lat="44.39254" lon="6.57662">
        <ele>1098.3</ele>
        <time>2023-07-07T08:18:05Z</time>
      </trkpt>
      <trkpt lat="44.3926" lon="6.57652">
        <ele>1098.1</ele>
        <time>2023-07-07T08:18:06Z</time>
      </trkpt>
      <trkpt lat="44.39269" lon="6.57631">
        <ele>1097.5</ele>
        <time>2023-07-07T08:18:08Z</time>
      </trkpt>
      <trkpt lat="44.39279" lon="6.57614">
        <ele>1097.3</ele>
        <time>2023-07-07T08:18:10Z</time>
      </trkpt>
      <trkpt lat="44.39287" lon="6.57595">
        <ele>1097.5</ele>
        <time>2023-07-07T08:18:12Z</time>
      </trkpt>
      <trkpt lat="44.39292" lon="6.57577">
        <ele>1097.6</ele>
        <time>2023-07-07T08:18:14Z</time>
      </trkpt>
      <trkpt lat="44.39298" lon="6.57558">
        <ele>1098.2</ele>
        <time>2023-07-07T08:18:16Z</time>
      </trkpt>
      <trkpt lat="44.39303" lon="6.5754">
        <ele>1098.2</ele>
        <time>2023-07-07T08:18:18Z</time>
      </trkpt>
      <trkpt lat="44.39307" lon="6.57523">
        <ele>1098.1</ele>
        <time>2023-07-07T08:18:20Z</time>
      </trkpt>
      <trkpt lat="44.39311" lon="6.57506">
        <ele>1098.4</ele>
        <time>2023-07-07T08:18:22Z</time>
      </trkpt>
      <trkpt lat="44.39314" lon="6.57488">
        <ele>1098.5</ele>
        <time>2023-07-07T08:18:24Z</time>
      </trkpt>
      <trkpt lat="44.39316" lon="6.57473">
        <ele>1098.4</ele>
        <time>2023-07-07T08:18:26Z</time>
      </trkpt>
      <trkpt lat="44.39318" lon="6.57458">
        <ele>1098.7</ele>
        <time>2023-07-07T08:18:28Z</time>
      </trkpt>
      <trkpt lat="44.3932" lon="6.57446">
        <ele>1099</ele>
        <time>2023-07-07T08:18:30Z</time>
      </trkpt>
      <trkpt lat="44.39323" lon="6.57433">
        <ele>1099.7</ele>
        <time>2023-07-07T08:18:33Z</time>
      </trkpt>
      <trkpt lat="44.39316" lon="6.57425">
        <ele>1099.4</ele>
        <time>2023-07-07T08:18:48Z</time>
      </trkpt>
      <trkpt lat="44.39307" lon="6.57417">
        <ele>1099.1</ele>
        <time>2023-07-07T08:18:52Z</time>
      </trkpt>
      <trkpt lat="44.39303" lon="6.57404">
        <ele>1098.8</ele>
        <time>2023-07-07T08:18:55Z</time>
      </trkpt>
      <trkpt lat="44.39308" lon="6.57383">
        <ele>1099</ele>
        <time>2023-07-07T08:18:58Z</time>
      </trkpt>
      <trkpt lat="44.39308" lon="6.57367">
        <ele>1098.6</ele>
        <time>2023-07-07T08:19:00Z</time>
      </trkpt>
      <trkpt lat="44.39307" lon="6.57348">
        <ele>1097.7</ele>
        <time>2023-07-07T08:19:02Z</time>
      </trkpt>
      <trkpt lat="44.39303" lon="6.57327">
        <ele>1096.8</ele>
        <time>2023-07-07T08:19:04Z</time>
      </trkpt>
      <trkpt lat="44.39302" lon="6.57309">
        <ele>1096.8</ele>
        <time>2023-07-07T08:19:06Z</time>
      </trkpt>
      <trkpt lat="44.39299" lon="6.57288">
        <ele>1096.5</ele>
        <time>2023-07-07T08:19:08Z</time>
      </trkpt>
      <trkpt lat="44.39297" lon="6.57272">
        <ele>1096.6</ele>
        <time>2023-07-07T08:19:10Z</time>
      </trkpt>
      <trkpt lat="44.39295" lon="6.57259">
        <ele>1096.7</ele>
        <time>2023-07-07T08:19:12Z</time>
      </trkpt>
      <trkpt lat="44.39289" lon="6.57245">
        <ele>1096.4</ele>
        <time>2023-07-07T08:19:14Z</time>
      </trkpt>
      <trkpt lat="44.39284" lon="6.57233">
        <ele>1096.1</ele>
        <time>2023-07-07T08:19:16Z</time>
      </trkpt>
      <trkpt lat="44.39278" lon="6.57221">
        <ele>1096</ele>
        <time>2023-07-07T08:19:18Z</time>
      </trkpt>
      <trkpt lat="44.39271" lon="6.57209">
        <ele>1095.7</ele>
        <time>2023-07-07T08:19:20Z</time>
      </trkpt>
      <trkpt lat="44.39262" lon="6.57194">
        <ele>1095.4</ele>
        <time>2023-07-07T08:19:23Z</time>
      </trkpt>
      <trkpt lat="44.39255" lon="6.5718">
        <ele>1095</ele>
        <time>2023-07-07T08:19:25Z</time>
      </trkpt>
      <trkpt lat="44.39246" lon="6.57167">
        <ele>1094.6</ele>
        <time>2023-07-07T08:19:27Z</time>
      </trkpt>
      <trkpt lat="44.39241" lon="6.57154">
        <ele>1095</ele>
        <time>2023-07-07T08:19:29Z</time>
      </trkpt>
      <trkpt lat="44.39232" lon="6.57141">
        <ele>1094.9</ele>
        <time>2023-07-07T08:19:31Z</time>
      </trkpt>
      <trkpt lat="44.3922" lon="6.57133">
        <ele>1093.6</ele>
        <time>2023-07-07T08:19:33Z</time>
      </trkpt>
      <trkpt lat="44.39208" lon="6.57126">
        <ele>1091.2</ele>
        <time>2023-07-07T08:19:35Z</time>
      </trkpt>
      <trkpt lat="44.39197" lon="6.57121">
        <ele>1088.9</ele>
        <time>2023-07-07T08:19:37Z</time>
      </trkpt>
      <trkpt lat="44.39188" lon="6.57116">
        <ele>1087.6</ele>
        <time>2023-07-07T08:19:39Z</time>
      </trkpt>
      <trkpt lat="44.39178" lon="6.57116">
        <ele>1086.8</ele>
        <time>2023-07-07T08:19:41Z</time>
      </trkpt>
      <trkpt lat="44.39168" lon="6.57113">
        <ele>1086</ele>
        <time>2023-07-07T08:19:43Z</time>
      </trkpt>
      <trkpt lat="44.39155" lon="6.57111">
        <ele>1091.1</ele>
        <time>2023-07-07T08:19:46Z</time>
      </trkpt>
      <trkpt lat="44.39145" lon="6.5712">
        <ele>1094.8</ele>
        <time>2023-07-07T08:19:49Z</time>
      </trkpt>
      <trkpt lat="44.3914" lon="6.57132">
        <ele>1096.1</ele>
        <time>2023-07-07T08:19:52Z</time>
      </trkpt>
      <trkpt lat="44.39134" lon="6.57145">
        <ele>1097.5</ele>
        <time>2023-07-07T08:19:57Z</time>
      </trkpt>
      <trkpt lat="44.39129" lon="6.57156">
        <ele>1099</ele>
        <time>2023-07-07T08:20:02Z</time>
      </trkpt>
      <trkpt lat="44.39125" lon="6.57168">
        <ele>1099.8</ele>
        <time>2023-07-07T08:20:06Z</time>
      </trkpt>
      <trkpt lat="44.3912" lon="6.57181">
        <ele>1101</ele>
        <time>2023-07-07T08:20:11Z</time>
      </trkpt>
      <trkpt lat="44.39117" lon="6.57195">
        <ele>1101.5</ele>
        <time>2023-07-07T08:20:16Z</time>
      </trkpt>
      <trkpt lat="44.39113" lon="6.57208">
        <ele>1101.7</ele>
        <time>2023-07-07T08:20:21Z</time>
      </trkpt>
      <trkpt lat="44.39107" lon="6.57221">
        <ele>1102.6</ele>
        <time>2023-07-07T08:20:27Z</time>
      </trkpt>
      <trkpt lat="44.39102" lon="6.57234">
        <ele>1103.2</ele>
        <time>2023-07-07T08:20:32Z</time>
      </trkpt>
      <trkpt lat="44.39096" lon="6.57246">
        <ele>1104.3</ele>
        <time>2023-07-07T08:20:37Z</time>
      </trkpt>
      <trkpt lat="44.39092" lon="6.5726">
        <ele>1104.3</ele>
        <time>2023-07-07T08:20:42Z</time>
      </trkpt>
      <trkpt lat="44.39088" lon="6.57272">
        <ele>1104.7</ele>
        <time>2023-07-07T08:20:47Z</time>
      </trkpt>
      <trkpt lat="44.39085" lon="6.57284">
        <ele>1104.7</ele>
        <time>2023-07-07T08:20:52Z</time>
      </trkpt>
      <trkpt lat="44.3908" lon="6.57297">
        <ele>1105</ele>
        <time>2023-07-07T08:20:57Z</time>
      </trkpt>
      <trkpt lat="44.39074" lon="6.57308">
        <ele>1105.7</ele>
        <time>2023-07-07T08:21:02Z</time>
      </trkpt>
      <trkpt lat="44.39068" lon="6.57319">
        <ele>1106.5</ele>
        <time>2023-07-07T08:21:07Z</time>
      </trkpt>
      <trkpt lat="44.39062" lon="6.57329">
        <ele>1107.3</ele>
        <time>2023-07-07T08:21:11Z</time>
      </trkpt>
      <trkpt lat="44.39054" lon="6.57336">
        <ele>1108.8</ele>
        <time>2023-07-07T08:21:15Z</time>
      </trkpt>
      <trkpt lat="44.39045" lon="6.57344">
        <ele>1109.6</ele>
        <time>2023-07-07T08:21:19Z</time>
      </trkpt>
      <trkpt lat="44.39034" lon="6.57351">
        <ele>1110.9</ele>
        <time>2023-07-07T08:21:23Z</time>
      </trkpt>
      <trkpt lat="44.39024" lon="6.57359">
        <ele>1111.8</ele>
        <time>2023-07-07T08:21:27Z</time>
      </trkpt>
      <trkpt lat="44.39015" lon="6.57366">
        <ele>1112.2</ele>
        <time>2023-07-07T08:21:31Z</time>
      </trkpt>
      <trkpt lat="44.39006" lon="6.57372">
        <ele>1112.8</ele>
        <time>2023-07-07T08:21:35Z</time>
      </trkpt>
      <trkpt lat="44.38997" lon="6.57378">
        <ele>1113.5</ele>
        <time>2023-07-07T08:21:39Z</time>
      </trkpt>
      <trkpt lat="44.38988" lon="6.57384">
        <ele>1114.2</ele>
        <time>2023-07-07T08:21:43Z</time>
      </trkpt>
      <trkpt lat="44.38978" lon="6.57391">
        <ele>1114.9</ele>
        <time>2023-07-07T08:21:47Z</time>
      </trkpt>
      <trkpt lat="44.38969" lon="6.57397">
        <ele>1115.5</ele>
        <time>2023-07-07T08:21:51Z</time>
      </trkpt>
      <trkpt lat="44.3896" lon="6.57403">
        <ele>1116</ele>
        <time>2023-07-07T08:21:55Z</time>
      </trkpt>
      <trkpt lat="44.38951" lon="6.5741">
        <ele>1116.6</ele>
        <time>2023-07-07T08:21:59Z</time>
      </trkpt>
      <trkpt lat="44.38942" lon="6.5742">
        <ele>1117.6</ele>
        <time>2023-07-07T08:22:03Z</time>
      </trkpt>
      <trkpt lat="44.38935" lon="6.57433">
        <ele>1118.9</ele>
        <time>2023-07-07T08:22:07Z</time>
      </trkpt>
      <trkpt lat="44.3893" lon="6.57447">
        <ele>1120</ele>
        <time>2023-07-07T08:22:11Z</time>
      </trkpt>
      <trkpt lat="44.38927" lon="6.57462">
        <ele>1119.9</ele>
        <time>2023-07-07T08:22:15Z</time>
      </trkpt>
      <trkpt lat="44.38925" lon="6.57476">
        <ele>1119.2</ele>
        <time>2023-07-07T08:22:18Z</time>
      </trkpt>
      <trkpt lat="44.38923" lon="6.57489">
        <ele>1118.2</ele>
        <time>2023-07-07T08:22:21Z</time>
      </trkpt>
      <trkpt lat="44.3892" lon="6.57503">
        <ele>1117.2</ele>
        <time>2023-07-07T08:22:25Z</time>
      </trkpt>
      <trkpt lat="44.38922" lon="6.57515">
        <ele>1116.4</ele>
        <time>2023-07-07T08:23:12Z</time>
      </trkpt>
      <trkpt lat="44.38921" lon="6.57528">
        <ele>1116.2</ele>
        <time>2023-07-07T08:23:15Z</time>
      </trkpt>
      <trkpt lat="44.38919" lon="6.57544">
        <ele>1117.5</ele>
        <time>2023-07-07T08:23:18Z</time>
      </trkpt>
      <trkpt lat="44.38917" lon="6.5756">
        <ele>1118.5</ele>
        <time>2023-07-07T08:23:21Z</time>
      </trkpt>
      <trkpt lat="44.38915" lon="6.57577">
        <ele>1118.2</ele>
        <time>2023-07-07T08:23:24Z</time>
      </trkpt>
      <trkpt lat="44.38912" lon="6.57594">
        <ele>1117.2</ele>
        <time>2023-07-07T08:23:27Z</time>
      </trkpt>
      <trkpt lat="44.3891" lon="6.5761">
        <ele>1115.8</ele>
        <time>2023-07-07T08:23:30Z</time>
      </trkpt>
      <trkpt lat="44.38904" lon="6.57627">
        <ele>1115.9</ele>
        <time>2023-07-07T08:23:33Z</time>
      </trkpt>
      <trkpt lat="44.38899" lon="6.57639">
        <ele>1115.6</ele>
        <time>2023-07-07T08:23:35Z</time>
      </trkpt>
      <trkpt lat="44.38895" lon="6.57649">
        <ele>1115.6</ele>
        <time>2023-07-07T08:23:37Z</time>
      </trkpt>
      <trkpt lat="44.38888" lon="6.57662">
        <ele>1115.9</ele>
        <time>2023-07-07T08:23:39Z</time>
      </trkpt>
      <trkpt lat="44.38884" lon="6.57674">
        <ele>1115.9</ele>
        <time>2023-07-07T08:23:41Z</time>
      </trkpt>
      <trkpt lat="44.38878" lon="6.57688">
        <ele>1115.6</ele>
        <time>2023-07-07T08:23:43Z</time>
      </trkpt>
      <trkpt lat="44.38873" lon="6.57702">
        <ele>1115.1</ele>
        <time>2023-07-07T08:23:45Z</time>
      </trkpt>
      <trkpt lat="44.38866" lon="6.57714">
        <ele>1115</ele>
        <time>2023-07-07T08:23:47Z</time>
      </trkpt>
      <trkpt lat="44.38857" lon="6.57728">
        <ele>1115.8</ele>
        <time>2023-07-07T08:23:49Z</time>
      </trkpt>
      <trkpt lat="44.38851" lon="6.57741">
        <ele>1116.4</ele>
        <time>2023-07-07T08:23:51Z</time>
      </trkpt>
      <trkpt lat="44.38843" lon="6.57755">
        <ele>1117.3</ele>
        <time>2023-07-07T08:23:53Z</time>
      </trkpt>
      <trkpt lat="44.38837" lon="6.57769">
        <ele>1117.9</ele>
        <time>2023-07-07T08:23:55Z</time>
      </trkpt>
      <trkpt lat="44.38829" lon="6.57779">
        <ele>1119.5</ele>
        <time>2023-07-07T08:23:57Z</time>
      </trkpt>
      <trkpt lat="44.38823" lon="6.57794">
        <ele>1120.4</ele>
        <time>2023-07-07T08:23:59Z</time>
      </trkpt>
      <trkpt lat="44.38818" lon="6.57807">
        <ele>1121.1</ele>
        <time>2023-07-07T08:24:01Z</time>
      </trkpt>
      <trkpt lat="44.38814" lon="6.57822">
        <ele>1121</ele>
        <time>2023-07-07T08:24:03Z</time>
      </trkpt>
      <trkpt lat="44.38812" lon="6.57835">
        <ele>1120.3</ele>
        <time>2023-07-07T08:24:05Z</time>
      </trkpt>
      <trkpt lat="44.3881" lon="6.5785">
        <ele>1119</ele>
        <time>2023-07-07T08:24:07Z</time>
      </trkpt>
      <trkpt lat="44.38807" lon="6.57864">
        <ele>1117.9</ele>
        <time>2023-07-07T08:24:09Z</time>
      </trkpt>
      <trkpt lat="44.38806" lon="6.57882">
        <ele>1115.9</ele>
        <time>2023-07-07T08:24:11Z</time>
      </trkpt>
      <trkpt lat="44.38804" lon="6.57896">
        <ele>1114.8</ele>
        <time>2023-07-07T08:24:13Z</time>
      </trkpt>
      <trkpt lat="44.38802" lon="6.57912">
        <ele>1113.7</ele>
        <time>2023-07-07T08:24:15Z</time>
      </trkpt>
      <trkpt lat="44.38802" lon="6.57929">
        <ele>1111.5</ele>
        <time>2023-07-07T08:24:17Z</time>
      </trkpt>
      <trkpt lat="44.38801" lon="6.57947">
        <ele>1109.4</ele>
        <time>2023-07-07T08:24:19Z</time>
      </trkpt>
      <trkpt lat="44.38794" lon="6.5796">
        <ele>1110.2</ele>
        <time>2023-07-07T08:24:21Z</time>
      </trkpt>
      <trkpt lat="44.38787" lon="6.57979">
        <ele>1110.6</ele>
        <time>2023-07-07T08:24:23Z</time>
      </trkpt>
      <trkpt lat="44.38778" lon="6.57989">
        <ele>1112.4</ele>
        <time>2023-07-07T08:24:25Z</time>
      </trkpt>
      <trkpt lat="44.38767" lon="6.58006">
        <ele>1114.2</ele>
        <time>2023-07-07T08:24:27Z</time>
      </trkpt>
      <trkpt lat="44.38758" lon="6.58023">
        <ele>1114.9</ele>
        <time>2023-07-07T08:24:29Z</time>
      </trkpt>
      <trkpt lat="44.38751" lon="6.58039">
        <ele>1115</ele>
        <time>2023-07-07T08:24:31Z</time>
      </trkpt>
      <trkpt lat="44.38744" lon="6.58053">
        <ele>1115.5</ele>
        <time>2023-07-07T08:24:33Z</time>
      </trkpt>
      <trkpt lat="44.38738" lon="6.58066">
        <ele>1116</ele>
        <time>2023-07-07T08:24:35Z</time>
      </trkpt>
      <trkpt lat="44.38734" lon="6.5808">
        <ele>1115.7</ele>
        <time>2023-07-07T08:24:37Z</time>
      </trkpt>
      <trkpt lat="44.38731" lon="6.58093">
        <ele>1115.8</ele>
        <time>2023-07-07T08:24:39Z</time>
      </trkpt>
      <trkpt lat="44.38729" lon="6.58109">
        <ele>1115.4</ele>
        <time>2023-07-07T08:24:42Z</time>
      </trkpt>
      <trkpt lat="44.38728" lon="6.58124">
        <ele>1114.7</ele>
        <time>2023-07-07T08:24:45Z</time>
      </trkpt>
      <trkpt lat="44.38728" lon="6.5814">
        <ele>1113.4</ele>
        <time>2023-07-07T08:24:48Z</time>
      </trkpt>
      <trkpt lat="44.38727" lon="6.58156">
        <ele>1112.8</ele>
        <time>2023-07-07T08:24:52Z</time>
      </trkpt>
      <trkpt lat="44.38724" lon="6.58172">
        <ele>1112.2</ele>
        <time>2023-07-07T08:24:56Z</time>
      </trkpt>
      <trkpt lat="44.38722" lon="6.58187">
        <ele>1111.7</ele>
        <time>2023-07-07T08:25:00Z</time>
      </trkpt>
      <trkpt lat="44.3872" lon="6.582">
        <ele>1111.5</ele>
        <time>2023-07-07T08:25:04Z</time>
      </trkpt>
      <trkpt lat="44.38717" lon="6.58212">
        <ele>1112</ele>
        <time>2023-07-07T08:25:08Z</time>
      </trkpt>
      <trkpt lat="44.38716" lon="6.58227">
        <ele>1112</ele>
        <time>2023-07-07T08:25:13Z</time>
      </trkpt>
      <trkpt lat="44.38711" lon="6.58242">
        <ele>1112.3</ele>
        <time>2023-07-07T08:25:18Z</time>
      </trkpt>
      <trkpt lat="44.38706" lon="6.58254">
        <ele>1112.9</ele>
        <time>2023-07-07T08:25:22Z</time>
      </trkpt>
      <trkpt lat="44.38702" lon="6.58265">
        <ele>1113.7</ele>
        <time>2023-07-07T08:25:26Z</time>
      </trkpt>
      <trkpt lat="44.38696" lon="6.58276">
        <ele>1114.7</ele>
        <time>2023-07-07T08:25:31Z</time>
      </trkpt>
      <trkpt lat="44.3869" lon="6.58287">
        <ele>1115.9</ele>
        <time>2023-07-07T08:25:35Z</time>
      </trkpt>
      <trkpt lat="44.38685" lon="6.58298">
        <ele>1116.9</ele>
        <time>2023-07-07T08:25:39Z</time>
      </trkpt>
      <trkpt lat="44.38678" lon="6.58309">
        <ele>1117.9</ele>
        <time>2023-07-07T08:25:43Z</time>
      </trkpt>
      <trkpt lat="44.38672" lon="6.58319">
        <ele>1119.2</ele>
        <time>2023-07-07T08:25:47Z</time>
      </trkpt>
      <trkpt lat="44.38665" lon="6.58328">
        <ele>1120.3</ele>
        <time>2023-07-07T08:25:51Z</time>
      </trkpt>
      <trkpt lat="44.38656" lon="6.58335">
        <ele>1121.5</ele>
        <time>2023-07-07T08:25:55Z</time>
      </trkpt>
      <trkpt lat="44.38647" lon="6.58341">
        <ele>1122.7</ele>
        <time>2023-07-07T08:25:59Z</time>
      </trkpt>
      <trkpt lat="44.38638" lon="6.58345">
        <ele>1123.7</ele>
        <time>2023-07-07T08:26:03Z</time>
      </trkpt>
      <trkpt lat="44.38629" lon="6.58348">
        <ele>1124.9</ele>
        <time>2023-07-07T08:26:07Z</time>
      </trkpt>
      <trkpt lat="44.38619" lon="6.58352">
        <ele>1126.3</ele>
        <time>2023-07-07T08:26:12Z</time>
      </trkpt>
      <trkpt lat="44.38609" lon="6.58354">
        <ele>1127.4</ele>
        <time>2023-07-07T08:26:16Z</time>
      </trkpt>
      <trkpt lat="44.38599" lon="6.58356">
        <ele>1128.1</ele>
        <time>2023-07-07T08:26:20Z</time>
      </trkpt>
      <trkpt lat="44.3859" lon="6.58358">
        <ele>1128.7</ele>
        <time>2023-07-07T08:26:24Z</time>
      </trkpt>
      <trkpt lat="44.3858" lon="6.58362">
        <ele>1129.1</ele>
        <time>2023-07-07T08:26:28Z</time>
      </trkpt>
      <trkpt lat="44.3857" lon="6.58364">
        <ele>1129.4</ele>
        <time>2023-07-07T08:26:33Z</time>
      </trkpt>
      <trkpt lat="44.3856" lon="6.58369">
        <ele>1129.8</ele>
        <time>2023-07-07T08:26:37Z</time>
      </trkpt>
      <trkpt lat="44.38553" lon="6.58377">
        <ele>1130.3</ele>
        <time>2023-07-07T08:26:40Z</time>
      </trkpt>
      <trkpt lat="44.38546" lon="6.58386">
        <ele>1130.8</ele>
        <time>2023-07-07T08:26:43Z</time>
      </trkpt>
      <trkpt lat="44.38539" lon="6.58396">
        <ele>1131.2</ele>
        <time>2023-07-07T08:26:46Z</time>
      </trkpt>
      <trkpt lat="44.38533" lon="6.58409">
        <ele>1131.6</ele>
        <time>2023-07-07T08:26:50Z</time>
      </trkpt>
      <trkpt lat="44.38529" lon="6.58422">
        <ele>1131.7</ele>
        <time>2023-07-07T08:26:54Z</time>
      </trkpt>
      <trkpt lat="44.38526" lon="6.58437">
        <ele>1131.5</ele>
        <time>2023-07-07T08:26:57Z</time>
      </trkpt>
      <trkpt lat="44.38522" lon="6.58452">
        <ele>1131.4</ele>
        <time>2023-07-07T08:27:00Z</time>
      </trkpt>
      <trkpt lat="44.38516" lon="6.5847">
        <ele>1131.4</ele>
        <time>2023-07-07T08:27:03Z</time>
      </trkpt>
      <trkpt lat="44.38511" lon="6.58482">
        <ele>1130.8</ele>
        <time>2023-07-07T08:27:05Z</time>
      </trkpt>
      <trkpt lat="44.38504" lon="6.58498">
        <ele>1129.9</ele>
        <time>2023-07-07T08:27:08Z</time>
      </trkpt>
      <trkpt lat="44.385" lon="6.58517">
        <ele>1128.8</ele>
        <time>2023-07-07T08:27:10Z</time>
      </trkpt>
      <trkpt lat="44.38495" lon="6.58538">
        <ele>1127.6</ele>
        <time>2023-07-07T08:27:12Z</time>
      </trkpt>
      <trkpt lat="44.38492" lon="6.58558">
        <ele>1126.2</ele>
        <time>2023-07-07T08:27:14Z</time>
      </trkpt>
      <trkpt lat="44.3849" lon="6.58578">
        <ele>1126.4</ele>
        <time>2023-07-07T08:27:16Z</time>
      </trkpt>
      <trkpt lat="44.38489" lon="6.58596">
        <ele>1126.4</ele>
        <time>2023-07-07T08:27:18Z</time>
      </trkpt>
      <trkpt lat="44.38489" lon="6.58612">
        <ele>1125.8</ele>
        <time>2023-07-07T08:27:20Z</time>
      </trkpt>
      <trkpt lat="44.3849" lon="6.58626">
        <ele>1125.2</ele>
        <time>2023-07-07T08:27:22Z</time>
      </trkpt>
      <trkpt lat="44.38492" lon="6.58639">
        <ele>1124.3</ele>
        <time>2023-07-07T08:27:24Z</time>
      </trkpt>
      <trkpt lat="44.38495" lon="6.58656">
        <ele>1124.1</ele>
        <time>2023-07-07T08:27:27Z</time>
      </trkpt>
      <trkpt lat="44.38496" lon="6.58672">
        <ele>1124.3</ele>
        <time>2023-07-07T08:27:30Z</time>
      </trkpt>
      <trkpt lat="44.38498" lon="6.58688">
        <ele>1124.5</ele>
        <time>2023-07-07T08:27:33Z</time>
      </trkpt>
      <trkpt lat="44.38496" lon="6.58704">
        <ele>1125.4</ele>
        <time>2023-07-07T08:27:36Z</time>
      </trkpt>
      <trkpt lat="44.38497" lon="6.5872">
        <ele>1125.9</ele>
        <time>2023-07-07T08:27:39Z</time>
      </trkpt>
      <trkpt lat="44.38498" lon="6.58736">
        <ele>1126.4</ele>
        <time>2023-07-07T08:27:42Z</time>
      </trkpt>
      <trkpt lat="44.38499" lon="6.58752">
        <ele>1126.4</ele>
        <time>2023-07-07T08:27:45Z</time>
      </trkpt>
      <trkpt lat="44.38503" lon="6.58768">
        <ele>1125.8</ele>
        <time>2023-07-07T08:27:48Z</time>
      </trkpt>
      <trkpt lat="44.38504" lon="6.58784">
        <ele>1125.5</ele>
        <time>2023-07-07T08:27:51Z</time>
      </trkpt>
      <trkpt lat="44.38503" lon="6.588">
        <ele>1125.2</ele>
        <time>2023-07-07T08:27:54Z</time>
      </trkpt>
      <trkpt lat="44.385" lon="6.58818">
        <ele>1125.8</ele>
        <time>2023-07-07T08:27:57Z</time>
      </trkpt>
      <trkpt lat="44.38497" lon="6.58835">
        <ele>1127</ele>
        <time>2023-07-07T08:28:00Z</time>
      </trkpt>
      <trkpt lat="44.38495" lon="6.58853">
        <ele>1127.3</ele>
        <time>2023-07-07T08:28:03Z</time>
      </trkpt>
      <trkpt lat="44.38491" lon="6.5887">
        <ele>1127.7</ele>
        <time>2023-07-07T08:28:06Z</time>
      </trkpt>
      <trkpt lat="44.38487" lon="6.58886">
        <ele>1128.4</ele>
        <time>2023-07-07T08:28:09Z</time>
      </trkpt>
      <trkpt lat="44.38483" lon="6.58901">
        <ele>1129.2</ele>
        <time>2023-07-07T08:28:12Z</time>
      </trkpt>
      <trkpt lat="44.38479" lon="6.58917">
        <ele>1129.7</ele>
        <time>2023-07-07T08:28:15Z</time>
      </trkpt>
      <trkpt lat="44.38476" lon="6.58931">
        <ele>1130.3</ele>
        <time>2023-07-07T08:28:18Z</time>
      </trkpt>
      <trkpt lat="44.38472" lon="6.58944">
        <ele>1131</ele>
        <time>2023-07-07T08:28:21Z</time>
      </trkpt>
      <trkpt lat="44.38467" lon="6.58956">
        <ele>1132.6</ele>
        <time>2023-07-07T08:28:24Z</time>
      </trkpt>
      <trkpt lat="44.3846" lon="6.58966">
        <ele>1134.6</ele>
        <time>2023-07-07T08:28:27Z</time>
      </trkpt>
      <trkpt lat="44.38454" lon="6.58977">
        <ele>1136.2</ele>
        <time>2023-07-07T08:28:30Z</time>
      </trkpt>
      <trkpt lat="44.38448" lon="6.58993">
        <ele>1137.3</ele>
        <time>2023-07-07T08:28:33Z</time>
      </trkpt>
      <trkpt lat="44.38446" lon="6.5901">
        <ele>1137.7</ele>
        <time>2023-07-07T08:28:36Z</time>
      </trkpt>
      <trkpt lat="44.38447" lon="6.59026">
        <ele>1137.4</ele>
        <time>2023-07-07T08:28:39Z</time>
      </trkpt>
      <trkpt lat="44.38449" lon="6.59042">
        <ele>1136.3</ele>
        <time>2023-07-07T08:28:42Z</time>
      </trkpt>
      <trkpt lat="44.38451" lon="6.59059">
        <ele>1135</ele>
        <time>2023-07-07T08:28:45Z</time>
      </trkpt>
      <trkpt lat="44.38454" lon="6.59075">
        <ele>1134.2</ele>
        <time>2023-07-07T08:28:48Z</time>
      </trkpt>
      <trkpt lat="44.38454" lon="6.59092">
        <ele>1133.7</ele>
        <time>2023-07-07T08:28:51Z</time>
      </trkpt>
      <trkpt lat="44.38454" lon="6.59109">
        <ele>1133.4</ele>
        <time>2023-07-07T08:28:54Z</time>
      </trkpt>
      <trkpt lat="44.38453" lon="6.59126">
        <ele>1133.1</ele>
        <time>2023-07-07T08:28:57Z</time>
      </trkpt>
      <trkpt lat="44.38453" lon="6.5914">
        <ele>1132.8</ele>
        <time>2023-07-07T08:29:00Z</time>
      </trkpt>
      <trkpt lat="44.38452" lon="6.59155">
        <ele>1132.5</ele>
        <time>2023-07-07T08:29:03Z</time>
      </trkpt>
      <trkpt lat="44.38451" lon="6.5917">
        <ele>1132.2</ele>
        <time>2023-07-07T08:29:06Z</time>
      </trkpt>
      <trkpt lat="44.38447" lon="6.59189">
        <ele>1131.6</ele>
        <time>2023-07-07T08:29:09Z</time>
      </trkpt>
      <trkpt lat="44.38444" lon="6.59203">
        <ele>1131.7</ele>
        <time>2023-07-07T08:29:11Z</time>
      </trkpt>
      <trkpt lat="44.38443" lon="6.59217">
        <ele>1131.6</ele>
        <time>2023-07-07T08:29:13Z</time>
      </trkpt>
      <trkpt lat="44.38441" lon="6.59232">
        <ele>1131.6</ele>
        <time>2023-07-07T08:29:15Z</time>
      </trkpt>
      <trkpt lat="44.38437" lon="6.59245">
        <ele>1132</ele>
        <time>2023-07-07T08:29:17Z</time>
      </trkpt>
      <trkpt lat="44.38435" lon="6.59258">
        <ele>1132.1</ele>
        <time>2023-07-07T08:29:19Z</time>
      </trkpt>
      <trkpt lat="44.3843" lon="6.59275">
        <ele>1132.2</ele>
        <time>2023-07-07T08:29:22Z</time>
      </trkpt>
      <trkpt lat="44.38426" lon="6.59287">
        <ele>1131.8</ele>
        <time>2023-07-07T08:29:24Z</time>
      </trkpt>
      <trkpt lat="44.38421" lon="6.59298">
        <ele>1131.3</ele>
        <time>2023-07-07T08:29:26Z</time>
      </trkpt>
      <trkpt lat="44.38415" lon="6.5931">
        <ele>1130.5</ele>
        <time>2023-07-07T08:29:28Z</time>
      </trkpt>
      <trkpt lat="44.38408" lon="6.59324">
        <ele>1129.3</ele>
        <time>2023-07-07T08:29:30Z</time>
      </trkpt>
      <trkpt lat="44.384" lon="6.59336">
        <ele>1128.5</ele>
        <time>2023-07-07T08:29:32Z</time>
      </trkpt>
      <trkpt lat="44.38392" lon="6.5935">
        <ele>1128.2</ele>
        <time>2023-07-07T08:29:34Z</time>
      </trkpt>
      <trkpt lat="44.38382" lon="6.59364">
        <ele>1128.2</ele>
        <time>2023-07-07T08:29:36Z</time>
      </trkpt>
      <trkpt lat="44.38374" lon="6.59381">
        <ele>1128</ele>
        <time>2023-07-07T08:29:38Z</time>
      </trkpt>
      <trkpt lat="44.38368" lon="6.59401">
        <ele>1128.2</ele>
        <time>2023-07-07T08:29:40Z</time>
      </trkpt>
      <trkpt lat="44.38363" lon="6.59418">
        <ele>1128.5</ele>
        <time>2023-07-07T08:29:42Z</time>
      </trkpt>
      <trkpt lat="44.38359" lon="6.59435">
        <ele>1128.9</ele>
        <time>2023-07-07T08:29:44Z</time>
      </trkpt>
      <trkpt lat="44.38357" lon="6.59449">
        <ele>1129.2</ele>
        <time>2023-07-07T08:29:46Z</time>
      </trkpt>
      <trkpt lat="44.38356" lon="6.59462">
        <ele>1129.3</ele>
        <time>2023-07-07T08:29:48Z</time>
      </trkpt>
      <trkpt lat="44.38355" lon="6.5948">
        <ele>1129.1</ele>
        <time>2023-07-07T08:29:51Z</time>
      </trkpt>
      <trkpt lat="44.38356" lon="6.59498">
        <ele>1128.3</ele>
        <time>2023-07-07T08:29:54Z</time>
      </trkpt>
      <trkpt lat="44.38357" lon="6.59514">
        <ele>1127.9</ele>
        <time>2023-07-07T08:29:56Z</time>
      </trkpt>
      <trkpt lat="44.38358" lon="6.59531">
        <ele>1127.5</ele>
        <time>2023-07-07T08:29:58Z</time>
      </trkpt>
      <trkpt lat="44.38359" lon="6.59548">
        <ele>1126.7</ele>
        <time>2023-07-07T08:30:00Z</time>
      </trkpt>
      <trkpt lat="44.38361" lon="6.59566">
        <ele>1126.1</ele>
        <time>2023-07-07T08:30:02Z</time>
      </trkpt>
      <trkpt lat="44.38362" lon="6.59583">
        <ele>1125.9</ele>
        <time>2023-07-07T08:30:04Z</time>
      </trkpt>
      <trkpt lat="44.38361" lon="6.59601">
        <ele>1125.5</ele>
        <time>2023-07-07T08:30:06Z</time>
      </trkpt>
      <trkpt lat="44.38359" lon="6.59619">
        <ele>1125</ele>
        <time>2023-07-07T08:30:08Z</time>
      </trkpt>
      <trkpt lat="44.38356" lon="6.59636">
        <ele>1125</ele>
        <time>2023-07-07T08:30:10Z</time>
      </trkpt>
      <trkpt lat="44.38354" lon="6.59651">
        <ele>1125.1</ele>
        <time>2023-07-07T08:30:12Z</time>
      </trkpt>
      <trkpt lat="44.38352" lon="6.59668">
        <ele>1125</ele>
        <time>2023-07-07T08:30:14Z</time>
      </trkpt>
      <trkpt lat="44.3835" lon="6.59685">
        <ele>1124.8</ele>
        <time>2023-07-07T08:30:16Z</time>
      </trkpt>
      <trkpt lat="44.38346" lon="6.59698">
        <ele>1125.2</ele>
        <time>2023-07-07T08:30:18Z</time>
      </trkpt>
      <trkpt lat="44.38344" lon="6.59713">
        <ele>1125.4</ele>
        <time>2023-07-07T08:30:20Z</time>
      </trkpt>
      <trkpt lat="44.38343" lon="6.59726">
        <ele>1125.3</ele>
        <time>2023-07-07T08:30:22Z</time>
      </trkpt>
      <trkpt lat="44.38342" lon="6.59739">
        <ele>1124.7</ele>
        <time>2023-07-07T08:30:24Z</time>
      </trkpt>
      <trkpt lat="44.38339" lon="6.59757">
        <ele>1124.2</ele>
        <time>2023-07-07T08:30:27Z</time>
      </trkpt>
      <trkpt lat="44.38333" lon="6.59775">
        <ele>1124.4</ele>
        <time>2023-07-07T08:30:30Z</time>
      </trkpt>
      <trkpt lat="44.38325" lon="6.59784">
        <ele>1126.7</ele>
        <time>2023-07-07T08:30:33Z</time>
      </trkpt>
      <trkpt lat="44.38317" lon="6.59797">
        <ele>1129.2</ele>
        <time>2023-07-07T08:30:36Z</time>
      </trkpt>
      <trkpt lat="44.38312" lon="6.59811">
        <ele>1130.6</ele>
        <time>2023-07-07T08:30:40Z</time>
      </trkpt>
      <trkpt lat="44.38306" lon="6.59823">
        <ele>1132.3</ele>
        <time>2023-07-07T08:30:44Z</time>
      </trkpt>
      <trkpt lat="44.383" lon="6.59834">
        <ele>1134.1</ele>
        <time>2023-07-07T08:30:48Z</time>
      </trkpt>
      <trkpt lat="44.38297" lon="6.59849">
        <ele>1134.8</ele>
        <time>2023-07-07T08:30:52Z</time>
      </trkpt>
      <trkpt lat="44.38295" lon="6.59863">
        <ele>1134.9</ele>
        <time>2023-07-07T08:30:56Z</time>
      </trkpt>
      <trkpt lat="44.38295" lon="6.59876">
        <ele>1134.5</ele>
        <time>2023-07-07T08:31:00Z</time>
      </trkpt>
      <trkpt lat="44.38295" lon="6.59889">
        <ele>1134.1</ele>
        <time>2023-07-07T08:31:04Z</time>
      </trkpt>
      <trkpt lat="44.38293" lon="6.59905">
        <ele>1134.3</ele>
        <time>2023-07-07T08:31:09Z</time>
      </trkpt>
      <trkpt lat="44.3829" lon="6.59917">
        <ele>1135.1</ele>
        <time>2023-07-07T08:31:13Z</time>
      </trkpt>
      <trkpt lat="44.38286" lon="6.59929">
        <ele>1136.1</ele>
        <time>2023-07-07T08:31:18Z</time>
      </trkpt>
      <trkpt lat="44.38282" lon="6.59943">
        <ele>1136.6</ele>
        <time>2023-07-07T08:31:24Z</time>
      </trkpt>
      <trkpt lat="44.38279" lon="6.59955">
        <ele>1136.7</ele>
        <time>2023-07-07T08:31:29Z</time>
      </trkpt>
      <trkpt lat="44.38277" lon="6.59967">
        <ele>1136.8</ele>
        <time>2023-07-07T08:31:33Z</time>
      </trkpt>
      <trkpt lat="44.38275" lon="6.59982">
        <ele>1136.8</ele>
        <time>2023-07-07T08:31:39Z</time>
      </trkpt>
      <trkpt lat="44.38273" lon="6.59995">
        <ele>1136.9</ele>
        <time>2023-07-07T08:31:44Z</time>
      </trkpt>
      <trkpt lat="44.38271" lon="6.60008">
        <ele>1137.1</ele>
        <time>2023-07-07T08:31:49Z</time>
      </trkpt>
      <trkpt lat="44.38268" lon="6.60022">
        <ele>1137.5</ele>
        <time>2023-07-07T08:31:55Z</time>
      </trkpt>
      <trkpt lat="44.38265" lon="6.60036">
        <ele>1137.5</ele>
        <time>2023-07-07T08:32:00Z</time>
      </trkpt>
      <trkpt lat="44.38261" lon="6.6005">
        <ele>1137.7</ele>
        <time>2023-07-07T08:32:05Z</time>
      </trkpt>
      <trkpt lat="44.38258" lon="6.60064">
        <ele>1137.9</ele>
        <time>2023-07-07T08:32:10Z</time>
      </trkpt>
      <trkpt lat="44.38255" lon="6.60077">
        <ele>1138</ele>
        <time>2023-07-07T08:32:14Z</time>
      </trkpt>
      <trkpt lat="44.38251" lon="6.6009">
        <ele>1138.4</ele>
        <time>2023-07-07T08:32:18Z</time>
      </trkpt>
      <trkpt lat="44.38246" lon="6.60105">
        <ele>1138.9</ele>
        <time>2023-07-07T08:32:22Z</time>
      </trkpt>
      <trkpt lat="44.38242" lon="6.60117">
        <ele>1138.9</ele>
        <time>2023-07-07T08:32:26Z</time>
      </trkpt>
      <trkpt lat="44.38238" lon="6.6013">
        <ele>1138.9</ele>
        <time>2023-07-07T08:32:30Z</time>
      </trkpt>
      <trkpt lat="44.38233" lon="6.60143">
        <ele>1139.1</ele>
        <time>2023-07-07T08:32:34Z</time>
      </trkpt>
      <trkpt lat="44.38228" lon="6.60156">
        <ele>1139.1</ele>
        <time>2023-07-07T08:32:39Z</time>
      </trkpt>
      <trkpt lat="44.38224" lon="6.60169">
        <ele>1139.3</ele>
        <time>2023-07-07T08:32:43Z</time>
      </trkpt>
      <trkpt lat="44.3822" lon="6.60183">
        <ele>1140.3</ele>
        <time>2023-07-07T08:32:48Z</time>
      </trkpt>
      <trkpt lat="44.38217" lon="6.60195">
        <ele>1141.6</ele>
        <time>2023-07-07T08:32:52Z</time>
      </trkpt>
      <trkpt lat="44.38215" lon="6.6021">
        <ele>1142.4</ele>
        <time>2023-07-07T08:32:57Z</time>
      </trkpt>
      <trkpt lat="44.38214" lon="6.60225">
        <ele>1142.9</ele>
        <time>2023-07-07T08:33:02Z</time>
      </trkpt>
      <trkpt lat="44.38213" lon="6.60238">
        <ele>1143.3</ele>
        <time>2023-07-07T08:33:07Z</time>
      </trkpt>
      <trkpt lat="44.38213" lon="6.60253">
        <ele>1143.5</ele>
        <time>2023-07-07T08:33:12Z</time>
      </trkpt>
      <trkpt lat="44.38212" lon="6.60266">
        <ele>1144.6</ele>
        <time>2023-07-07T08:33:17Z</time>
      </trkpt>
      <trkpt lat="44.38212" lon="6.6028">
        <ele>1144.6</ele>
        <time>2023-07-07T08:33:22Z</time>
      </trkpt>
      <trkpt lat="44.38211" lon="6.60296">
        <ele>1143.8</ele>
        <time>2023-07-07T08:33:27Z</time>
      </trkpt>
      <trkpt lat="44.38209" lon="6.6031">
        <ele>1143.4</ele>
        <time>2023-07-07T08:33:31Z</time>
      </trkpt>
      <trkpt lat="44.38205" lon="6.60325">
        <ele>1144.2</ele>
        <time>2023-07-07T08:33:35Z</time>
      </trkpt>
      <trkpt lat="44.38203" lon="6.60338">
        <ele>1144.1</ele>
        <time>2023-07-07T08:33:38Z</time>
      </trkpt>
      <trkpt lat="44.38201" lon="6.60351">
        <ele>1144.2</ele>
        <time>2023-07-07T08:33:41Z</time>
      </trkpt>
      <trkpt lat="44.38197" lon="6.60366">
        <ele>1144.9</ele>
        <time>2023-07-07T08:33:44Z</time>
      </trkpt>
      <trkpt lat="44.38194" lon="6.60382">
        <ele>1145.7</ele>
        <time>2023-07-07T08:33:47Z</time>
      </trkpt>
      <trkpt lat="44.38194" lon="6.60397">
        <ele>1144.5</ele>
        <time>2023-07-07T08:33:49Z</time>
      </trkpt>
      <trkpt lat="44.38198" lon="6.60413">
        <ele>1141.4</ele>
        <time>2023-07-07T08:33:51Z</time>
      </trkpt>
      <trkpt lat="44.38201" lon="6.60428">
        <ele>1138.7</ele>
        <time>2023-07-07T08:33:53Z</time>
      </trkpt>
      <trkpt lat="44.38201" lon="6.60444">
        <ele>1138.1</ele>
        <time>2023-07-07T08:33:55Z</time>
      </trkpt>
      <trkpt lat="44.38198" lon="6.60461">
        <ele>1139.1</ele>
        <time>2023-07-07T08:33:57Z</time>
      </trkpt>
      <trkpt lat="44.38194" lon="6.60481">
        <ele>1139</ele>
        <time>2023-07-07T08:33:59Z</time>
      </trkpt>
      <trkpt lat="44.38194" lon="6.60502">
        <ele>1136.8</ele>
        <time>2023-07-07T08:34:01Z</time>
      </trkpt>
      <trkpt lat="44.38191" lon="6.60521">
        <ele>1135.8</ele>
        <time>2023-07-07T08:34:03Z</time>
      </trkpt>
      <trkpt lat="44.38182" lon="6.60536">
        <ele>1138.1</ele>
        <time>2023-07-07T08:34:05Z</time>
      </trkpt>
      <trkpt lat="44.38173" lon="6.60548">
        <ele>1141.2</ele>
        <time>2023-07-07T08:34:07Z</time>
      </trkpt>
      <trkpt lat="44.38164" lon="6.60566">
        <ele>1143.6</ele>
        <time>2023-07-07T08:34:09Z</time>
      </trkpt>
      <trkpt lat="44.38162" lon="6.60586">
        <ele>1142.8</ele>
        <time>2023-07-07T08:34:11Z</time>
      </trkpt>
      <trkpt lat="44.38165" lon="6.60605">
        <ele>1140.4</ele>
        <time>2023-07-07T08:34:13Z</time>
      </trkpt>
      <trkpt lat="44.38169" lon="6.60621">
        <ele>1138.1</ele>
        <time>2023-07-07T08:34:15Z</time>
      </trkpt>
      <trkpt lat="44.38175" lon="6.60638">
        <ele>1135.1</ele>
        <time>2023-07-07T08:34:17Z</time>
      </trkpt>
      <trkpt lat="44.38179" lon="6.60655">
        <ele>1133.1</ele>
        <time>2023-07-07T08:34:19Z</time>
      </trkpt>
      <trkpt lat="44.38182" lon="6.60672">
        <ele>1131.5</ele>
        <time>2023-07-07T08:34:21Z</time>
      </trkpt>
      <trkpt lat="44.38182" lon="6.6069">
        <ele>1131.1</ele>
        <time>2023-07-07T08:34:23Z</time>
      </trkpt>
      <trkpt lat="44.38169" lon="6.60701">
        <ele>1136.7</ele>
        <time>2023-07-07T08:34:26Z</time>
      </trkpt>
      <trkpt lat="44.3816" lon="6.60709">
        <ele>1140.5</ele>
        <time>2023-07-07T08:34:28Z</time>
      </trkpt>
      <trkpt lat="44.38156" lon="6.60723">
        <ele>1141.4</ele>
        <time>2023-07-07T08:34:30Z</time>
      </trkpt>
      <trkpt lat="44.38159" lon="6.60739">
        <ele>1140.1</ele>
        <time>2023-07-07T08:34:32Z</time>
      </trkpt>
      <trkpt lat="44.38166" lon="6.60753">
        <ele>1137.3</ele>
        <time>2023-07-07T08:34:34Z</time>
      </trkpt>
      <trkpt lat="44.38175" lon="6.60765">
        <ele>1134</ele>
        <time>2023-07-07T08:34:36Z</time>
      </trkpt>
      <trkpt lat="44.3818" lon="6.60778">
        <ele>1132.2</ele>
        <time>2023-07-07T08:34:38Z</time>
      </trkpt>
      <trkpt lat="44.38186" lon="6.60796">
        <ele>1132.6</ele>
        <time>2023-07-07T08:34:40Z</time>
      </trkpt>
      <trkpt lat="44.38191" lon="6.60815">
        <ele>1132.5</ele>
        <time>2023-07-07T08:34:42Z</time>
      </trkpt>
      <trkpt lat="44.38191" lon="6.60833">
        <ele>1133</ele>
        <time>2023-07-07T08:34:44Z</time>
      </trkpt>
      <trkpt lat="44.38189" lon="6.60853">
        <ele>1132.3</ele>
        <time>2023-07-07T08:34:46Z</time>
      </trkpt>
      <trkpt lat="44.38188" lon="6.60876">
        <ele>1130.4</ele>
        <time>2023-07-07T08:34:48Z</time>
      </trkpt>
      <trkpt lat="44.38187" lon="6.609">
        <ele>1128</ele>
        <time>2023-07-07T08:34:50Z</time>
      </trkpt>
      <trkpt lat="44.38186" lon="6.60924">
        <ele>1126.6</ele>
        <time>2023-07-07T08:34:52Z</time>
      </trkpt>
      <trkpt lat="44.38183" lon="6.60947">
        <ele>1126.6</ele>
        <time>2023-07-07T08:34:54Z</time>
      </trkpt>
      <trkpt lat="44.38178" lon="6.60966">
        <ele>1127.6</ele>
        <time>2023-07-07T08:34:56Z</time>
      </trkpt>
      <trkpt lat="44.38171" lon="6.60985">
        <ele>1129</ele>
        <time>2023-07-07T08:34:58Z</time>
      </trkpt>
      <trkpt lat="44.38169" lon="6.61006">
        <ele>1129.1</ele>
        <time>2023-07-07T08:35:00Z</time>
      </trkpt>
      <trkpt lat="44.38169" lon="6.61029">
        <ele>1128.3</ele>
        <time>2023-07-07T08:35:02Z</time>
      </trkpt>
      <trkpt lat="44.38171" lon="6.6105">
        <ele>1126.2</ele>
        <time>2023-07-07T08:35:04Z</time>
      </trkpt>
      <trkpt lat="44.38173" lon="6.61072">
        <ele>1124.1</ele>
        <time>2023-07-07T08:35:06Z</time>
      </trkpt>
      <trkpt lat="44.38176" lon="6.61092">
        <ele>1122.4</ele>
        <time>2023-07-07T08:35:08Z</time>
      </trkpt>
      <trkpt lat="44.38178" lon="6.61112">
        <ele>1121.1</ele>
        <time>2023-07-07T08:35:10Z</time>
      </trkpt>
      <trkpt lat="44.38177" lon="6.61134">
        <ele>1120.9</ele>
        <time>2023-07-07T08:35:12Z</time>
      </trkpt>
      <trkpt lat="44.38171" lon="6.61154">
        <ele>1121.2</ele>
        <time>2023-07-07T08:35:14Z</time>
      </trkpt>
      <trkpt lat="44.38163" lon="6.61169">
        <ele>1121.5</ele>
        <time>2023-07-07T08:35:16Z</time>
      </trkpt>
      <trkpt lat="44.38154" lon="6.61186">
        <ele>1121.9</ele>
        <time>2023-07-07T08:35:18Z</time>
      </trkpt>
      <trkpt lat="44.38146" lon="6.61203">
        <ele>1122.2</ele>
        <time>2023-07-07T08:35:20Z</time>
      </trkpt>
      <trkpt lat="44.3814" lon="6.6122">
        <ele>1122</ele>
        <time>2023-07-07T08:35:22Z</time>
      </trkpt>
      <trkpt lat="44.38134" lon="6.61237">
        <ele>1121.8</ele>
        <time>2023-07-07T08:35:24Z</time>
      </trkpt>
      <trkpt lat="44.38126" lon="6.61254">
        <ele>1121.9</ele>
        <time>2023-07-07T08:35:26Z</time>
      </trkpt>
      <trkpt lat="44.38117" lon="6.61267">
        <ele>1122.1</ele>
        <time>2023-07-07T08:35:28Z</time>
      </trkpt>
      <trkpt lat="44.38107" lon="6.61281">
        <ele>1122.2</ele>
        <time>2023-07-07T08:35:30Z</time>
      </trkpt>
      <trkpt lat="44.38095" lon="6.61292">
        <ele>1122.4</ele>
        <time>2023-07-07T08:35:32Z</time>
      </trkpt>
      <trkpt lat="44.38083" lon="6.61302">
        <ele>1122.5</ele>
        <time>2023-07-07T08:35:34Z</time>
      </trkpt>
      <trkpt lat="44.38073" lon="6.6131">
        <ele>1123</ele>
        <time>2023-07-07T08:35:36Z</time>
      </trkpt>
      <trkpt lat="44.38063" lon="6.61317">
        <ele>1123.3</ele>
        <time>2023-07-07T08:35:38Z</time>
      </trkpt>
      <trkpt lat="44.38056" lon="6.61324">
        <ele>1123.3</ele>
        <time>2023-07-07T08:35:40Z</time>
      </trkpt>
      <trkpt lat="44.38049" lon="6.61334">
        <ele>1122.9</ele>
        <time>2023-07-07T08:35:42Z</time>
      </trkpt>
      <trkpt lat="44.38041" lon="6.61342">
        <ele>1122.7</ele>
        <time>2023-07-07T08:35:44Z</time>
      </trkpt>
      <trkpt lat="44.38034" lon="6.6135">
        <ele>1122.4</ele>
        <time>2023-07-07T08:35:46Z</time>
      </trkpt>
      <trkpt lat="44.38026" lon="6.61355">
        <ele>1122.4</ele>
        <time>2023-07-07T08:35:48Z</time>
      </trkpt>
      <trkpt lat="44.38015" lon="6.61363">
        <ele>1123.2</ele>
        <time>2023-07-07T08:35:51Z</time>
      </trkpt>
      <trkpt lat="44.38006" lon="6.61372">
        <ele>1123.8</ele>
        <time>2023-07-07T08:35:54Z</time>
      </trkpt>
      <trkpt lat="44.37999" lon="6.61386">
        <ele>1123.7</ele>
        <time>2023-07-07T08:35:57Z</time>
      </trkpt>
      <trkpt lat="44.37995" lon="6.61403">
        <ele>1123.9</ele>
        <time>2023-07-07T08:36:00Z</time>
      </trkpt>
      <trkpt lat="44.37995" lon="6.61421">
        <ele>1123.3</ele>
        <time>2023-07-07T08:36:03Z</time>
      </trkpt>
      <trkpt lat="44.37995" lon="6.61439">
        <ele>1122.6</ele>
        <time>2023-07-07T08:36:06Z</time>
      </trkpt>
      <trkpt lat="44.37994" lon="6.61456">
        <ele>1122.4</ele>
        <time>2023-07-07T08:36:09Z</time>
      </trkpt>
      <trkpt lat="44.37992" lon="6.61474">
        <ele>1122.7</ele>
        <time>2023-07-07T08:36:12Z</time>
      </trkpt>
      <trkpt lat="44.3799" lon="6.6149">
        <ele>1123</ele>
        <time>2023-07-07T08:36:15Z</time>
      </trkpt>
      <trkpt lat="44.37987" lon="6.61504">
        <ele>1123.3</ele>
        <time>2023-07-07T08:36:18Z</time>
      </trkpt>
      <trkpt lat="44.37984" lon="6.61518">
        <ele>1123.9</ele>
        <time>2023-07-07T08:36:21Z</time>
      </trkpt>
      <trkpt lat="44.3798" lon="6.61531">
        <ele>1124.6</ele>
        <time>2023-07-07T08:36:24Z</time>
      </trkpt>
      <trkpt lat="44.37976" lon="6.61543">
        <ele>1125.5</ele>
        <time>2023-07-07T08:36:27Z</time>
      </trkpt>
      <trkpt lat="44.37971" lon="6.61555">
        <ele>1126.2</ele>
        <time>2023-07-07T08:36:30Z</time>
      </trkpt>
      <trkpt lat="44.37965" lon="6.61568">
        <ele>1126.6</ele>
        <time>2023-07-07T08:36:33Z</time>
      </trkpt>
      <trkpt lat="44.37956" lon="6.61578">
        <ele>1127.5</ele>
        <time>2023-07-07T08:36:36Z</time>
      </trkpt>
      <trkpt lat="44.37948" lon="6.61588">
        <ele>1128.5</ele>
        <time>2023-07-07T08:36:39Z</time>
      </trkpt>
      <trkpt lat="44.37941" lon="6.616">
        <ele>1129.4</ele>
        <time>2023-07-07T08:36:42Z</time>
      </trkpt>
      <trkpt lat="44.37935" lon="6.61618">
        <ele>1129.4</ele>
        <time>2023-07-07T08:36:45Z</time>
      </trkpt>
      <trkpt lat="44.37932" lon="6.61633">
        <ele>1128.4</ele>
        <time>2023-07-07T08:36:47Z</time>
      </trkpt>
      <trkpt lat="44.37928" lon="6.61649">
        <ele>1127.7</ele>
        <time>2023-07-07T08:36:49Z</time>
      </trkpt>
      <trkpt lat="44.37925" lon="6.61664">
        <ele>1127.1</ele>
        <time>2023-07-07T08:36:51Z</time>
      </trkpt>
      <trkpt lat="44.3792" lon="6.61678">
        <ele>1127</ele>
        <time>2023-07-07T08:36:53Z</time>
      </trkpt>
      <trkpt lat="44.37914" lon="6.61691">
        <ele>1127.4</ele>
        <time>2023-07-07T08:36:55Z</time>
      </trkpt>
      <trkpt lat="44.37908" lon="6.617">
        <ele>1128</ele>
        <time>2023-07-07T08:36:57Z</time>
      </trkpt>
      <trkpt lat="44.379" lon="6.61712">
        <ele>1128</ele>
        <time>2023-07-07T08:37:00Z</time>
      </trkpt>
      <trkpt lat="44.37891" lon="6.61725">
        <ele>1127.6</ele>
        <time>2023-07-07T08:37:03Z</time>
      </trkpt>
      <trkpt lat="44.37886" lon="6.6174">
        <ele>1127.1</ele>
        <time>2023-07-07T08:37:06Z</time>
      </trkpt>
      <trkpt lat="44.37879" lon="6.61753">
        <ele>1127</ele>
        <time>2023-07-07T08:37:09Z</time>
      </trkpt>
      <trkpt lat="44.37872" lon="6.61765">
        <ele>1127.2</ele>
        <time>2023-07-07T08:37:12Z</time>
      </trkpt>
      <trkpt lat="44.37864" lon="6.61778">
        <ele>1126.9</ele>
        <time>2023-07-07T08:37:15Z</time>
      </trkpt>
      <trkpt lat="44.37857" lon="6.61791">
        <ele>1126.8</ele>
        <time>2023-07-07T08:37:18Z</time>
      </trkpt>
      <trkpt lat="44.3785" lon="6.61804">
        <ele>1126.5</ele>
        <time>2023-07-07T08:37:21Z</time>
      </trkpt>
      <trkpt lat="44.37841" lon="6.61816">
        <ele>1126.7</ele>
        <time>2023-07-07T08:37:24Z</time>
      </trkpt>
      <trkpt lat="44.37833" lon="6.61829">
        <ele>1127</ele>
        <time>2023-07-07T08:37:27Z</time>
      </trkpt>
      <trkpt lat="44.37826" lon="6.61841">
        <ele>1127</ele>
        <time>2023-07-07T08:37:30Z</time>
      </trkpt>
      <trkpt lat="44.37818" lon="6.61854">
        <ele>1127</ele>
        <time>2023-07-07T08:37:33Z</time>
      </trkpt>
      <trkpt lat="44.37809" lon="6.61865">
        <ele>1127</ele>
        <time>2023-07-07T08:37:36Z</time>
      </trkpt>
      <trkpt lat="44.37801" lon="6.61877">
        <ele>1127.2</ele>
        <time>2023-07-07T08:37:39Z</time>
      </trkpt>
      <trkpt lat="44.37792" lon="6.61887">
        <ele>1127.5</ele>
        <time>2023-07-07T08:37:42Z</time>
      </trkpt>
      <trkpt lat="44.37783" lon="6.61897">
        <ele>1127.9</ele>
        <time>2023-07-07T08:37:45Z</time>
      </trkpt>
      <trkpt lat="44.37775" lon="6.6191">
        <ele>1128.1</ele>
        <time>2023-07-07T08:37:48Z</time>
      </trkpt>
      <trkpt lat="44.37766" lon="6.61921">
        <ele>1128.5</ele>
        <time>2023-07-07T08:37:51Z</time>
      </trkpt>
      <trkpt lat="44.37757" lon="6.61931">
        <ele>1128.9</ele>
        <time>2023-07-07T08:37:54Z</time>
      </trkpt>
      <trkpt lat="44.37749" lon="6.61941">
        <ele>1129.1</ele>
        <time>2023-07-07T08:37:57Z</time>
      </trkpt>
      <trkpt lat="44.37741" lon="6.61951">
        <ele>1129.6</ele>
        <time>2023-07-07T08:38:00Z</time>
      </trkpt>
      <trkpt lat="44.37733" lon="6.6196">
        <ele>1129.9</ele>
        <time>2023-07-07T08:38:03Z</time>
      </trkpt>
      <trkpt lat="44.37725" lon="6.6197">
        <ele>1130</ele>
        <time>2023-07-07T08:38:06Z</time>
      </trkpt>
      <trkpt lat="44.37717" lon="6.6198">
        <ele>1130.3</ele>
        <time>2023-07-07T08:38:09Z</time>
      </trkpt>
      <trkpt lat="44.37709" lon="6.6199">
        <ele>1130.7</ele>
        <time>2023-07-07T08:38:12Z</time>
      </trkpt>
      <trkpt lat="44.377" lon="6.61999">
        <ele>1130.8</ele>
        <time>2023-07-07T08:38:15Z</time>
      </trkpt>
      <trkpt lat="44.37692" lon="6.62008">
        <ele>1131.1</ele>
        <time>2023-07-07T08:38:18Z</time>
      </trkpt>
      <trkpt lat="44.37684" lon="6.62018">
        <ele>1131.3</ele>
        <time>2023-07-07T08:38:21Z</time>
      </trkpt>
      <trkpt lat="44.37676" lon="6.62029">
        <ele>1131</ele>
        <time>2023-07-07T08:38:24Z</time>
      </trkpt>
      <trkpt lat="44.37668" lon="6.6204">
        <ele>1130.6</ele>
        <time>2023-07-07T08:38:27Z</time>
      </trkpt>
      <trkpt lat="44.3766" lon="6.6205">
        <ele>1130.8</ele>
        <time>2023-07-07T08:38:30Z</time>
      </trkpt>
      <trkpt lat="44.37651" lon="6.62061">
        <ele>1131</ele>
        <time>2023-07-07T08:38:33Z</time>
      </trkpt>
      <trkpt lat="44.37643" lon="6.62071">
        <ele>1130.8</ele>
        <time>2023-07-07T08:38:36Z</time>
      </trkpt>
      <trkpt lat="44.37636" lon="6.62082">
        <ele>1130.4</ele>
        <time>2023-07-07T08:38:39Z</time>
      </trkpt>
      <trkpt lat="44.37628" lon="6.62093">
        <ele>1131.1</ele>
        <time>2023-07-07T08:38:42Z</time>
      </trkpt>
      <trkpt lat="44.3762" lon="6.62103">
        <ele>1131.3</ele>
        <time>2023-07-07T08:38:45Z</time>
      </trkpt>
      <trkpt lat="44.37612" lon="6.62113">
        <ele>1131</ele>
        <time>2023-07-07T08:38:48Z</time>
      </trkpt>
      <trkpt lat="44.37603" lon="6.62123">
        <ele>1132</ele>
        <time>2023-07-07T08:38:51Z</time>
      </trkpt>
      <trkpt lat="44.37595" lon="6.62134">
        <ele>1132.9</ele>
        <time>2023-07-07T08:38:54Z</time>
      </trkpt>
      <trkpt lat="44.37588" lon="6.62143">
        <ele>1133.5</ele>
        <time>2023-07-07T08:38:57Z</time>
      </trkpt>
      <trkpt lat="44.3758" lon="6.62154">
        <ele>1134.4</ele>
        <time>2023-07-07T08:39:01Z</time>
      </trkpt>
      <trkpt lat="44.37572" lon="6.62164">
        <ele>1135.2</ele>
        <time>2023-07-07T08:39:05Z</time>
      </trkpt>
      <trkpt lat="44.37565" lon="6.62173">
        <ele>1136.3</ele>
        <time>2023-07-07T08:39:09Z</time>
      </trkpt>
      <trkpt lat="44.37556" lon="6.62182">
        <ele>1137.5</ele>
        <time>2023-07-07T08:39:13Z</time>
      </trkpt>
      <trkpt lat="44.37548" lon="6.62192">
        <ele>1138.2</ele>
        <time>2023-07-07T08:39:17Z</time>
      </trkpt>
      <trkpt lat="44.37539" lon="6.622">
        <ele>1138.6</ele>
        <time>2023-07-07T08:39:21Z</time>
      </trkpt>
      <trkpt lat="44.37531" lon="6.62207">
        <ele>1138.9</ele>
        <time>2023-07-07T08:39:25Z</time>
      </trkpt>
      <trkpt lat="44.37523" lon="6.62213">
        <ele>1139.1</ele>
        <time>2023-07-07T08:39:30Z</time>
      </trkpt>
      <trkpt lat="44.37515" lon="6.62219">
        <ele>1139.1</ele>
        <time>2023-07-07T08:39:35Z</time>
      </trkpt>
      <trkpt lat="44.37506" lon="6.62226">
        <ele>1139</ele>
        <time>2023-07-07T08:39:39Z</time>
      </trkpt>
      <trkpt lat="44.37496" lon="6.62233">
        <ele>1139.2</ele>
        <time>2023-07-07T08:39:44Z</time>
      </trkpt>
      <trkpt lat="44.37488" lon="6.62241">
        <ele>1139.6</ele>
        <time>2023-07-07T08:39:49Z</time>
      </trkpt>
      <trkpt lat="44.3748" lon="6.62247">
        <ele>1139.8</ele>
        <time>2023-07-07T08:39:53Z</time>
      </trkpt>
      <trkpt lat="44.37472" lon="6.62256">
        <ele>1139.8</ele>
        <time>2023-07-07T08:39:58Z</time>
      </trkpt>
      <trkpt lat="44.37464" lon="6.62263">
        <ele>1140.1</ele>
        <time>2023-07-07T08:40:02Z</time>
      </trkpt>
      <trkpt lat="44.37456" lon="6.62275">
        <ele>1140.3</ele>
        <time>2023-07-07T08:40:06Z</time>
      </trkpt>
      <trkpt lat="44.37448" lon="6.62284">
        <ele>1140.5</ele>
        <time>2023-07-07T08:40:10Z</time>
      </trkpt>
      <trkpt lat="44.37444" lon="6.62295">
        <ele>1140.5</ele>
        <time>2023-07-07T08:41:54Z</time>
      </trkpt>
      <trkpt lat="44.37434" lon="6.62297">
        <ele>1141.1</ele>
        <time>2023-07-07T08:41:59Z</time>
      </trkpt>
      <trkpt lat="44.37425" lon="6.62303">
        <ele>1141.5</ele>
        <time>2023-07-07T08:42:03Z</time>
      </trkpt>
      <trkpt lat="44.37422" lon="6.62316">
        <ele>1141.2</ele>
        <time>2023-07-07T08:42:07Z</time>
      </trkpt>
      <trkpt lat="44.37427" lon="6.6233">
        <ele>1140.4</ele>
        <time>2023-07-07T08:42:10Z</time>
      </trkpt>
      <trkpt lat="44.37432" lon="6.62341">
        <ele>1139.7</ele>
        <time>2023-07-07T08:42:12Z</time>
      </trkpt>
      <trkpt lat="44.37441" lon="6.62351">
        <ele>1139.2</ele>
        <time>2023-07-07T08:42:14Z</time>
      </trkpt>
      <trkpt lat="44.37449" lon="6.62363">
        <ele>1138.8</ele>
        <time>2023-07-07T08:42:16Z</time>
      </trkpt>
      <trkpt lat="44.37457" lon="6.62376">
        <ele>1138.3</ele>
        <time>2023-07-07T08:42:18Z</time>
      </trkpt>
      <trkpt lat="44.37464" lon="6.6239">
        <ele>1138</ele>
        <time>2023-07-07T08:42:20Z</time>
      </trkpt>
      <trkpt lat="44.37472" lon="6.62404">
        <ele>1138</ele>
        <time>2023-07-07T08:42:22Z</time>
      </trkpt>
      <trkpt lat="44.37477" lon="6.6242">
        <ele>1138</ele>
        <time>2023-07-07T08:42:24Z</time>
      </trkpt>
      <trkpt lat="44.37482" lon="6.62435">
        <ele>1138</ele>
        <time>2023-07-07T08:42:26Z</time>
      </trkpt>
      <trkpt lat="44.37487" lon="6.62451">
        <ele>1138.1</ele>
        <time>2023-07-07T08:42:28Z</time>
      </trkpt>
      <trkpt lat="44.37491" lon="6.62466">
        <ele>1138.3</ele>
        <time>2023-07-07T08:42:30Z</time>
      </trkpt>
      <trkpt lat="44.37493" lon="6.62479">
        <ele>1138.7</ele>
        <time>2023-07-07T08:42:32Z</time>
      </trkpt>
      <trkpt lat="44.37495" lon="6.62492">
        <ele>1139.5</ele>
        <time>2023-07-07T08:42:34Z</time>
      </trkpt>
      <trkpt lat="44.37497" lon="6.62506">
        <ele>1140.2</ele>
        <time>2023-07-07T08:42:36Z</time>
      </trkpt>
      <trkpt lat="44.37499" lon="6.62519">
        <ele>1140.7</ele>
        <time>2023-07-07T08:42:38Z</time>
      </trkpt>
      <trkpt lat="44.37501" lon="6.62538">
        <ele>1141.3</ele>
        <time>2023-07-07T08:42:41Z</time>
      </trkpt>
      <trkpt lat="44.37503" lon="6.6255">
        <ele>1141.6</ele>
        <time>2023-07-07T08:42:43Z</time>
      </trkpt>
      <trkpt lat="44.37505" lon="6.62563">
        <ele>1141.7</ele>
        <time>2023-07-07T08:42:45Z</time>
      </trkpt>
      <trkpt lat="44.37507" lon="6.62576">
        <ele>1141.5</ele>
        <time>2023-07-07T08:42:47Z</time>
      </trkpt>
      <trkpt lat="44.3751" lon="6.62594">
        <ele>1141</ele>
        <time>2023-07-07T08:42:50Z</time>
      </trkpt>
      <trkpt lat="44.37513" lon="6.62608">
        <ele>1140.6</ele>
        <time>2023-07-07T08:42:52Z</time>
      </trkpt>
      <trkpt lat="44.37514" lon="6.62626">
        <ele>1140.5</ele>
        <time>2023-07-07T08:42:55Z</time>
      </trkpt>
      <trkpt lat="44.37516" lon="6.62639">
        <ele>1140.4</ele>
        <time>2023-07-07T08:42:57Z</time>
      </trkpt>
      <trkpt lat="44.37517" lon="6.62653">
        <ele>1140.4</ele>
        <time>2023-07-07T08:42:59Z</time>
      </trkpt>
      <trkpt lat="44.37519" lon="6.62668">
        <ele>1140.2</ele>
        <time>2023-07-07T08:43:01Z</time>
      </trkpt>
      <trkpt lat="44.37522" lon="6.62683">
        <ele>1139.6</ele>
        <time>2023-07-07T08:43:03Z</time>
      </trkpt>
      <trkpt lat="44.37526" lon="6.62699">
        <ele>1139.1</ele>
        <time>2023-07-07T08:43:05Z</time>
      </trkpt>
      <trkpt lat="44.3753" lon="6.62715">
        <ele>1139</ele>
        <time>2023-07-07T08:43:07Z</time>
      </trkpt>
      <trkpt lat="44.37537" lon="6.62729">
        <ele>1139.2</ele>
        <time>2023-07-07T08:43:09Z</time>
      </trkpt>
      <trkpt lat="44.37544" lon="6.62744">
        <ele>1139.3</ele>
        <time>2023-07-07T08:43:11Z</time>
      </trkpt>
      <trkpt lat="44.37554" lon="6.62756">
        <ele>1139.5</ele>
        <time>2023-07-07T08:43:13Z</time>
      </trkpt>
      <trkpt lat="44.37566" lon="6.62765">
        <ele>1139.9</ele>
        <time>2023-07-07T08:43:15Z</time>
      </trkpt>
      <trkpt lat="44.37578" lon="6.62772">
        <ele>1139.9</ele>
        <time>2023-07-07T08:43:17Z</time>
      </trkpt>
      <trkpt lat="44.37592" lon="6.62778">
        <ele>1139.7</ele>
        <time>2023-07-07T08:43:19Z</time>
      </trkpt>
      <trkpt lat="44.37607" lon="6.62782">
        <ele>1139.4</ele>
        <time>2023-07-07T08:43:21Z</time>
      </trkpt>
      <trkpt lat="44.37622" lon="6.62784">
        <ele>1139.4</ele>
        <time>2023-07-07T08:43:23Z</time>
      </trkpt>
      <trkpt lat="44.37636" lon="6.62789">
        <ele>1139.4</ele>
        <time>2023-07-07T08:43:25Z</time>
      </trkpt>
      <trkpt lat="44.37651" lon="6.62793">
        <ele>1138.8</ele>
        <time>2023-07-07T08:43:27Z</time>
      </trkpt>
      <trkpt lat="44.37666" lon="6.62796">
        <ele>1138.1</ele>
        <time>2023-07-07T08:43:29Z</time>
      </trkpt>
      <trkpt lat="44.37679" lon="6.628">
        <ele>1137.5</ele>
        <time>2023-07-07T08:43:31Z</time>
      </trkpt>
      <trkpt lat="44.37695" lon="6.62804">
        <ele>1137</ele>
        <time>2023-07-07T08:43:33Z</time>
      </trkpt>
      <trkpt lat="44.37709" lon="6.62807">
        <ele>1136.5</ele>
        <time>2023-07-07T08:43:35Z</time>
      </trkpt>
      <trkpt lat="44.37724" lon="6.6281">
        <ele>1136.2</ele>
        <time>2023-07-07T08:43:37Z</time>
      </trkpt>
      <trkpt lat="44.37739" lon="6.62816">
        <ele>1136.2</ele>
        <time>2023-07-07T08:43:39Z</time>
      </trkpt>
      <trkpt lat="44.37753" lon="6.6282">
        <ele>1135.9</ele>
        <time>2023-07-07T08:43:41Z</time>
      </trkpt>
      <trkpt lat="44.37766" lon="6.62823">
        <ele>1135.4</ele>
        <time>2023-07-07T08:43:43Z</time>
      </trkpt>
      <trkpt lat="44.37781" lon="6.62827">
        <ele>1134.9</ele>
        <time>2023-07-07T08:43:45Z</time>
      </trkpt>
      <trkpt lat="44.37796" lon="6.62831">
        <ele>1134.3</ele>
        <time>2023-07-07T08:43:47Z</time>
      </trkpt>
      <trkpt lat="44.37812" lon="6.62835">
        <ele>1133.8</ele>
        <time>2023-07-07T08:43:49Z</time>
      </trkpt>
      <trkpt lat="44.37826" lon="6.6284">
        <ele>1133.4</ele>
        <time>2023-07-07T08:43:51Z</time>
      </trkpt>
      <trkpt lat="44.37841" lon="6.62845">
        <ele>1133.3</ele>
        <time>2023-07-07T08:43:53Z</time>
      </trkpt>
      <trkpt lat="44.37856" lon="6.62848">
        <ele>1133.1</ele>
        <time>2023-07-07T08:43:55Z</time>
      </trkpt>
      <trkpt lat="44.3787" lon="6.62853">
        <ele>1132.7</ele>
        <time>2023-07-07T08:43:57Z</time>
      </trkpt>
      <trkpt lat="44.37883" lon="6.62857">
        <ele>1132.2</ele>
        <time>2023-07-07T08:43:59Z</time>
      </trkpt>
      <trkpt lat="44.37897" lon="6.62864">
        <ele>1132.1</ele>
        <time>2023-07-07T08:44:01Z</time>
      </trkpt>
      <trkpt lat="44.3791" lon="6.62871">
        <ele>1132.1</ele>
        <time>2023-07-07T08:44:03Z</time>
      </trkpt>
      <trkpt lat="44.37924" lon="6.62878">
        <ele>1131.7</ele>
        <time>2023-07-07T08:44:05Z</time>
      </trkpt>
      <trkpt lat="44.37938" lon="6.62885">
        <ele>1131.2</ele>
        <time>2023-07-07T08:44:07Z</time>
      </trkpt>
      <trkpt lat="44.37953" lon="6.62892">
        <ele>1131.1</ele>
        <time>2023-07-07T08:44:09Z</time>
      </trkpt>
      <trkpt lat="44.37962" lon="6.62896">
        <ele>1131.1</ele>
        <time>2023-07-07T08:44:10Z</time>
      </trkpt>
      <trkpt lat="44.37974" lon="6.62902">
        <ele>1130.9</ele>
        <time>2023-07-07T08:44:12Z</time>
      </trkpt>
      <trkpt lat="44.37988" lon="6.6291">
        <ele>1130.4</ele>
        <time>2023-07-07T08:44:14Z</time>
      </trkpt>
      <trkpt lat="44.38002" lon="6.62919">
        <ele>1129.9</ele>
        <time>2023-07-07T08:44:16Z</time>
      </trkpt>
      <trkpt lat="44.38017" lon="6.62927">
        <ele>1129.4</ele>
        <time>2023-07-07T08:44:18Z</time>
      </trkpt>
      <trkpt lat="44.38032" lon="6.62934">
        <ele>1128.9</ele>
        <time>2023-07-07T08:44:20Z</time>
      </trkpt>
      <trkpt lat="44.38046" lon="6.62942">
        <ele>1128.3</ele>
        <time>2023-07-07T08:44:22Z</time>
      </trkpt>
      <trkpt lat="44.38061" lon="6.62953">
        <ele>1127.8</ele>
        <time>2023-07-07T08:44:24Z</time>
      </trkpt>
      <trkpt lat="44.38075" lon="6.62965">
        <ele>1127.3</ele>
        <time>2023-07-07T08:44:26Z</time>
      </trkpt>
      <trkpt lat="44.38089" lon="6.62978">
        <ele>1126.6</ele>
        <time>2023-07-07T08:44:28Z</time>
      </trkpt>
      <trkpt lat="44.38103" lon="6.62993">
        <ele>1126.1</ele>
        <time>2023-07-07T08:44:30Z</time>
      </trkpt>
      <trkpt lat="44.38117" lon="6.63008">
        <ele>1125.6</ele>
        <time>2023-07-07T08:44:32Z</time>
      </trkpt>
      <trkpt lat="44.38129" lon="6.63023">
        <ele>1125.1</ele>
        <time>2023-07-07T08:44:34Z</time>
      </trkpt>
      <trkpt lat="44.38142" lon="6.63038">
        <ele>1124.9</ele>
        <time>2023-07-07T08:44:36Z</time>
      </trkpt>
      <trkpt lat="44.38155" lon="6.63053">
        <ele>1124.4</ele>
        <time>2023-07-07T08:44:38Z</time>
      </trkpt>
      <trkpt lat="44.38168" lon="6.63068">
        <ele>1124</ele>
        <time>2023-07-07T08:44:40Z</time>
      </trkpt>
      <trkpt lat="44.3818" lon="6.63083">
        <ele>1124</ele>
        <time>2023-07-07T08:44:42Z</time>
      </trkpt>
      <trkpt lat="44.38192" lon="6.63098">
        <ele>1124</ele>
        <time>2023-07-07T08:44:44Z</time>
      </trkpt>
      <trkpt lat="44.38202" lon="6.63114">
        <ele>1123.7</ele>
        <time>2023-07-07T08:44:46Z</time>
      </trkpt>
      <trkpt lat="44.3821" lon="6.63132">
        <ele>1123.1</ele>
        <time>2023-07-07T08:44:48Z</time>
      </trkpt>
      <trkpt lat="44.38217" lon="6.63149">
        <ele>1123</ele>
        <time>2023-07-07T08:44:50Z</time>
      </trkpt>
      <trkpt lat="44.38223" lon="6.63167">
        <ele>1123</ele>
        <time>2023-07-07T08:44:52Z</time>
      </trkpt>
      <trkpt lat="44.38228" lon="6.63186">
        <ele>1123</ele>
        <time>2023-07-07T08:44:54Z</time>
      </trkpt>
      <trkpt lat="44.38234" lon="6.63204">
        <ele>1122.7</ele>
        <time>2023-07-07T08:44:56Z</time>
      </trkpt>
      <trkpt lat="44.38239" lon="6.63222">
        <ele>1122</ele>
        <time>2023-07-07T08:44:58Z</time>
      </trkpt>
      <trkpt lat="44.38243" lon="6.6324">
        <ele>1122</ele>
        <time>2023-07-07T08:45:00Z</time>
      </trkpt>
      <trkpt lat="44.38249" lon="6.63258">
        <ele>1122</ele>
        <time>2023-07-07T08:45:02Z</time>
      </trkpt>
      <trkpt lat="44.38254" lon="6.63273">
        <ele>1122</ele>
        <time>2023-07-07T08:45:04Z</time>
      </trkpt>
      <trkpt lat="44.38259" lon="6.63289">
        <ele>1122</ele>
        <time>2023-07-07T08:45:06Z</time>
      </trkpt>
      <trkpt lat="44.38264" lon="6.63306">
        <ele>1122</ele>
        <time>2023-07-07T08:45:08Z</time>
      </trkpt>
      <trkpt lat="44.3827" lon="6.63323">
        <ele>1122</ele>
        <time>2023-07-07T08:45:10Z</time>
      </trkpt>
      <trkpt lat="44.38275" lon="6.6334">
        <ele>1122</ele>
        <time>2023-07-07T08:45:12Z</time>
      </trkpt>
      <trkpt lat="44.38279" lon="6.63356">
        <ele>1122</ele>
        <time>2023-07-07T08:45:14Z</time>
      </trkpt>
      <trkpt lat="44.38283" lon="6.63372">
        <ele>1122</ele>
        <time>2023-07-07T08:45:16Z</time>
      </trkpt>
      <trkpt lat="44.38286" lon="6.63389">
        <ele>1122</ele>
        <time>2023-07-07T08:45:18Z</time>
      </trkpt>
      <trkpt lat="44.38289" lon="6.63406">
        <ele>1122</ele>
        <time>2023-07-07T08:45:20Z</time>
      </trkpt>
      <trkpt lat="44.38291" lon="6.63423">
        <ele>1122</ele>
        <time>2023-07-07T08:45:22Z</time>
      </trkpt>
      <trkpt lat="44.38291" lon="6.63439">
        <ele>1122</ele>
        <time>2023-07-07T08:45:24Z</time>
      </trkpt>
      <trkpt lat="44.38292" lon="6.63456">
        <ele>1122.4</ele>
        <time>2023-07-07T08:45:26Z</time>
      </trkpt>
      <trkpt lat="44.38291" lon="6.63473">
        <ele>1123</ele>
        <time>2023-07-07T08:45:28Z</time>
      </trkpt>
      <trkpt lat="44.38292" lon="6.63489">
        <ele>1123</ele>
        <time>2023-07-07T08:45:30Z</time>
      </trkpt>
      <trkpt lat="44.38293" lon="6.63506">
        <ele>1123</ele>
        <time>2023-07-07T08:45:32Z</time>
      </trkpt>
      <trkpt lat="44.38294" lon="6.63523">
        <ele>1123</ele>
        <time>2023-07-07T08:45:34Z</time>
      </trkpt>
      <trkpt lat="44.38294" lon="6.63539">
        <ele>1123.2</ele>
        <time>2023-07-07T08:45:36Z</time>
      </trkpt>
      <trkpt lat="44.38295" lon="6.63554">
        <ele>1123.4</ele>
        <time>2023-07-07T08:45:38Z</time>
      </trkpt>
      <trkpt lat="44.38296" lon="6.63572">
        <ele>1123.7</ele>
        <time>2023-07-07T08:45:40Z</time>
      </trkpt>
      <trkpt lat="44.38296" lon="6.63589">
        <ele>1124.1</ele>
        <time>2023-07-07T08:45:42Z</time>
      </trkpt>
      <trkpt lat="44.38296" lon="6.63607">
        <ele>1124.3</ele>
        <time>2023-07-07T08:45:44Z</time>
      </trkpt>
      <trkpt lat="44.38296" lon="6.63622">
        <ele>1124.7</ele>
        <time>2023-07-07T08:45:46Z</time>
      </trkpt>
      <trkpt lat="44.38298" lon="6.63639">
        <ele>1125.3</ele>
        <time>2023-07-07T08:45:48Z</time>
      </trkpt>
      <trkpt lat="44.38299" lon="6.63655">
        <ele>1125.2</ele>
        <time>2023-07-07T08:45:50Z</time>
      </trkpt>
      <trkpt lat="44.38299" lon="6.63671">
        <ele>1125.2</ele>
        <time>2023-07-07T08:45:52Z</time>
      </trkpt>
      <trkpt lat="44.38301" lon="6.63688">
        <ele>1125.2</ele>
        <time>2023-07-07T08:45:54Z</time>
      </trkpt>
      <trkpt lat="44.38304" lon="6.63705">
        <ele>1125</ele>
        <time>2023-07-07T08:45:56Z</time>
      </trkpt>
      <trkpt lat="44.38307" lon="6.63722">
        <ele>1125</ele>
        <time>2023-07-07T08:45:58Z</time>
      </trkpt>
      <trkpt lat="44.38309" lon="6.63738">
        <ele>1125</ele>
        <time>2023-07-07T08:46:00Z</time>
      </trkpt>
      <trkpt lat="44.38312" lon="6.63755">
        <ele>1125</ele>
        <time>2023-07-07T08:46:02Z</time>
      </trkpt>
      <trkpt lat="44.38315" lon="6.63772">
        <ele>1125</ele>
        <time>2023-07-07T08:46:04Z</time>
      </trkpt>
      <trkpt lat="44.38317" lon="6.63788">
        <ele>1125</ele>
        <time>2023-07-07T08:46:06Z</time>
      </trkpt>
      <trkpt lat="44.38319" lon="6.63804">
        <ele>1125</ele>
        <time>2023-07-07T08:46:08Z</time>
      </trkpt>
      <trkpt lat="44.38322" lon="6.6382">
        <ele>1125</ele>
        <time>2023-07-07T08:46:10Z</time>
      </trkpt>
      <trkpt lat="44.38324" lon="6.63836">
        <ele>1125</ele>
        <time>2023-07-07T08:46:12Z</time>
      </trkpt>
      <trkpt lat="44.38325" lon="6.63852">
        <ele>1125</ele>
        <time>2023-07-07T08:46:14Z</time>
      </trkpt>
      <trkpt lat="44.38327" lon="6.63868">
        <ele>1125.1</ele>
        <time>2023-07-07T08:46:16Z</time>
      </trkpt>
      <trkpt lat="44.38329" lon="6.63884">
        <ele>1125.1</ele>
        <time>2023-07-07T08:46:18Z</time>
      </trkpt>
      <trkpt lat="44.38332" lon="6.63901">
        <ele>1125.1</ele>
        <time>2023-07-07T08:46:20Z</time>
      </trkpt>
      <trkpt lat="44.38335" lon="6.63917">
        <ele>1125</ele>
        <time>2023-07-07T08:46:22Z</time>
      </trkpt>
      <trkpt lat="44.38338" lon="6.63934">
        <ele>1125</ele>
        <time>2023-07-07T08:46:24Z</time>
      </trkpt>
      <trkpt lat="44.38341" lon="6.6395">
        <ele>1125.1</ele>
        <time>2023-07-07T08:46:26Z</time>
      </trkpt>
      <trkpt lat="44.38343" lon="6.63967">
        <ele>1125.3</ele>
        <time>2023-07-07T08:46:28Z</time>
      </trkpt>
      <trkpt lat="44.38346" lon="6.63984">
        <ele>1125.7</ele>
        <time>2023-07-07T08:46:30Z</time>
      </trkpt>
      <trkpt lat="44.38348" lon="6.64">
        <ele>1126</ele>
        <time>2023-07-07T08:46:32Z</time>
      </trkpt>
      <trkpt lat="44.3835" lon="6.64017">
        <ele>1126</ele>
        <time>2023-07-07T08:46:34Z</time>
      </trkpt>
      <trkpt lat="44.38353" lon="6.64033">
        <ele>1126</ele>
        <time>2023-07-07T08:46:36Z</time>
      </trkpt>
      <trkpt lat="44.38356" lon="6.64049">
        <ele>1126</ele>
        <time>2023-07-07T08:46:38Z</time>
      </trkpt>
      <trkpt lat="44.38359" lon="6.64066">
        <ele>1126</ele>
        <time>2023-07-07T08:46:40Z</time>
      </trkpt>
      <trkpt lat="44.38361" lon="6.64082">
        <ele>1126</ele>
        <time>2023-07-07T08:46:42Z</time>
      </trkpt>
      <trkpt lat="44.38364" lon="6.64099">
        <ele>1126.6</ele>
        <time>2023-07-07T08:46:44Z</time>
      </trkpt>
      <trkpt lat="44.38367" lon="6.64115">
        <ele>1127</ele>
        <time>2023-07-07T08:46:46Z</time>
      </trkpt>
      <trkpt lat="44.38369" lon="6.64131">
        <ele>1127</ele>
        <time>2023-07-07T08:46:48Z</time>
      </trkpt>
      <trkpt lat="44.38372" lon="6.64148">
        <ele>1127</ele>
        <time>2023-07-07T08:46:50Z</time>
      </trkpt>
      <trkpt lat="44.38374" lon="6.64163">
        <ele>1127</ele>
        <time>2023-07-07T08:46:52Z</time>
      </trkpt>
      <trkpt lat="44.38374" lon="6.6418">
        <ele>1127</ele>
        <time>2023-07-07T08:46:54Z</time>
      </trkpt>
      <trkpt lat="44.38377" lon="6.64196">
        <ele>1127</ele>
        <time>2023-07-07T08:46:56Z</time>
      </trkpt>
      <trkpt lat="44.38379" lon="6.64211">
        <ele>1127.4</ele>
        <time>2023-07-07T08:46:58Z</time>
      </trkpt>
      <trkpt lat="44.38381" lon="6.64228">
        <ele>1127.8</ele>
        <time>2023-07-07T08:47:00Z</time>
      </trkpt>
      <trkpt lat="44.38384" lon="6.64244">
        <ele>1128</ele>
        <time>2023-07-07T08:47:02Z</time>
      </trkpt>
      <trkpt lat="44.38386" lon="6.64261">
        <ele>1128</ele>
        <time>2023-07-07T08:47:04Z</time>
      </trkpt>
      <trkpt lat="44.38388" lon="6.64277">
        <ele>1128</ele>
        <time>2023-07-07T08:47:06Z</time>
      </trkpt>
      <trkpt lat="44.3839" lon="6.64293">
        <ele>1128</ele>
        <time>2023-07-07T08:47:08Z</time>
      </trkpt>
      <trkpt lat="44.38392" lon="6.64308">
        <ele>1128</ele>
        <time>2023-07-07T08:47:10Z</time>
      </trkpt>
      <trkpt lat="44.38395" lon="6.64323">
        <ele>1128.1</ele>
        <time>2023-07-07T08:47:12Z</time>
      </trkpt>
      <trkpt lat="44.38398" lon="6.64337">
        <ele>1128.3</ele>
        <time>2023-07-07T08:47:14Z</time>
      </trkpt>
      <trkpt lat="44.384" lon="6.64352">
        <ele>1128.4</ele>
        <time>2023-07-07T08:47:16Z</time>
      </trkpt>
      <trkpt lat="44.38402" lon="6.64367">
        <ele>1128.5</ele>
        <time>2023-07-07T08:47:18Z</time>
      </trkpt>
      <trkpt lat="44.38404" lon="6.64381">
        <ele>1128.5</ele>
        <time>2023-07-07T08:47:20Z</time>
      </trkpt>
      <trkpt lat="44.38406" lon="6.64395">
        <ele>1128.6</ele>
        <time>2023-07-07T08:47:22Z</time>
      </trkpt>
      <trkpt lat="44.38409" lon="6.6441">
        <ele>1128.7</ele>
        <time>2023-07-07T08:47:24Z</time>
      </trkpt>
      <trkpt lat="44.38411" lon="6.64425">
        <ele>1128.8</ele>
        <time>2023-07-07T08:47:26Z</time>
      </trkpt>
      <trkpt lat="44.38413" lon="6.6444">
        <ele>1128.9</ele>
        <time>2023-07-07T08:47:28Z</time>
      </trkpt>
      <trkpt lat="44.38417" lon="6.64456">
        <ele>1129</ele>
        <time>2023-07-07T08:47:30Z</time>
      </trkpt>
      <trkpt lat="44.38421" lon="6.64471">
        <ele>1129.1</ele>
        <time>2023-07-07T08:47:32Z</time>
      </trkpt>
      <trkpt lat="44.38423" lon="6.64486">
        <ele>1129.6</ele>
        <time>2023-07-07T08:47:34Z</time>
      </trkpt>
      <trkpt lat="44.38426" lon="6.64501">
        <ele>1130</ele>
        <time>2023-07-07T08:47:36Z</time>
      </trkpt>
      <trkpt lat="44.38428" lon="6.64516">
        <ele>1130.2</ele>
        <time>2023-07-07T08:47:38Z</time>
      </trkpt>
      <trkpt lat="44.38431" lon="6.64528">
        <ele>1130.5</ele>
        <time>2023-07-07T08:47:40Z</time>
      </trkpt>
      <trkpt lat="44.38433" lon="6.64543">
        <ele>1130.6</ele>
        <time>2023-07-07T08:47:42Z</time>
      </trkpt>
      <trkpt lat="44.38434" lon="6.64557">
        <ele>1130.6</ele>
        <time>2023-07-07T08:47:44Z</time>
      </trkpt>
      <trkpt lat="44.38437" lon="6.64571">
        <ele>1130.7</ele>
        <time>2023-07-07T08:47:46Z</time>
      </trkpt>
      <trkpt lat="44.3844" lon="6.64585">
        <ele>1130.8</ele>
        <time>2023-07-07T08:47:48Z</time>
      </trkpt>
      <trkpt lat="44.38441" lon="6.64598">
        <ele>1130.9</ele>
        <time>2023-07-07T08:47:50Z</time>
      </trkpt>
      <trkpt lat="44.38442" lon="6.64611">
        <ele>1130.9</ele>
        <time>2023-07-07T08:47:52Z</time>
      </trkpt>
      <trkpt lat="44.38445" lon="6.64625">
        <ele>1131.5</ele>
        <time>2023-07-07T08:47:54Z</time>
      </trkpt>
      <trkpt lat="44.38445" lon="6.6464">
        <ele>1132</ele>
        <time>2023-07-07T08:47:56Z</time>
      </trkpt>
      <trkpt lat="44.38447" lon="6.64654">
        <ele>1132.1</ele>
        <time>2023-07-07T08:47:58Z</time>
      </trkpt>
      <trkpt lat="44.38449" lon="6.64668">
        <ele>1132.2</ele>
        <time>2023-07-07T08:48:00Z</time>
      </trkpt>
      <trkpt lat="44.38449" lon="6.64681">
        <ele>1132.2</ele>
        <time>2023-07-07T08:48:02Z</time>
      </trkpt>
      <trkpt lat="44.3845" lon="6.64696">
        <ele>1132.2</ele>
        <time>2023-07-07T08:48:04Z</time>
      </trkpt>
      <trkpt lat="44.38451" lon="6.64711">
        <ele>1132.2</ele>
        <time>2023-07-07T08:48:06Z</time>
      </trkpt>
      <trkpt lat="44.38452" lon="6.64725">
        <ele>1132.3</ele>
        <time>2023-07-07T08:48:08Z</time>
      </trkpt>
      <trkpt lat="44.38452" lon="6.64737">
        <ele>1132.4</ele>
        <time>2023-07-07T08:48:10Z</time>
      </trkpt>
      <trkpt lat="44.38453" lon="6.6475">
        <ele>1132.6</ele>
        <time>2023-07-07T08:48:12Z</time>
      </trkpt>
      <trkpt lat="44.38452" lon="6.64767">
        <ele>1132.8</ele>
        <time>2023-07-07T08:48:15Z</time>
      </trkpt>
      <trkpt lat="44.3845" lon="6.64784">
        <ele>1133.1</ele>
        <time>2023-07-07T08:48:18Z</time>
      </trkpt>
      <trkpt lat="44.38447" lon="6.64797">
        <ele>1133.5</ele>
        <time>2023-07-07T08:48:21Z</time>
      </trkpt>
      <trkpt lat="44.38444" lon="6.64811">
        <ele>1134.2</ele>
        <time>2023-07-07T08:48:24Z</time>
      </trkpt>
      <trkpt lat="44.38444" lon="6.64826">
        <ele>1134.7</ele>
        <time>2023-07-07T08:48:27Z</time>
      </trkpt>
      <trkpt lat="44.38446" lon="6.6484">
        <ele>1134.7</ele>
        <time>2023-07-07T08:48:30Z</time>
      </trkpt>
      <trkpt lat="44.38445" lon="6.64855">
        <ele>1134.9</ele>
        <time>2023-07-07T08:48:33Z</time>
      </trkpt>
      <trkpt lat="44.38441" lon="6.64866">
        <ele>1135</ele>
        <time>2023-07-07T08:48:36Z</time>
      </trkpt>
      <trkpt lat="44.38439" lon="6.64879">
        <ele>1135.1</ele>
        <time>2023-07-07T08:48:40Z</time>
      </trkpt>
      <trkpt lat="44.38436" lon="6.64892">
        <ele>1135.3</ele>
        <time>2023-07-07T08:48:45Z</time>
      </trkpt>
      <trkpt lat="44.38438" lon="6.64877">
        <ele>1135.1</ele>
        <time>2023-07-07T08:50:31Z</time>
      </trkpt>
      <trkpt lat="44.38432" lon="6.64866">
        <ele>1135.1</ele>
        <time>2023-07-07T08:50:37Z</time>
      </trkpt>
      <trkpt lat="44.38421" lon="6.64861">
        <ele>1135</ele>
        <time>2023-07-07T08:51:26Z</time>
      </trkpt>
      <trkpt lat="44.38413" lon="6.64857">
        <ele>1134.8</ele>
        <time>2023-07-07T08:51:29Z</time>
      </trkpt>
      <trkpt lat="44.38402" lon="6.64848">
        <ele>1134.5</ele>
        <time>2023-07-07T08:51:33Z</time>
      </trkpt>
      <trkpt lat="44.38392" lon="6.64842">
        <ele>1134.3</ele>
        <time>2023-07-07T08:51:36Z</time>
      </trkpt>
      <trkpt lat="44.38382" lon="6.64836">
        <ele>1134.1</ele>
        <time>2023-07-07T08:51:39Z</time>
      </trkpt>
      <trkpt lat="44.38371" lon="6.64831">
        <ele>1134</ele>
        <time>2023-07-07T08:51:42Z</time>
      </trkpt>
      <trkpt lat="44.38362" lon="6.64825">
        <ele>1134</ele>
        <time>2023-07-07T08:51:45Z</time>
      </trkpt>
      <trkpt lat="44.38352" lon="6.64819">
        <ele>1134.2</ele>
        <time>2023-07-07T08:51:48Z</time>
      </trkpt>
      <trkpt lat="44.38342" lon="6.64814">
        <ele>1134.2</ele>
        <time>2023-07-07T08:51:51Z</time>
      </trkpt>
      <trkpt lat="44.38331" lon="6.64811">
        <ele>1134.2</ele>
        <time>2023-07-07T08:51:55Z</time>
      </trkpt>
      <trkpt lat="44.3832" lon="6.64811">
        <ele>1134.2</ele>
        <time>2023-07-07T08:51:58Z</time>
      </trkpt>
      <trkpt lat="44.38308" lon="6.64811">
        <ele>1134.2</ele>
        <time>2023-07-07T08:52:01Z</time>
      </trkpt>
      <trkpt lat="44.38297" lon="6.64808">
        <ele>1134.7</ele>
        <time>2023-07-07T08:52:05Z</time>
      </trkpt>
      <trkpt lat="44.38285" lon="6.6481">
        <ele>1135.6</ele>
        <time>2023-07-07T08:52:09Z</time>
      </trkpt>
      <trkpt lat="44.38276" lon="6.64811">
        <ele>1136.1</ele>
        <time>2023-07-07T08:52:12Z</time>
      </trkpt>
      <trkpt lat="44.38265" lon="6.6481">
        <ele>1136.5</ele>
        <time>2023-07-07T08:52:16Z</time>
      </trkpt>
      <trkpt lat="44.38254" lon="6.64808">
        <ele>1137</ele>
        <time>2023-07-07T08:52:20Z</time>
      </trkpt>
      <trkpt lat="44.38243" lon="6.64809">
        <ele>1137.9</ele>
        <time>2023-07-07T08:52:24Z</time>
      </trkpt>
      <trkpt lat="44.38232" lon="6.64808">
        <ele>1139</ele>
        <time>2023-07-07T08:52:28Z</time>
      </trkpt>
      <trkpt lat="44.38223" lon="6.64805">
        <ele>1139.9</ele>
        <time>2023-07-07T08:52:32Z</time>
      </trkpt>
      <trkpt lat="44.38214" lon="6.64803">
        <ele>1140.8</ele>
        <time>2023-07-07T08:52:36Z</time>
      </trkpt>
      <trkpt lat="44.38205" lon="6.64801">
        <ele>1141.7</ele>
        <time>2023-07-07T08:52:40Z</time>
      </trkpt>
      <trkpt lat="44.38195" lon="6.648">
        <ele>1142.8</ele>
        <time>2023-07-07T08:52:44Z</time>
      </trkpt>
      <trkpt lat="44.38184" lon="6.648">
        <ele>1143.5</ele>
        <time>2023-07-07T08:52:48Z</time>
      </trkpt>
      <trkpt lat="44.38174" lon="6.64801">
        <ele>1144.3</ele>
        <time>2023-07-07T08:52:52Z</time>
      </trkpt>
      <trkpt lat="44.38164" lon="6.64801">
        <ele>1145.1</ele>
        <time>2023-07-07T08:52:56Z</time>
      </trkpt>
      <trkpt lat="44.38153" lon="6.64806">
        <ele>1146</ele>
        <time>2023-07-07T08:53:00Z</time>
      </trkpt>
      <trkpt lat="44.38145" lon="6.6481">
        <ele>1146.6</ele>
        <time>2023-07-07T08:53:09Z</time>
      </trkpt>
      <trkpt lat="44.38134" lon="6.64813">
        <ele>1147.3</ele>
        <time>2023-07-07T08:53:13Z</time>
      </trkpt>
      <trkpt lat="44.38124" lon="6.64816">
        <ele>1148.1</ele>
        <time>2023-07-07T08:53:17Z</time>
      </trkpt>
      <trkpt lat="44.38115" lon="6.64817">
        <ele>1148.7</ele>
        <time>2023-07-07T08:53:21Z</time>
      </trkpt>
      <trkpt lat="44.38105" lon="6.64821">
        <ele>1149.2</ele>
        <time>2023-07-07T08:53:25Z</time>
      </trkpt>
      <trkpt lat="44.38095" lon="6.64825">
        <ele>1149.6</ele>
        <time>2023-07-07T08:53:29Z</time>
      </trkpt>
      <trkpt lat="44.38083" lon="6.64829">
        <ele>1150</ele>
        <time>2023-07-07T08:53:33Z</time>
      </trkpt>
      <trkpt lat="44.38073" lon="6.64834">
        <ele>1150.8</ele>
        <time>2023-07-07T08:53:37Z</time>
      </trkpt>
      <trkpt lat="44.38063" lon="6.64837">
        <ele>1151.5</ele>
        <time>2023-07-07T08:53:41Z</time>
      </trkpt>
      <trkpt lat="44.38053" lon="6.64839">
        <ele>1152.2</ele>
        <time>2023-07-07T08:53:45Z</time>
      </trkpt>
      <trkpt lat="44.38043" lon="6.6484">
        <ele>1152.9</ele>
        <time>2023-07-07T08:53:49Z</time>
      </trkpt>
      <trkpt lat="44.38034" lon="6.64841">
        <ele>1153.6</ele>
        <time>2023-07-07T08:53:53Z</time>
      </trkpt>
      <trkpt lat="44.38024" lon="6.64844">
        <ele>1154.2</ele>
        <time>2023-07-07T08:53:57Z</time>
      </trkpt>
      <trkpt lat="44.38015" lon="6.6485">
        <ele>1154.9</ele>
        <time>2023-07-07T08:54:01Z</time>
      </trkpt>
      <trkpt lat="44.38006" lon="6.64856">
        <ele>1155.6</ele>
        <time>2023-07-07T08:54:05Z</time>
      </trkpt>
      <trkpt lat="44.37998" lon="6.64862">
        <ele>1156.2</ele>
        <time>2023-07-07T08:54:09Z</time>
      </trkpt>
      <trkpt lat="44.37988" lon="6.64867">
        <ele>1157.1</ele>
        <time>2023-07-07T08:54:13Z</time>
      </trkpt>
      <trkpt lat="44.37977" lon="6.6487">
        <ele>1158</ele>
        <time>2023-07-07T08:54:17Z</time>
      </trkpt>
      <trkpt lat="44.37967" lon="6.64872">
        <ele>1158.9</ele>
        <time>2023-07-07T08:54:21Z</time>
      </trkpt>
      <trkpt lat="44.37958" lon="6.64874">
        <ele>1159.7</ele>
        <time>2023-07-07T08:54:25Z</time>
      </trkpt>
      <trkpt lat="44.37948" lon="6.64878">
        <ele>1160.7</ele>
        <time>2023-07-07T08:54:30Z</time>
      </trkpt>
      <trkpt lat="44.3794" lon="6.64885">
        <ele>1161.5</ele>
        <time>2023-07-07T08:54:34Z</time>
      </trkpt>
      <trkpt lat="44.37931" lon="6.64892">
        <ele>1162.5</ele>
        <time>2023-07-07T08:54:38Z</time>
      </trkpt>
      <trkpt lat="44.37924" lon="6.64902">
        <ele>1163.4</ele>
        <time>2023-07-07T08:54:43Z</time>
      </trkpt>
      <trkpt lat="44.37915" lon="6.64912">
        <ele>1164.2</ele>
        <time>2023-07-07T08:54:48Z</time>
      </trkpt>
      <trkpt lat="44.37906" lon="6.6492">
        <ele>1165.3</ele>
        <time>2023-07-07T08:54:53Z</time>
      </trkpt>
      <trkpt lat="44.37899" lon="6.64928">
        <ele>1166.5</ele>
        <time>2023-07-07T08:54:57Z</time>
      </trkpt>
      <trkpt lat="44.37892" lon="6.64937">
        <ele>1167.5</ele>
        <time>2023-07-07T08:55:01Z</time>
      </trkpt>
      <trkpt lat="44.37884" lon="6.64945">
        <ele>1168.4</ele>
        <time>2023-07-07T08:55:05Z</time>
      </trkpt>
      <trkpt lat="44.37877" lon="6.64957">
        <ele>1169.8</ele>
        <time>2023-07-07T08:55:10Z</time>
      </trkpt>
      <trkpt lat="44.37872" lon="6.64971">
        <ele>1170.9</ele>
        <time>2023-07-07T08:55:15Z</time>
      </trkpt>
      <trkpt lat="44.3787" lon="6.64983">
        <ele>1172.3</ele>
        <time>2023-07-07T08:55:20Z</time>
      </trkpt>
      <trkpt lat="44.37863" lon="6.64992">
        <ele>1173.2</ele>
        <time>2023-07-07T08:55:42Z</time>
      </trkpt>
      <trkpt lat="44.37854" lon="6.64992">
        <ele>1173.3</ele>
        <time>2023-07-07T08:55:48Z</time>
      </trkpt>
      <trkpt lat="44.37844" lon="6.64998">
        <ele>1173.9</ele>
        <time>2023-07-07T08:55:54Z</time>
      </trkpt>
      <trkpt lat="44.37834" lon="6.64999">
        <ele>1174</ele>
        <time>2023-07-07T08:56:00Z</time>
      </trkpt>
      <trkpt lat="44.37825" lon="6.65006">
        <ele>1175.3</ele>
        <time>2023-07-07T08:56:06Z</time>
      </trkpt>
      <trkpt lat="44.37819" lon="6.65016">
        <ele>1176.4</ele>
        <time>2023-07-07T08:56:12Z</time>
      </trkpt>
      <trkpt lat="44.37812" lon="6.65025">
        <ele>1176.9</ele>
        <time>2023-07-07T08:56:17Z</time>
      </trkpt>
      <trkpt lat="44.37803" lon="6.65034">
        <ele>1178.1</ele>
        <time>2023-07-07T08:56:23Z</time>
      </trkpt>
      <trkpt lat="44.37794" lon="6.65039">
        <ele>1179.6</ele>
        <time>2023-07-07T08:56:28Z</time>
      </trkpt>
      <trkpt lat="44.37784" lon="6.65043">
        <ele>1180.6</ele>
        <time>2023-07-07T08:56:33Z</time>
      </trkpt>
      <trkpt lat="44.37775" lon="6.65046">
        <ele>1181.6</ele>
        <time>2023-07-07T08:56:38Z</time>
      </trkpt>
      <trkpt lat="44.37766" lon="6.6505">
        <ele>1182.9</ele>
        <time>2023-07-07T08:56:43Z</time>
      </trkpt>
      <trkpt lat="44.37756" lon="6.65053">
        <ele>1184.3</ele>
        <time>2023-07-07T08:56:49Z</time>
      </trkpt>
      <trkpt lat="44.37746" lon="6.6506">
        <ele>1185.8</ele>
        <time>2023-07-07T08:56:54Z</time>
      </trkpt>
      <trkpt lat="44.37737" lon="6.65066">
        <ele>1187.2</ele>
        <time>2023-07-07T08:56:59Z</time>
      </trkpt>
      <trkpt lat="44.37728" lon="6.65076">
        <ele>1188</ele>
        <time>2023-07-07T08:57:04Z</time>
      </trkpt>
      <trkpt lat="44.37719" lon="6.65084">
        <ele>1188.5</ele>
        <time>2023-07-07T08:57:09Z</time>
      </trkpt>
      <trkpt lat="44.37711" lon="6.65091">
        <ele>1189.4</ele>
        <time>2023-07-07T08:57:14Z</time>
      </trkpt>
      <trkpt lat="44.37701" lon="6.65095">
        <ele>1190.4</ele>
        <time>2023-07-07T08:57:20Z</time>
      </trkpt>
      <trkpt lat="44.37696" lon="6.65107">
        <ele>1190.2</ele>
        <time>2023-07-07T08:57:25Z</time>
      </trkpt>
      <trkpt lat="44.37693" lon="6.65119">
        <ele>1190.5</ele>
        <time>2023-07-07T08:57:29Z</time>
      </trkpt>
      <trkpt lat="44.3769" lon="6.65133">
        <ele>1191</ele>
        <time>2023-07-07T08:57:34Z</time>
      </trkpt>
      <trkpt lat="44.37684" lon="6.65145">
        <ele>1192.1</ele>
        <time>2023-07-07T08:57:40Z</time>
      </trkpt>
      <trkpt lat="44.37675" lon="6.65152">
        <ele>1192.9</ele>
        <time>2023-07-07T08:57:46Z</time>
      </trkpt>
      <trkpt lat="44.37665" lon="6.65157">
        <ele>1193.5</ele>
        <time>2023-07-07T08:57:52Z</time>
      </trkpt>
      <trkpt lat="44.37655" lon="6.65162">
        <ele>1194.6</ele>
        <time>2023-07-07T08:57:58Z</time>
      </trkpt>
      <trkpt lat="44.37646" lon="6.65169">
        <ele>1195.9</ele>
        <time>2023-07-07T08:58:04Z</time>
      </trkpt>
      <trkpt lat="44.37638" lon="6.65177">
        <ele>1197.6</ele>
        <time>2023-07-07T08:58:11Z</time>
      </trkpt>
      <trkpt lat="44.37631" lon="6.65185">
        <ele>1199.2</ele>
        <time>2023-07-07T08:58:17Z</time>
      </trkpt>
      <trkpt lat="44.37621" lon="6.65186">
        <ele>1199.9</ele>
        <time>2023-07-07T08:58:23Z</time>
      </trkpt>
      <trkpt lat="44.37611" lon="6.65183">
        <ele>1200.2</ele>
        <time>2023-07-07T08:58:29Z</time>
      </trkpt>
      <trkpt lat="44.37602" lon="6.65181">
        <ele>1201.2</ele>
        <time>2023-07-07T08:58:35Z</time>
      </trkpt>
      <trkpt lat="44.37592" lon="6.65183">
        <ele>1202.4</ele>
        <time>2023-07-07T08:58:41Z</time>
      </trkpt>
      <trkpt lat="44.37581" lon="6.65182">
        <ele>1203.7</ele>
        <time>2023-07-07T08:58:46Z</time>
      </trkpt>
      <trkpt lat="44.37571" lon="6.65184">
        <ele>1204.8</ele>
        <time>2023-07-07T08:58:52Z</time>
      </trkpt>
      <trkpt lat="44.37561" lon="6.65187">
        <ele>1205.5</ele>
        <time>2023-07-07T08:58:59Z</time>
      </trkpt>
      <trkpt lat="44.37552" lon="6.65192">
        <ele>1205.7</ele>
        <time>2023-07-07T08:59:05Z</time>
      </trkpt>
      <trkpt lat="44.37544" lon="6.65199">
        <ele>1206.8</ele>
        <time>2023-07-07T08:59:11Z</time>
      </trkpt>
      <trkpt lat="44.37536" lon="6.65206">
        <ele>1208.1</ele>
        <time>2023-07-07T08:59:18Z</time>
      </trkpt>
      <trkpt lat="44.37527" lon="6.65215">
        <ele>1209.1</ele>
        <time>2023-07-07T08:59:25Z</time>
      </trkpt>
      <trkpt lat="44.3752" lon="6.65225">
        <ele>1210.6</ele>
        <time>2023-07-07T08:59:31Z</time>
      </trkpt>
      <trkpt lat="44.37513" lon="6.65235">
        <ele>1212.1</ele>
        <time>2023-07-07T08:59:37Z</time>
      </trkpt>
      <trkpt lat="44.37506" lon="6.65244">
        <ele>1213.2</ele>
        <time>2023-07-07T08:59:43Z</time>
      </trkpt>
      <trkpt lat="44.37498" lon="6.65252">
        <ele>1214.5</ele>
        <time>2023-07-07T08:59:50Z</time>
      </trkpt>
      <trkpt lat="44.37488" lon="6.65256">
        <ele>1216.4</ele>
        <time>2023-07-07T08:59:56Z</time>
      </trkpt>
      <trkpt lat="44.37479" lon="6.65259">
        <ele>1217.9</ele>
        <time>2023-07-07T09:00:01Z</time>
      </trkpt>
      <trkpt lat="44.37469" lon="6.65262">
        <ele>1219.6</ele>
        <time>2023-07-07T09:00:07Z</time>
      </trkpt>
      <trkpt lat="44.37459" lon="6.65265">
        <ele>1221.2</ele>
        <time>2023-07-07T09:00:13Z</time>
      </trkpt>
      <trkpt lat="44.37451" lon="6.6527">
        <ele>1222.6</ele>
        <time>2023-07-07T09:00:19Z</time>
      </trkpt>
      <trkpt lat="44.37443" lon="6.65279">
        <ele>1223.3</ele>
        <time>2023-07-07T09:00:24Z</time>
      </trkpt>
      <trkpt lat="44.37437" lon="6.65289">
        <ele>1224.4</ele>
        <time>2023-07-07T09:00:29Z</time>
      </trkpt>
      <trkpt lat="44.3743" lon="6.65299">
        <ele>1225.4</ele>
        <time>2023-07-07T09:00:35Z</time>
      </trkpt>
      <trkpt lat="44.37422" lon="6.65306">
        <ele>1226.2</ele>
        <time>2023-07-07T09:00:41Z</time>
      </trkpt>
      <trkpt lat="44.37413" lon="6.65312">
        <ele>1227.9</ele>
        <time>2023-07-07T09:00:48Z</time>
      </trkpt>
      <trkpt lat="44.37408" lon="6.65324">
        <ele>1228.6</ele>
        <time>2023-07-07T09:01:02Z</time>
      </trkpt>
      <trkpt lat="44.37398" lon="6.65324">
        <ele>1229.7</ele>
        <time>2023-07-07T09:04:00Z</time>
      </trkpt>
      <trkpt lat="44.37389" lon="6.6533">
        <ele>1230.2</ele>
        <time>2023-07-07T09:04:06Z</time>
      </trkpt>
      <trkpt lat="44.3738" lon="6.65337">
        <ele>1231.6</ele>
        <time>2023-07-07T09:04:12Z</time>
      </trkpt>
      <trkpt lat="44.37373" lon="6.65345">
        <ele>1232.6</ele>
        <time>2023-07-07T09:04:18Z</time>
      </trkpt>
      <trkpt lat="44.37366" lon="6.65356">
        <ele>1232.9</ele>
        <time>2023-07-07T09:04:25Z</time>
      </trkpt>
      <trkpt lat="44.37358" lon="6.65364">
        <ele>1233.6</ele>
        <time>2023-07-07T09:04:32Z</time>
      </trkpt>
      <trkpt lat="44.37349" lon="6.6537">
        <ele>1234.8</ele>
        <time>2023-07-07T09:04:39Z</time>
      </trkpt>
      <trkpt lat="44.37341" lon="6.65376">
        <ele>1235.7</ele>
        <time>2023-07-07T09:04:46Z</time>
      </trkpt>
      <trkpt lat="44.37332" lon="6.65384">
        <ele>1236.3</ele>
        <time>2023-07-07T09:04:53Z</time>
      </trkpt>
      <trkpt lat="44.37324" lon="6.6539">
        <ele>1237.5</ele>
        <time>2023-07-07T09:04:59Z</time>
      </trkpt>
      <trkpt lat="44.37315" lon="6.65396">
        <ele>1238.9</ele>
        <time>2023-07-07T09:05:05Z</time>
      </trkpt>
      <trkpt lat="44.37305" lon="6.65398">
        <ele>1240.1</ele>
        <time>2023-07-07T09:05:12Z</time>
      </trkpt>
      <trkpt lat="44.37295" lon="6.65399">
        <ele>1241.2</ele>
        <time>2023-07-07T09:05:18Z</time>
      </trkpt>
      <trkpt lat="44.37286" lon="6.65401">
        <ele>1242.2</ele>
        <time>2023-07-07T09:05:24Z</time>
      </trkpt>
      <trkpt lat="44.37277" lon="6.65407">
        <ele>1242.8</ele>
        <time>2023-07-07T09:05:31Z</time>
      </trkpt>
      <trkpt lat="44.37269" lon="6.65415">
        <ele>1243</ele>
        <time>2023-07-07T09:05:38Z</time>
      </trkpt>
      <trkpt lat="44.37263" lon="6.65424">
        <ele>1244.4</ele>
        <time>2023-07-07T09:05:44Z</time>
      </trkpt>
      <trkpt lat="44.37254" lon="6.65432">
        <ele>1245.8</ele>
        <time>2023-07-07T09:05:51Z</time>
      </trkpt>
      <trkpt lat="44.37246" lon="6.65439">
        <ele>1246.9</ele>
        <time>2023-07-07T09:05:58Z</time>
      </trkpt>
      <trkpt lat="44.37237" lon="6.65442">
        <ele>1247.4</ele>
        <time>2023-07-07T09:06:04Z</time>
      </trkpt>
      <trkpt lat="44.37227" lon="6.65444">
        <ele>1247.8</ele>
        <time>2023-07-07T09:06:10Z</time>
      </trkpt>
      <trkpt lat="44.37221" lon="6.65455">
        <ele>1249.6</ele>
        <time>2023-07-07T09:06:17Z</time>
      </trkpt>
      <trkpt lat="44.37224" lon="6.65467">
        <ele>1251.3</ele>
        <time>2023-07-07T09:06:23Z</time>
      </trkpt>
      <trkpt lat="44.37231" lon="6.65475">
        <ele>1252.7</ele>
        <time>2023-07-07T09:06:27Z</time>
      </trkpt>
      <trkpt lat="44.3724" lon="6.6548">
        <ele>1254</ele>
        <time>2023-07-07T09:06:33Z</time>
      </trkpt>
      <trkpt lat="44.3725" lon="6.65479">
        <ele>1253.8</ele>
        <time>2023-07-07T09:06:39Z</time>
      </trkpt>
      <trkpt lat="44.37259" lon="6.65474">
        <ele>1252.4</ele>
        <time>2023-07-07T09:06:44Z</time>
      </trkpt>
      <trkpt lat="44.37267" lon="6.65467">
        <ele>1250.9</ele>
        <time>2023-07-07T09:06:48Z</time>
      </trkpt>
      <trkpt lat="44.37276" lon="6.65461">
        <ele>1249.5</ele>
        <time>2023-07-07T09:06:53Z</time>
      </trkpt>
      <trkpt lat="44.37285" lon="6.6546">
        <ele>1249.2</ele>
        <time>2023-07-07T09:07:01Z</time>
      </trkpt>
      <trkpt lat="44.37296" lon="6.65466">
        <ele>1250.5</ele>
        <time>2023-07-07T09:07:13Z</time>
      </trkpt>
      <trkpt lat="44.37304" lon="6.65474">
        <ele>1252.4</ele>
        <time>2023-07-07T09:07:17Z</time>
      </trkpt>
      <trkpt lat="44.37311" lon="6.65484">
        <ele>1254.8</ele>
        <time>2023-07-07T09:07:22Z</time>
      </trkpt>
      <trkpt lat="44.37321" lon="6.6549">
        <ele>1256.2</ele>
        <time>2023-07-07T09:07:27Z</time>
      </trkpt>
      <trkpt lat="44.37332" lon="6.65491">
        <ele>1256.4</ele>
        <time>2023-07-07T09:07:31Z</time>
      </trkpt>
      <trkpt lat="44.37342" lon="6.6549">
        <ele>1256.1</ele>
        <time>2023-07-07T09:07:35Z</time>
      </trkpt>
      <trkpt lat="44.37351" lon="6.65488">
        <ele>1255.7</ele>
        <time>2023-07-07T09:07:40Z</time>
      </trkpt>
      <trkpt lat="44.37362" lon="6.6549">
        <ele>1256.1</ele>
        <time>2023-07-07T09:07:46Z</time>
      </trkpt>
      <trkpt lat="44.37371" lon="6.65493">
        <ele>1257.4</ele>
        <time>2023-07-07T09:07:50Z</time>
      </trkpt>
      <trkpt lat="44.37381" lon="6.65497">
        <ele>1258.9</ele>
        <time>2023-07-07T09:07:55Z</time>
      </trkpt>
      <trkpt lat="44.37391" lon="6.65495">
        <ele>1258.9</ele>
        <time>2023-07-07T09:08:00Z</time>
      </trkpt>
      <trkpt lat="44.374" lon="6.65489">
        <ele>1257.7</ele>
        <time>2023-07-07T09:08:05Z</time>
      </trkpt>
      <trkpt lat="44.3741" lon="6.65487">
        <ele>1257.6</ele>
        <time>2023-07-07T09:08:10Z</time>
      </trkpt>
      <trkpt lat="44.3742" lon="6.65489">
        <ele>1258.3</ele>
        <time>2023-07-07T09:08:15Z</time>
      </trkpt>
      <trkpt lat="44.37429" lon="6.65494">
        <ele>1259.6</ele>
        <time>2023-07-07T09:08:20Z</time>
      </trkpt>
      <trkpt lat="44.37438" lon="6.65497">
        <ele>1260.4</ele>
        <time>2023-07-07T09:08:24Z</time>
      </trkpt>
      <trkpt lat="44.37449" lon="6.65499">
        <ele>1260.8</ele>
        <time>2023-07-07T09:08:29Z</time>
      </trkpt>
      <trkpt lat="44.37459" lon="6.65503">
        <ele>1261.9</ele>
        <time>2023-07-07T09:08:33Z</time>
      </trkpt>
      <trkpt lat="44.37469" lon="6.65509">
        <ele>1263.6</ele>
        <time>2023-07-07T09:08:37Z</time>
      </trkpt>
      <trkpt lat="44.37478" lon="6.65514">
        <ele>1264.9</ele>
        <time>2023-07-07T09:08:40Z</time>
      </trkpt>
      <trkpt lat="44.37488" lon="6.65516">
        <ele>1265</ele>
        <time>2023-07-07T09:08:43Z</time>
      </trkpt>
      <trkpt lat="44.37499" lon="6.6552">
        <ele>1265.8</ele>
        <time>2023-07-07T09:08:47Z</time>
      </trkpt>
      <trkpt lat="44.37509" lon="6.65522">
        <ele>1266.1</ele>
        <time>2023-07-07T09:08:50Z</time>
      </trkpt>
      <trkpt lat="44.3752" lon="6.65526">
        <ele>1266.8</ele>
        <time>2023-07-07T09:08:54Z</time>
      </trkpt>
      <trkpt lat="44.3753" lon="6.65538">
        <ele>1269.4</ele>
        <time>2023-07-07T09:08:57Z</time>
      </trkpt>
      <trkpt lat="44.37538" lon="6.65543">
        <ele>1270.5</ele>
        <time>2023-07-07T09:09:00Z</time>
      </trkpt>
      <trkpt lat="44.37547" lon="6.65548">
        <ele>1271.5</ele>
        <time>2023-07-07T09:09:03Z</time>
      </trkpt>
      <trkpt lat="44.37556" lon="6.65548">
        <ele>1271.1</ele>
        <time>2023-07-07T09:09:07Z</time>
      </trkpt>
      <trkpt lat="44.37566" lon="6.65545">
        <ele>1270.2</ele>
        <time>2023-07-07T09:09:11Z</time>
      </trkpt>
      <trkpt lat="44.37576" lon="6.65539">
        <ele>1269.1</ele>
        <time>2023-07-07T09:09:15Z</time>
      </trkpt>
      <trkpt lat="44.37585" lon="6.65528">
        <ele>1267.1</ele>
        <time>2023-07-07T09:09:19Z</time>
      </trkpt>
      <trkpt lat="44.37593" lon="6.65519">
        <ele>1266</ele>
        <time>2023-07-07T09:09:23Z</time>
      </trkpt>
      <trkpt lat="44.37602" lon="6.6551">
        <ele>1265.4</ele>
        <time>2023-07-07T09:09:27Z</time>
      </trkpt>
      <trkpt lat="44.37611" lon="6.655">
        <ele>1264.9</ele>
        <time>2023-07-07T09:09:31Z</time>
      </trkpt>
      <trkpt lat="44.37621" lon="6.65495">
        <ele>1265.6</ele>
        <time>2023-07-07T09:09:35Z</time>
      </trkpt>
      <trkpt lat="44.37632" lon="6.6549">
        <ele>1266.7</ele>
        <time>2023-07-07T09:09:39Z</time>
      </trkpt>
      <trkpt lat="44.37642" lon="6.65486">
        <ele>1267.3</ele>
        <time>2023-07-07T09:09:43Z</time>
      </trkpt>
      <trkpt lat="44.3765" lon="6.6548">
        <ele>1267.4</ele>
        <time>2023-07-07T09:09:47Z</time>
      </trkpt>
      <trkpt lat="44.3766" lon="6.65477">
        <ele>1268.2</ele>
        <time>2023-07-07T09:09:53Z</time>
      </trkpt>
      <trkpt lat="44.37669" lon="6.65477">
        <ele>1269.3</ele>
        <time>2023-07-07T09:09:58Z</time>
      </trkpt>
      <trkpt lat="44.37679" lon="6.65482">
        <ele>1271</ele>
        <time>2023-07-07T09:10:03Z</time>
      </trkpt>
      <trkpt lat="44.37687" lon="6.65491">
        <ele>1272.7</ele>
        <time>2023-07-07T09:10:09Z</time>
      </trkpt>
      <trkpt lat="44.37688" lon="6.65504">
        <ele>1274.4</ele>
        <time>2023-07-07T09:10:16Z</time>
      </trkpt>
      <trkpt lat="44.37685" lon="6.65517">
        <ele>1275.5</ele>
        <time>2023-07-07T09:10:22Z</time>
      </trkpt>
      <trkpt lat="44.37685" lon="6.65531">
        <ele>1276.5</ele>
        <time>2023-07-07T09:11:17Z</time>
      </trkpt>
      <trkpt lat="44.37683" lon="6.65545">
        <ele>1277.3</ele>
        <time>2023-07-07T09:11:22Z</time>
      </trkpt>
      <trkpt lat="44.37682" lon="6.65558">
        <ele>1278.1</ele>
        <time>2023-07-07T09:11:27Z</time>
      </trkpt>
      <trkpt lat="44.3768" lon="6.65571">
        <ele>1279.2</ele>
        <time>2023-07-07T09:11:33Z</time>
      </trkpt>
      <trkpt lat="44.37678" lon="6.65584">
        <ele>1280.2</ele>
        <time>2023-07-07T09:11:38Z</time>
      </trkpt>
      <trkpt lat="44.37676" lon="6.65598">
        <ele>1281.4</ele>
        <time>2023-07-07T09:11:44Z</time>
      </trkpt>
      <trkpt lat="44.37675" lon="6.65612">
        <ele>1282.5</ele>
        <time>2023-07-07T09:11:50Z</time>
      </trkpt>
      <trkpt lat="44.37674" lon="6.65627">
        <ele>1284.1</ele>
        <time>2023-07-07T09:11:56Z</time>
      </trkpt>
      <trkpt lat="44.37674" lon="6.65641">
        <ele>1285.6</ele>
        <time>2023-07-07T09:12:03Z</time>
      </trkpt>
      <trkpt lat="44.37673" lon="6.65655">
        <ele>1286.7</ele>
        <time>2023-07-07T09:12:09Z</time>
      </trkpt>
      <trkpt lat="44.37672" lon="6.65668">
        <ele>1287.7</ele>
        <time>2023-07-07T09:12:13Z</time>
      </trkpt>
      <trkpt lat="44.37672" lon="6.65681">
        <ele>1288.7</ele>
        <time>2023-07-07T09:12:17Z</time>
      </trkpt>
      <trkpt lat="44.3767" lon="6.65694">
        <ele>1289.7</ele>
        <time>2023-07-07T09:12:22Z</time>
      </trkpt>
      <trkpt lat="44.37669" lon="6.65709">
        <ele>1290.9</ele>
        <time>2023-07-07T09:12:28Z</time>
      </trkpt>
      <trkpt lat="44.37666" lon="6.65723">
        <ele>1292.1</ele>
        <time>2023-07-07T09:12:33Z</time>
      </trkpt>
      <trkpt lat="44.37665" lon="6.65737">
        <ele>1292.7</ele>
        <time>2023-07-07T09:12:39Z</time>
      </trkpt>
      <trkpt lat="44.37664" lon="6.6575">
        <ele>1293.3</ele>
        <time>2023-07-07T09:12:45Z</time>
      </trkpt>
      <trkpt lat="44.37662" lon="6.65764">
        <ele>1294.5</ele>
        <time>2023-07-07T09:12:52Z</time>
      </trkpt>
      <trkpt lat="44.3766" lon="6.65778">
        <ele>1295.7</ele>
        <time>2023-07-07T09:12:58Z</time>
      </trkpt>
      <trkpt lat="44.37659" lon="6.65793">
        <ele>1296.1</ele>
        <time>2023-07-07T09:13:05Z</time>
      </trkpt>
      <trkpt lat="44.37659" lon="6.65806">
        <ele>1296.4</ele>
        <time>2023-07-07T09:13:11Z</time>
      </trkpt>
      <trkpt lat="44.37657" lon="6.65819">
        <ele>1297.2</ele>
        <time>2023-07-07T09:13:18Z</time>
      </trkpt>
      <trkpt lat="44.37655" lon="6.65833">
        <ele>1298.2</ele>
        <time>2023-07-07T09:13:25Z</time>
      </trkpt>
      <trkpt lat="44.37653" lon="6.65846">
        <ele>1298.9</ele>
        <time>2023-07-07T09:13:31Z</time>
      </trkpt>
      <trkpt lat="44.37649" lon="6.65859">
        <ele>1300.2</ele>
        <time>2023-07-07T09:13:38Z</time>
      </trkpt>
      <trkpt lat="44.37646" lon="6.65873">
        <ele>1301.5</ele>
        <time>2023-07-07T09:13:43Z</time>
      </trkpt>
      <trkpt lat="44.37644" lon="6.65885">
        <ele>1302.7</ele>
        <time>2023-07-07T09:13:48Z</time>
      </trkpt>
      <trkpt lat="44.37642" lon="6.659">
        <ele>1303.8</ele>
        <time>2023-07-07T09:13:54Z</time>
      </trkpt>
      <trkpt lat="44.37639" lon="6.65914">
        <ele>1304.9</ele>
        <time>2023-07-07T09:13:59Z</time>
      </trkpt>
      <trkpt lat="44.37637" lon="6.65927">
        <ele>1305.8</ele>
        <time>2023-07-07T09:14:04Z</time>
      </trkpt>
      <trkpt lat="44.37634" lon="6.65941">
        <ele>1307</ele>
        <time>2023-07-07T09:14:10Z</time>
      </trkpt>
      <trkpt lat="44.37632" lon="6.65955">
        <ele>1308.1</ele>
        <time>2023-07-07T09:14:17Z</time>
      </trkpt>
      <trkpt lat="44.37628" lon="6.65968">
        <ele>1309.2</ele>
        <time>2023-07-07T09:14:23Z</time>
      </trkpt>
      <trkpt lat="44.37625" lon="6.6598">
        <ele>1310.3</ele>
        <time>2023-07-07T09:14:29Z</time>
      </trkpt>
      <trkpt lat="44.37623" lon="6.65994">
        <ele>1311.2</ele>
        <time>2023-07-07T09:14:36Z</time>
      </trkpt>
      <trkpt lat="44.37621" lon="6.66008">
        <ele>1312.5</ele>
        <time>2023-07-07T09:14:42Z</time>
      </trkpt>
      <trkpt lat="44.37619" lon="6.6602">
        <ele>1313.8</ele>
        <time>2023-07-07T09:14:47Z</time>
      </trkpt>
      <trkpt lat="44.37615" lon="6.66033">
        <ele>1315.3</ele>
        <time>2023-07-07T09:14:52Z</time>
      </trkpt>
      <trkpt lat="44.37612" lon="6.66044">
        <ele>1316.4</ele>
        <time>2023-07-07T09:14:58Z</time>
      </trkpt>
      <trkpt lat="44.37609" lon="6.66058">
        <ele>1317.6</ele>
        <time>2023-07-07T09:15:05Z</time>
      </trkpt>
      <trkpt lat="44.37609" lon="6.66072">
        <ele>1318.6</ele>
        <time>2023-07-07T09:15:12Z</time>
      </trkpt>
      <trkpt lat="44.37606" lon="6.66086">
        <ele>1319.9</ele>
        <time>2023-07-07T09:15:19Z</time>
      </trkpt>
      <trkpt lat="44.37606" lon="6.66099">
        <ele>1320.9</ele>
        <time>2023-07-07T09:15:26Z</time>
      </trkpt>
      <trkpt lat="44.37605" lon="6.66112">
        <ele>1322</ele>
        <time>2023-07-07T09:15:33Z</time>
      </trkpt>
      <trkpt lat="44.37601" lon="6.66124">
        <ele>1323.3</ele>
        <time>2023-07-07T09:15:41Z</time>
      </trkpt>
      <trkpt lat="44.37598" lon="6.66138">
        <ele>1324.8</ele>
        <time>2023-07-07T09:15:47Z</time>
      </trkpt>
      <trkpt lat="44.37594" lon="6.6615">
        <ele>1326.4</ele>
        <time>2023-07-07T09:15:55Z</time>
      </trkpt>
      <trkpt lat="44.37592" lon="6.66163">
        <ele>1327.6</ele>
        <time>2023-07-07T09:16:05Z</time>
      </trkpt>
      <trkpt lat="44.37591" lon="6.66177">
        <ele>1328.3</ele>
        <time>2023-07-07T09:16:13Z</time>
      </trkpt>
      <trkpt lat="44.3759" lon="6.66189">
        <ele>1328.4</ele>
        <time>2023-07-07T09:16:19Z</time>
      </trkpt>
      <trkpt lat="44.37588" lon="6.66202">
        <ele>1328.7</ele>
        <time>2023-07-07T09:16:24Z</time>
      </trkpt>
      <trkpt lat="44.37585" lon="6.66216">
        <ele>1328.8</ele>
        <time>2023-07-07T09:16:30Z</time>
      </trkpt>
      <trkpt lat="44.37585" lon="6.6623">
        <ele>1328.3</ele>
        <time>2023-07-07T09:16:37Z</time>
      </trkpt>
      <trkpt lat="44.37584" lon="6.66245">
        <ele>1328</ele>
        <time>2023-07-07T09:16:43Z</time>
      </trkpt>
      <trkpt lat="44.3758" lon="6.66256">
        <ele>1328.7</ele>
        <time>2023-07-07T09:16:48Z</time>
      </trkpt>
      <trkpt lat="44.37574" lon="6.66267">
        <ele>1329.8</ele>
        <time>2023-07-07T09:16:54Z</time>
      </trkpt>
      <trkpt lat="44.37567" lon="6.66276">
        <ele>1331</ele>
        <time>2023-07-07T09:16:59Z</time>
      </trkpt>
      <trkpt lat="44.3756" lon="6.66284">
        <ele>1332.2</ele>
        <time>2023-07-07T09:17:03Z</time>
      </trkpt>
      <trkpt lat="44.37552" lon="6.66295">
        <ele>1333.4</ele>
        <time>2023-07-07T09:17:07Z</time>
      </trkpt>
      <trkpt lat="44.37547" lon="6.66306">
        <ele>1334</ele>
        <time>2023-07-07T09:17:10Z</time>
      </trkpt>
      <trkpt lat="44.37539" lon="6.66318">
        <ele>1335.1</ele>
        <time>2023-07-07T09:17:14Z</time>
      </trkpt>
      <trkpt lat="44.37532" lon="6.66327">
        <ele>1336.2</ele>
        <time>2023-07-07T09:17:17Z</time>
      </trkpt>
      <trkpt lat="44.37526" lon="6.6634">
        <ele>1337.3</ele>
        <time>2023-07-07T09:17:21Z</time>
      </trkpt>
      <trkpt lat="44.37521" lon="6.66352">
        <ele>1338</ele>
        <time>2023-07-07T09:17:25Z</time>
      </trkpt>
      <trkpt lat="44.37516" lon="6.66363">
        <ele>1338.8</ele>
        <time>2023-07-07T09:17:29Z</time>
      </trkpt>
      <trkpt lat="44.37511" lon="6.66375">
        <ele>1339.8</ele>
        <time>2023-07-07T09:17:33Z</time>
      </trkpt>
      <trkpt lat="44.37506" lon="6.66387">
        <ele>1341</ele>
        <time>2023-07-07T09:17:37Z</time>
      </trkpt>
      <trkpt lat="44.37501" lon="6.66398">
        <ele>1342.2</ele>
        <time>2023-07-07T09:17:42Z</time>
      </trkpt>
      <trkpt lat="44.37495" lon="6.6641">
        <ele>1343.6</ele>
        <time>2023-07-07T09:17:48Z</time>
      </trkpt>
      <trkpt lat="44.3749" lon="6.66421">
        <ele>1344.6</ele>
        <time>2023-07-07T09:17:53Z</time>
      </trkpt>
      <trkpt lat="44.37483" lon="6.66432">
        <ele>1345.7</ele>
        <time>2023-07-07T09:17:58Z</time>
      </trkpt>
      <trkpt lat="44.37476" lon="6.66442">
        <ele>1346.6</ele>
        <time>2023-07-07T09:18:04Z</time>
      </trkpt>
      <trkpt lat="44.37469" lon="6.66449">
        <ele>1347.5</ele>
        <time>2023-07-07T09:18:09Z</time>
      </trkpt>
      <trkpt lat="44.37466" lon="6.66463">
        <ele>1348.4</ele>
        <time>2023-07-07T09:18:14Z</time>
      </trkpt>
      <trkpt lat="44.37474" lon="6.66471">
        <ele>1347.8</ele>
        <time>2023-07-07T09:18:21Z</time>
      </trkpt>
      <trkpt lat="44.37484" lon="6.66474">
        <ele>1347.3</ele>
        <time>2023-07-07T09:18:26Z</time>
      </trkpt>
      <trkpt lat="44.37495" lon="6.66476">
        <ele>1346.8</ele>
        <time>2023-07-07T09:18:32Z</time>
      </trkpt>
      <trkpt lat="44.37506" lon="6.66478">
        <ele>1346.4</ele>
        <time>2023-07-07T09:18:37Z</time>
      </trkpt>
      <trkpt lat="44.37516" lon="6.66474">
        <ele>1345.7</ele>
        <time>2023-07-07T09:18:42Z</time>
      </trkpt>
      <trkpt lat="44.37525" lon="6.66471">
        <ele>1344.9</ele>
        <time>2023-07-07T09:18:47Z</time>
      </trkpt>
      <trkpt lat="44.37535" lon="6.66468">
        <ele>1344.5</ele>
        <time>2023-07-07T09:18:52Z</time>
      </trkpt>
      <trkpt lat="44.37545" lon="6.66463">
        <ele>1343.8</ele>
        <time>2023-07-07T09:18:56Z</time>
      </trkpt>
      <trkpt lat="44.37556" lon="6.6646">
        <ele>1343.3</ele>
        <time>2023-07-07T09:19:00Z</time>
      </trkpt>
      <trkpt lat="44.37565" lon="6.66459">
        <ele>1343.5</ele>
        <time>2023-07-07T09:19:04Z</time>
      </trkpt>
      <trkpt lat="44.37576" lon="6.66458">
        <ele>1343.7</ele>
        <time>2023-07-07T09:19:09Z</time>
      </trkpt>
      <trkpt lat="44.37586" lon="6.66458">
        <ele>1344</ele>
        <time>2023-07-07T09:19:13Z</time>
      </trkpt>
      <trkpt lat="44.37596" lon="6.66459">
        <ele>1344.9</ele>
        <time>2023-07-07T09:19:16Z</time>
      </trkpt>
      <trkpt lat="44.37607" lon="6.66464">
        <ele>1346.6</ele>
        <time>2023-07-07T09:19:19Z</time>
      </trkpt>
      <trkpt lat="44.37615" lon="6.66467">
        <ele>1347.9</ele>
        <time>2023-07-07T09:19:21Z</time>
      </trkpt>
      <trkpt lat="44.37626" lon="6.66471">
        <ele>1349.2</ele>
        <time>2023-07-07T09:19:24Z</time>
      </trkpt>
      <trkpt lat="44.37635" lon="6.66471">
        <ele>1349.6</ele>
        <time>2023-07-07T09:19:27Z</time>
      </trkpt>
      <trkpt lat="44.37647" lon="6.66472">
        <ele>1350</ele>
        <time>2023-07-07T09:19:31Z</time>
      </trkpt>
      <trkpt lat="44.37657" lon="6.66471">
        <ele>1349.8</ele>
        <time>2023-07-07T09:19:35Z</time>
      </trkpt>
      <trkpt lat="44.37668" lon="6.66471">
        <ele>1349.7</ele>
        <time>2023-07-07T09:19:39Z</time>
      </trkpt>
      <trkpt lat="44.37679" lon="6.6647">
        <ele>1349.6</ele>
        <time>2023-07-07T09:19:43Z</time>
      </trkpt>
      <trkpt lat="44.3769" lon="6.66472">
        <ele>1349.9</ele>
        <time>2023-07-07T09:19:47Z</time>
      </trkpt>
      <trkpt lat="44.37698" lon="6.66476">
        <ele>1351</ele>
        <time>2023-07-07T09:19:50Z</time>
      </trkpt>
      <trkpt lat="44.37707" lon="6.66482">
        <ele>1352.1</ele>
        <time>2023-07-07T09:19:53Z</time>
      </trkpt>
      <trkpt lat="44.37718" lon="6.66486">
        <ele>1352.7</ele>
        <time>2023-07-07T09:19:57Z</time>
      </trkpt>
      <trkpt lat="44.37727" lon="6.66493">
        <ele>1353.9</ele>
        <time>2023-07-07T09:20:01Z</time>
      </trkpt>
      <trkpt lat="44.37736" lon="6.66499">
        <ele>1355.2</ele>
        <time>2023-07-07T09:20:05Z</time>
      </trkpt>
      <trkpt lat="44.37746" lon="6.66507">
        <ele>1356.9</ele>
        <time>2023-07-07T09:20:10Z</time>
      </trkpt>
      <trkpt lat="44.37756" lon="6.66513">
        <ele>1357.8</ele>
        <time>2023-07-07T09:20:14Z</time>
      </trkpt>
      <trkpt lat="44.37767" lon="6.66516">
        <ele>1357.4</ele>
        <time>2023-07-07T09:20:18Z</time>
      </trkpt>
      <trkpt lat="44.37778" lon="6.66519">
        <ele>1357</ele>
        <time>2023-07-07T09:20:22Z</time>
      </trkpt>
      <trkpt lat="44.37789" lon="6.66519">
        <ele>1356.4</ele>
        <time>2023-07-07T09:20:26Z</time>
      </trkpt>
      <trkpt lat="44.37801" lon="6.66521">
        <ele>1356.1</ele>
        <time>2023-07-07T09:20:30Z</time>
      </trkpt>
      <trkpt lat="44.3781" lon="6.66526">
        <ele>1356.1</ele>
        <time>2023-07-07T09:20:34Z</time>
      </trkpt>
      <trkpt lat="44.37818" lon="6.66536">
        <ele>1356.6</ele>
        <time>2023-07-07T09:20:39Z</time>
      </trkpt>
      <trkpt lat="44.37822" lon="6.66549">
        <ele>1357.9</ele>
        <time>2023-07-07T09:20:43Z</time>
      </trkpt>
      <trkpt lat="44.37825" lon="6.66563">
        <ele>1360</ele>
        <time>2023-07-07T09:20:47Z</time>
      </trkpt>
      <trkpt lat="44.37824" lon="6.66576">
        <ele>1362.6</ele>
        <time>2023-07-07T09:20:52Z</time>
      </trkpt>
      <trkpt lat="44.37823" lon="6.66589">
        <ele>1365.3</ele>
        <time>2023-07-07T09:20:59Z</time>
      </trkpt>
      <trkpt lat="44.37827" lon="6.66604">
        <ele>1367.2</ele>
        <time>2023-07-07T09:21:04Z</time>
      </trkpt>
      <trkpt lat="44.37833" lon="6.66617">
        <ele>1368.1</ele>
        <time>2023-07-07T09:21:08Z</time>
      </trkpt>
      <trkpt lat="44.37837" lon="6.6663">
        <ele>1369.3</ele>
        <time>2023-07-07T09:21:12Z</time>
      </trkpt>
      <trkpt lat="44.37841" lon="6.66643">
        <ele>1370.5</ele>
        <time>2023-07-07T09:21:16Z</time>
      </trkpt>
      <trkpt lat="44.37845" lon="6.66656">
        <ele>1371.5</ele>
        <time>2023-07-07T09:21:20Z</time>
      </trkpt>
      <trkpt lat="44.37848" lon="6.66669">
        <ele>1372.5</ele>
        <time>2023-07-07T09:21:25Z</time>
      </trkpt>
      <trkpt lat="44.37849" lon="6.66685">
        <ele>1374.2</ele>
        <time>2023-07-07T09:21:30Z</time>
      </trkpt>
      <trkpt lat="44.3785" lon="6.66699">
        <ele>1375.5</ele>
        <time>2023-07-07T09:21:35Z</time>
      </trkpt>
      <trkpt lat="44.37853" lon="6.66711">
        <ele>1376.3</ele>
        <time>2023-07-07T09:21:39Z</time>
      </trkpt>
      <trkpt lat="44.37857" lon="6.66727">
        <ele>1376.4</ele>
        <time>2023-07-07T09:21:43Z</time>
      </trkpt>
      <trkpt lat="44.37858" lon="6.66739">
        <ele>1377.4</ele>
        <time>2023-07-07T09:21:47Z</time>
      </trkpt>
      <trkpt lat="44.37859" lon="6.66754">
        <ele>1378.3</ele>
        <time>2023-07-07T09:21:51Z</time>
      </trkpt>
      <trkpt lat="44.37861" lon="6.66769">
        <ele>1378.6</ele>
        <time>2023-07-07T09:21:55Z</time>
      </trkpt>
      <trkpt lat="44.37862" lon="6.66784">
        <ele>1378.4</ele>
        <time>2023-07-07T09:21:59Z</time>
      </trkpt>
      <trkpt lat="44.37865" lon="6.66796">
        <ele>1377</ele>
        <time>2023-07-07T09:22:04Z</time>
      </trkpt>
      <trkpt lat="44.37867" lon="6.66809">
        <ele>1376.2</ele>
        <time>2023-07-07T09:22:08Z</time>
      </trkpt>
      <trkpt lat="44.37868" lon="6.66824">
        <ele>1374.7</ele>
        <time>2023-07-07T09:22:12Z</time>
      </trkpt>
      <trkpt lat="44.37867" lon="6.66838">
        <ele>1374</ele>
        <time>2023-07-07T09:22:16Z</time>
      </trkpt>
      <trkpt lat="44.37867" lon="6.66852">
        <ele>1372.5</ele>
        <time>2023-07-07T09:22:21Z</time>
      </trkpt>
      <trkpt lat="44.37863" lon="6.66867">
        <ele>1372.6</ele>
        <time>2023-07-07T09:22:25Z</time>
      </trkpt>
      <trkpt lat="44.37857" lon="6.66877">
        <ele>1373</ele>
        <time>2023-07-07T09:22:28Z</time>
      </trkpt>
      <trkpt lat="44.37849" lon="6.66887">
        <ele>1373.8</ele>
        <time>2023-07-07T09:22:32Z</time>
      </trkpt>
      <trkpt lat="44.3784" lon="6.66896">
        <ele>1374.4</ele>
        <time>2023-07-07T09:22:36Z</time>
      </trkpt>
      <trkpt lat="44.37832" lon="6.66903">
        <ele>1375.3</ele>
        <time>2023-07-07T09:22:40Z</time>
      </trkpt>
      <trkpt lat="44.37822" lon="6.66908">
        <ele>1376.5</ele>
        <time>2023-07-07T09:22:45Z</time>
      </trkpt>
      <trkpt lat="44.37813" lon="6.66915">
        <ele>1377</ele>
        <time>2023-07-07T09:22:50Z</time>
      </trkpt>
      <trkpt lat="44.37803" lon="6.6692">
        <ele>1377.9</ele>
        <time>2023-07-07T09:22:55Z</time>
      </trkpt>
      <trkpt lat="44.37794" lon="6.66922">
        <ele>1379.5</ele>
        <time>2023-07-07T09:23:00Z</time>
      </trkpt>
      <trkpt lat="44.37785" lon="6.66925">
        <ele>1381</ele>
        <time>2023-07-07T09:23:05Z</time>
      </trkpt>
      <trkpt lat="44.37776" lon="6.66935">
        <ele>1380.9</ele>
        <time>2023-07-07T09:23:09Z</time>
      </trkpt>
      <trkpt lat="44.37769" lon="6.66944">
        <ele>1380.8</ele>
        <time>2023-07-07T09:23:13Z</time>
      </trkpt>
      <trkpt lat="44.37761" lon="6.66952">
        <ele>1380.9</ele>
        <time>2023-07-07T09:23:17Z</time>
      </trkpt>
      <trkpt lat="44.37752" lon="6.66958">
        <ele>1381.5</ele>
        <time>2023-07-07T09:23:21Z</time>
      </trkpt>
      <trkpt lat="44.37743" lon="6.66967">
        <ele>1381.2</ele>
        <time>2023-07-07T09:23:26Z</time>
      </trkpt>
      <trkpt lat="44.37735" lon="6.66974">
        <ele>1381</ele>
        <time>2023-07-07T09:23:30Z</time>
      </trkpt>
      <trkpt lat="44.37725" lon="6.66978">
        <ele>1381.5</ele>
        <time>2023-07-07T09:23:34Z</time>
      </trkpt>
      <trkpt lat="44.37715" lon="6.66982">
        <ele>1382.1</ele>
        <time>2023-07-07T09:23:38Z</time>
      </trkpt>
      <trkpt lat="44.37706" lon="6.66986">
        <ele>1382.2</ele>
        <time>2023-07-07T09:23:42Z</time>
      </trkpt>
      <trkpt lat="44.37696" lon="6.66988">
        <ele>1383.3</ele>
        <time>2023-07-07T09:24:02Z</time>
      </trkpt>
      <trkpt lat="44.37687" lon="6.66994">
        <ele>1383.2</ele>
        <time>2023-07-07T09:25:53Z</time>
      </trkpt>
      <trkpt lat="44.37676" lon="6.66994">
        <ele>1385.1</ele>
        <time>2023-07-07T09:25:58Z</time>
      </trkpt>
      <trkpt lat="44.37666" lon="6.66997">
        <ele>1386.1</ele>
        <time>2023-07-07T09:26:03Z</time>
      </trkpt>
      <trkpt lat="44.37656" lon="6.67">
        <ele>1387.9</ele>
        <time>2023-07-07T09:26:08Z</time>
      </trkpt>
      <trkpt lat="44.37646" lon="6.67006">
        <ele>1388.6</ele>
        <time>2023-07-07T09:26:13Z</time>
      </trkpt>
      <trkpt lat="44.37639" lon="6.67014">
        <ele>1388.1</ele>
        <time>2023-07-07T09:26:17Z</time>
      </trkpt>
      <trkpt lat="44.37632" lon="6.67023">
        <ele>1387</ele>
        <time>2023-07-07T09:26:21Z</time>
      </trkpt>
      <trkpt lat="44.37625" lon="6.67033">
        <ele>1385.3</ele>
        <time>2023-07-07T09:26:25Z</time>
      </trkpt>
      <trkpt lat="44.37619" lon="6.67044">
        <ele>1383.1</ele>
        <time>2023-07-07T09:26:29Z</time>
      </trkpt>
      <trkpt lat="44.37611" lon="6.67054">
        <ele>1381.4</ele>
        <time>2023-07-07T09:26:33Z</time>
      </trkpt>
      <trkpt lat="44.37604" lon="6.67063">
        <ele>1380.1</ele>
        <time>2023-07-07T09:26:37Z</time>
      </trkpt>
      <trkpt lat="44.37597" lon="6.67072">
        <ele>1378.8</ele>
        <time>2023-07-07T09:26:41Z</time>
      </trkpt>
      <trkpt lat="44.37589" lon="6.67079">
        <ele>1378.1</ele>
        <time>2023-07-07T09:26:45Z</time>
      </trkpt>
      <trkpt lat="44.3758" lon="6.67081">
        <ele>1379.3</ele>
        <time>2023-07-07T09:26:49Z</time>
      </trkpt>
      <trkpt lat="44.3757" lon="6.6708">
        <ele>1381.3</ele>
        <time>2023-07-07T09:26:53Z</time>
      </trkpt>
      <trkpt lat="44.37561" lon="6.6708">
        <ele>1383.1</ele>
        <time>2023-07-07T09:26:57Z</time>
      </trkpt>
      <trkpt lat="44.37551" lon="6.6708">
        <ele>1384.4</ele>
        <time>2023-07-07T09:27:01Z</time>
      </trkpt>
      <trkpt lat="44.37541" lon="6.67083">
        <ele>1384.7</ele>
        <time>2023-07-07T09:27:04Z</time>
      </trkpt>
      <trkpt lat="44.3753" lon="6.67085">
        <ele>1385.4</ele>
        <time>2023-07-07T09:27:08Z</time>
      </trkpt>
      <trkpt lat="44.37518" lon="6.67086">
        <ele>1385.1</ele>
        <time>2023-07-07T09:27:12Z</time>
      </trkpt>
      <trkpt lat="44.37507" lon="6.67086">
        <ele>1385.4</ele>
        <time>2023-07-07T09:27:16Z</time>
      </trkpt>
      <trkpt lat="44.37497" lon="6.67084">
        <ele>1385.9</ele>
        <time>2023-07-07T09:27:19Z</time>
      </trkpt>
      <trkpt lat="44.37488" lon="6.67082">
        <ele>1386.7</ele>
        <time>2023-07-07T09:27:22Z</time>
      </trkpt>
      <trkpt lat="44.37478" lon="6.67082">
        <ele>1387.1</ele>
        <time>2023-07-07T09:27:25Z</time>
      </trkpt>
      <trkpt lat="44.37469" lon="6.6708">
        <ele>1388</ele>
        <time>2023-07-07T09:27:28Z</time>
      </trkpt>
      <trkpt lat="44.37459" lon="6.67077">
        <ele>1389.3</ele>
        <time>2023-07-07T09:27:31Z</time>
      </trkpt>
      <trkpt lat="44.3745" lon="6.67077">
        <ele>1389.9</ele>
        <time>2023-07-07T09:27:34Z</time>
      </trkpt>
      <trkpt lat="44.37438" lon="6.67077">
        <ele>1390.8</ele>
        <time>2023-07-07T09:27:38Z</time>
      </trkpt>
      <trkpt lat="44.37427" lon="6.67079">
        <ele>1391.7</ele>
        <time>2023-07-07T09:27:42Z</time>
      </trkpt>
      <trkpt lat="44.37418" lon="6.67081">
        <ele>1392.4</ele>
        <time>2023-07-07T09:27:45Z</time>
      </trkpt>
      <trkpt lat="44.37409" lon="6.67083">
        <ele>1393.2</ele>
        <time>2023-07-07T09:27:48Z</time>
      </trkpt>
      <trkpt lat="44.37397" lon="6.67085">
        <ele>1394.5</ele>
        <time>2023-07-07T09:27:52Z</time>
      </trkpt>
      <trkpt lat="44.37387" lon="6.67089">
        <ele>1395.6</ele>
        <time>2023-07-07T09:27:56Z</time>
      </trkpt>
      <trkpt lat="44.37378" lon="6.67095">
        <ele>1396.8</ele>
        <time>2023-07-07T09:28:00Z</time>
      </trkpt>
      <trkpt lat="44.37372" lon="6.67105">
        <ele>1396.9</ele>
        <time>2023-07-07T09:28:03Z</time>
      </trkpt>
      <trkpt lat="44.37367" lon="6.67117">
        <ele>1396.8</ele>
        <time>2023-07-07T09:28:06Z</time>
      </trkpt>
      <trkpt lat="44.37364" lon="6.67129">
        <ele>1396.4</ele>
        <time>2023-07-07T09:28:09Z</time>
      </trkpt>
      <trkpt lat="44.3736" lon="6.67141">
        <ele>1396</ele>
        <time>2023-07-07T09:28:12Z</time>
      </trkpt>
      <trkpt lat="44.37355" lon="6.67153">
        <ele>1396.3</ele>
        <time>2023-07-07T09:28:15Z</time>
      </trkpt>
      <trkpt lat="44.37349" lon="6.67164">
        <ele>1396.8</ele>
        <time>2023-07-07T09:28:18Z</time>
      </trkpt>
      <trkpt lat="44.37341" lon="6.67175">
        <ele>1398.1</ele>
        <time>2023-07-07T09:28:21Z</time>
      </trkpt>
      <trkpt lat="44.37334" lon="6.67189">
        <ele>1399.2</ele>
        <time>2023-07-07T09:28:24Z</time>
      </trkpt>
      <trkpt lat="44.37329" lon="6.67201">
        <ele>1400</ele>
        <time>2023-07-07T09:28:27Z</time>
      </trkpt>
      <trkpt lat="44.37323" lon="6.67215">
        <ele>1401</ele>
        <time>2023-07-07T09:28:30Z</time>
      </trkpt>
      <trkpt lat="44.37318" lon="6.67229">
        <ele>1401.6</ele>
        <time>2023-07-07T09:28:33Z</time>
      </trkpt>
      <trkpt lat="44.37316" lon="6.67244">
        <ele>1401.3</ele>
        <time>2023-07-07T09:28:36Z</time>
      </trkpt>
      <trkpt lat="44.37315" lon="6.67259">
        <ele>1400.5</ele>
        <time>2023-07-07T09:28:39Z</time>
      </trkpt>
      <trkpt lat="44.37313" lon="6.67274">
        <ele>1399.8</ele>
        <time>2023-07-07T09:28:42Z</time>
      </trkpt>
      <trkpt lat="44.37311" lon="6.67288">
        <ele>1399.5</ele>
        <time>2023-07-07T09:28:45Z</time>
      </trkpt>
      <trkpt lat="44.37307" lon="6.67299">
        <ele>1400</ele>
        <time>2023-07-07T09:28:48Z</time>
      </trkpt>
      <trkpt lat="44.37301" lon="6.6731">
        <ele>1400.3</ele>
        <time>2023-07-07T09:28:51Z</time>
      </trkpt>
      <trkpt lat="44.37295" lon="6.6732">
        <ele>1400.3</ele>
        <time>2023-07-07T09:28:54Z</time>
      </trkpt>
      <trkpt lat="44.37288" lon="6.67328">
        <ele>1400.6</ele>
        <time>2023-07-07T09:28:57Z</time>
      </trkpt>
      <trkpt lat="44.3728" lon="6.67338">
        <ele>1400.3</ele>
        <time>2023-07-07T09:29:01Z</time>
      </trkpt>
      <trkpt lat="44.3727" lon="6.67344">
        <ele>1399.9</ele>
        <time>2023-07-07T09:29:05Z</time>
      </trkpt>
      <trkpt lat="44.37259" lon="6.67345">
        <ele>1401</ele>
        <time>2023-07-07T09:29:09Z</time>
      </trkpt>
      <trkpt lat="44.37247" lon="6.67345">
        <ele>1401.8</ele>
        <time>2023-07-07T09:29:13Z</time>
      </trkpt>
      <trkpt lat="44.37237" lon="6.67345">
        <ele>1402.7</ele>
        <time>2023-07-07T09:29:17Z</time>
      </trkpt>
      <trkpt lat="44.37227" lon="6.67346">
        <ele>1402.6</ele>
        <time>2023-07-07T09:29:21Z</time>
      </trkpt>
      <trkpt lat="44.37217" lon="6.67347">
        <ele>1402.8</ele>
        <time>2023-07-07T09:29:25Z</time>
      </trkpt>
      <trkpt lat="44.37206" lon="6.67345">
        <ele>1404</ele>
        <time>2023-07-07T09:29:29Z</time>
      </trkpt>
      <trkpt lat="44.37196" lon="6.67344">
        <ele>1404.9</ele>
        <time>2023-07-07T09:29:33Z</time>
      </trkpt>
      <trkpt lat="44.37185" lon="6.67343">
        <ele>1405.3</ele>
        <time>2023-07-07T09:29:37Z</time>
      </trkpt>
      <trkpt lat="44.37173" lon="6.67345">
        <ele>1403.7</ele>
        <time>2023-07-07T09:29:41Z</time>
      </trkpt>
      <trkpt lat="44.37163" lon="6.67348">
        <ele>1401.7</ele>
        <time>2023-07-07T09:29:44Z</time>
      </trkpt>
      <trkpt lat="44.37151" lon="6.67347">
        <ele>1401.1</ele>
        <time>2023-07-07T09:29:47Z</time>
      </trkpt>
      <trkpt lat="44.37142" lon="6.67339">
        <ele>1403.8</ele>
        <time>2023-07-07T09:29:49Z</time>
      </trkpt>
      <trkpt lat="44.37131" lon="6.67333">
        <ele>1405.2</ele>
        <time>2023-07-07T09:29:51Z</time>
      </trkpt>
      <trkpt lat="44.3712" lon="6.67333">
        <ele>1404</ele>
        <time>2023-07-07T09:29:53Z</time>
      </trkpt>
      <trkpt lat="44.37111" lon="6.67339">
        <ele>1400.1</ele>
        <time>2023-07-07T09:29:55Z</time>
      </trkpt>
      <trkpt lat="44.371" lon="6.67344">
        <ele>1397.6</ele>
        <time>2023-07-07T09:29:57Z</time>
      </trkpt>
      <trkpt lat="44.37088" lon="6.67344">
        <ele>1397.1</ele>
        <time>2023-07-07T09:29:59Z</time>
      </trkpt>
      <trkpt lat="44.37074" lon="6.67343">
        <ele>1398.2</ele>
        <time>2023-07-07T09:30:01Z</time>
      </trkpt>
      <trkpt lat="44.3706" lon="6.67349">
        <ele>1396.5</ele>
        <time>2023-07-07T09:30:03Z</time>
      </trkpt>
      <trkpt lat="44.37048" lon="6.67358">
        <ele>1394.2</ele>
        <time>2023-07-07T09:30:05Z</time>
      </trkpt>
      <trkpt lat="44.37037" lon="6.67372">
        <ele>1391</ele>
        <time>2023-07-07T09:30:07Z</time>
      </trkpt>
      <trkpt lat="44.37027" lon="6.67384">
        <ele>1388.8</ele>
        <time>2023-07-07T09:30:09Z</time>
      </trkpt>
      <trkpt lat="44.37017" lon="6.67394">
        <ele>1386.8</ele>
        <time>2023-07-07T09:30:11Z</time>
      </trkpt>
      <trkpt lat="44.37008" lon="6.67401">
        <ele>1385.4</ele>
        <time>2023-07-07T09:30:13Z</time>
      </trkpt>
      <trkpt lat="44.36996" lon="6.67401">
        <ele>1387</ele>
        <time>2023-07-07T09:30:15Z</time>
      </trkpt>
      <trkpt lat="44.36984" lon="6.674">
        <ele>1388.7</ele>
        <time>2023-07-07T09:30:17Z</time>
      </trkpt>
      <trkpt lat="44.3697" lon="6.67399">
        <ele>1390.6</ele>
        <time>2023-07-07T09:30:19Z</time>
      </trkpt>
      <trkpt lat="44.36958" lon="6.674">
        <ele>1391.1</ele>
        <time>2023-07-07T09:30:21Z</time>
      </trkpt>
      <trkpt lat="44.36949" lon="6.67401">
        <ele>1391.4</ele>
        <time>2023-07-07T09:30:23Z</time>
      </trkpt>
      <trkpt lat="44.36937" lon="6.67414">
        <ele>1388.3</ele>
        <time>2023-07-07T09:30:25Z</time>
      </trkpt>
      <trkpt lat="44.36924" lon="6.67426">
        <ele>1386.2</ele>
        <time>2023-07-07T09:30:27Z</time>
      </trkpt>
      <trkpt lat="44.36912" lon="6.67438">
        <ele>1384.2</ele>
        <time>2023-07-07T09:30:29Z</time>
      </trkpt>
      <trkpt lat="44.36897" lon="6.67443">
        <ele>1384.9</ele>
        <time>2023-07-07T09:30:31Z</time>
      </trkpt>
      <trkpt lat="44.36885" lon="6.67449">
        <ele>1385.2</ele>
        <time>2023-07-07T09:30:33Z</time>
      </trkpt>
      <trkpt lat="44.36875" lon="6.67454">
        <ele>1385.3</ele>
        <time>2023-07-07T09:30:35Z</time>
      </trkpt>
      <trkpt lat="44.36864" lon="6.67461">
        <ele>1384.2</ele>
        <time>2023-07-07T09:30:37Z</time>
      </trkpt>
      <trkpt lat="44.36854" lon="6.67469">
        <ele>1382.8</ele>
        <time>2023-07-07T09:30:39Z</time>
      </trkpt>
      <trkpt lat="44.36844" lon="6.67481">
        <ele>1379.7</ele>
        <time>2023-07-07T09:30:41Z</time>
      </trkpt>
      <trkpt lat="44.36831" lon="6.67488">
        <ele>1379</ele>
        <time>2023-07-07T09:30:43Z</time>
      </trkpt>
      <trkpt lat="44.36822" lon="6.67498">
        <ele>1376.8</ele>
        <time>2023-07-07T09:30:45Z</time>
      </trkpt>
      <trkpt lat="44.36819" lon="6.67511">
        <ele>1371.1</ele>
        <time>2023-07-07T09:30:47Z</time>
      </trkpt>
      <trkpt lat="44.36828" lon="6.67521">
        <ele>1363.8</ele>
        <time>2023-07-07T09:30:51Z</time>
      </trkpt>
      <trkpt lat="44.36839" lon="6.67511">
        <ele>1366.6</ele>
        <time>2023-07-07T09:30:54Z</time>
      </trkpt>
      <trkpt lat="44.36852" lon="6.67503">
        <ele>1367.7</ele>
        <time>2023-07-07T09:30:56Z</time>
      </trkpt>
      <trkpt lat="44.36865" lon="6.67498">
        <ele>1367.4</ele>
        <time>2023-07-07T09:30:58Z</time>
      </trkpt>
      <trkpt lat="44.36878" lon="6.67497">
        <ele>1366.4</ele>
        <time>2023-07-07T09:31:00Z</time>
      </trkpt>
      <trkpt lat="44.36892" lon="6.67501">
        <ele>1363.1</ele>
        <time>2023-07-07T09:31:02Z</time>
      </trkpt>
      <trkpt lat="44.36902" lon="6.67502">
        <ele>1361.6</ele>
        <time>2023-07-07T09:31:04Z</time>
      </trkpt>
      <trkpt lat="44.36915" lon="6.67499">
        <ele>1361.4</ele>
        <time>2023-07-07T09:31:06Z</time>
      </trkpt>
      <trkpt lat="44.36925" lon="6.675">
        <ele>1360</ele>
        <time>2023-07-07T09:31:08Z</time>
      </trkpt>
      <trkpt lat="44.36919" lon="6.67512">
        <ele>1355.7</ele>
        <time>2023-07-07T09:31:11Z</time>
      </trkpt>
      <trkpt lat="44.36911" lon="6.67518">
        <ele>1354.4</ele>
        <time>2023-07-07T09:31:13Z</time>
      </trkpt>
      <trkpt lat="44.36899" lon="6.67525">
        <ele>1353.1</ele>
        <time>2023-07-07T09:31:15Z</time>
      </trkpt>
      <trkpt lat="44.36887" lon="6.6753">
        <ele>1352.1</ele>
        <time>2023-07-07T09:31:17Z</time>
      </trkpt>
      <trkpt lat="44.36877" lon="6.67535">
        <ele>1351.3</ele>
        <time>2023-07-07T09:31:19Z</time>
      </trkpt>
      <trkpt lat="44.36868" lon="6.67542">
        <ele>1349.5</ele>
        <time>2023-07-07T09:31:22Z</time>
      </trkpt>
      <trkpt lat="44.36872" lon="6.67553">
        <ele>1344.8</ele>
        <time>2023-07-07T09:31:24Z</time>
      </trkpt>
      <trkpt lat="44.36884" lon="6.67554">
        <ele>1343</ele>
        <time>2023-07-07T09:31:27Z</time>
      </trkpt>
      <trkpt lat="44.36896" lon="6.67551">
        <ele>1343.2</ele>
        <time>2023-07-07T09:31:30Z</time>
      </trkpt>
      <trkpt lat="44.36909" lon="6.67552">
        <ele>1341.8</ele>
        <time>2023-07-07T09:31:33Z</time>
      </trkpt>
      <trkpt lat="44.36911" lon="6.67565">
        <ele>1340.4</ele>
        <time>2023-07-07T09:31:36Z</time>
      </trkpt>
      <trkpt lat="44.36914" lon="6.67578">
        <ele>1340.2</ele>
        <time>2023-07-07T09:31:39Z</time>
      </trkpt>
      <trkpt lat="44.36917" lon="6.6759">
        <ele>1342.8</ele>
        <time>2023-07-07T09:31:42Z</time>
      </trkpt>
      <trkpt lat="44.36925" lon="6.67602">
        <ele>1346.5</ele>
        <time>2023-07-07T09:31:46Z</time>
      </trkpt>
      <trkpt lat="44.36932" lon="6.6761">
        <ele>1348.7</ele>
        <time>2023-07-07T09:31:50Z</time>
      </trkpt>
      <trkpt lat="44.36941" lon="6.67617">
        <ele>1350</ele>
        <time>2023-07-07T09:31:54Z</time>
      </trkpt>
      <trkpt lat="44.3695" lon="6.67624">
        <ele>1351</ele>
        <time>2023-07-07T09:31:58Z</time>
      </trkpt>
      <trkpt lat="44.36959" lon="6.67631">
        <ele>1351.6</ele>
        <time>2023-07-07T09:32:03Z</time>
      </trkpt>
      <trkpt lat="44.36967" lon="6.67637">
        <ele>1351.4</ele>
        <time>2023-07-07T09:32:06Z</time>
      </trkpt>
      <trkpt lat="44.36976" lon="6.67645">
        <ele>1352.7</ele>
        <time>2023-07-07T09:32:10Z</time>
      </trkpt>
      <trkpt lat="44.36986" lon="6.67652">
        <ele>1352.6</ele>
        <time>2023-07-07T09:32:14Z</time>
      </trkpt>
      <trkpt lat="44.36995" lon="6.67657">
        <ele>1352.3</ele>
        <time>2023-07-07T09:32:17Z</time>
      </trkpt>
      <trkpt lat="44.37005" lon="6.67665">
        <ele>1352.5</ele>
        <time>2023-07-07T09:32:21Z</time>
      </trkpt>
      <trkpt lat="44.37015" lon="6.67671">
        <ele>1352.7</ele>
        <time>2023-07-07T09:32:25Z</time>
      </trkpt>
      <trkpt lat="44.37024" lon="6.67679">
        <ele>1353.4</ele>
        <time>2023-07-07T09:32:29Z</time>
      </trkpt>
      <trkpt lat="44.37033" lon="6.67686">
        <ele>1353.9</ele>
        <time>2023-07-07T09:32:33Z</time>
      </trkpt>
      <trkpt lat="44.37042" lon="6.67692">
        <ele>1353.9</ele>
        <time>2023-07-07T09:32:37Z</time>
      </trkpt>
      <trkpt lat="44.3705" lon="6.67699">
        <ele>1354.8</ele>
        <time>2023-07-07T09:32:41Z</time>
      </trkpt>
      <trkpt lat="44.37059" lon="6.67705">
        <ele>1355</ele>
        <time>2023-07-07T09:32:46Z</time>
      </trkpt>
      <trkpt lat="44.37068" lon="6.67712">
        <ele>1356</ele>
        <time>2023-07-07T09:32:50Z</time>
      </trkpt>
      <trkpt lat="44.37076" lon="6.67719">
        <ele>1357.2</ele>
        <time>2023-07-07T09:32:55Z</time>
      </trkpt>
      <trkpt lat="44.37086" lon="6.67726">
        <ele>1358.1</ele>
        <time>2023-07-07T09:33:00Z</time>
      </trkpt>
      <trkpt lat="44.37096" lon="6.67733">
        <ele>1358.6</ele>
        <time>2023-07-07T09:33:05Z</time>
      </trkpt>
      <trkpt lat="44.37106" lon="6.67738">
        <ele>1358.5</ele>
        <time>2023-07-07T09:33:10Z</time>
      </trkpt>
      <trkpt lat="44.37115" lon="6.67743">
        <ele>1358.8</ele>
        <time>2023-07-07T09:33:15Z</time>
      </trkpt>
      <trkpt lat="44.37125" lon="6.67747">
        <ele>1358.5</ele>
        <time>2023-07-07T09:33:20Z</time>
      </trkpt>
      <trkpt lat="44.37135" lon="6.67751">
        <ele>1358.4</ele>
        <time>2023-07-07T09:33:25Z</time>
      </trkpt>
      <trkpt lat="44.37144" lon="6.67758">
        <ele>1358.9</ele>
        <time>2023-07-07T09:33:30Z</time>
      </trkpt>
      <trkpt lat="44.37153" lon="6.67765">
        <ele>1359.3</ele>
        <time>2023-07-07T09:33:35Z</time>
      </trkpt>
      <trkpt lat="44.37161" lon="6.6777">
        <ele>1359.2</ele>
        <time>2023-07-07T09:33:39Z</time>
      </trkpt>
      <trkpt lat="44.3717" lon="6.67777">
        <ele>1359.8</ele>
        <time>2023-07-07T09:33:44Z</time>
      </trkpt>
      <trkpt lat="44.37179" lon="6.67782">
        <ele>1358.6</ele>
        <time>2023-07-07T09:33:49Z</time>
      </trkpt>
      <trkpt lat="44.37188" lon="6.6779">
        <ele>1358.6</ele>
        <time>2023-07-07T09:33:54Z</time>
      </trkpt>
      <trkpt lat="44.37195" lon="6.67798">
        <ele>1359.4</ele>
        <time>2023-07-07T09:33:58Z</time>
      </trkpt>
      <trkpt lat="44.37201" lon="6.67809">
        <ele>1360.4</ele>
        <time>2023-07-07T09:34:02Z</time>
      </trkpt>
      <trkpt lat="44.37204" lon="6.67821">
        <ele>1361.6</ele>
        <time>2023-07-07T09:34:06Z</time>
      </trkpt>
      <trkpt lat="44.37206" lon="6.67836">
        <ele>1363.9</ele>
        <time>2023-07-07T09:34:10Z</time>
      </trkpt>
      <trkpt lat="44.37208" lon="6.67851">
        <ele>1364.5</ele>
        <time>2023-07-07T09:34:14Z</time>
      </trkpt>
      <trkpt lat="44.37209" lon="6.67866">
        <ele>1365.5</ele>
        <time>2023-07-07T09:34:18Z</time>
      </trkpt>
      <trkpt lat="44.3721" lon="6.67879">
        <ele>1365.9</ele>
        <time>2023-07-07T09:34:22Z</time>
      </trkpt>
      <trkpt lat="44.37213" lon="6.67894">
        <ele>1365.9</ele>
        <time>2023-07-07T09:34:27Z</time>
      </trkpt>
      <trkpt lat="44.37213" lon="6.67907">
        <ele>1366.1</ele>
        <time>2023-07-07T09:34:31Z</time>
      </trkpt>
      <trkpt lat="44.37212" lon="6.67922">
        <ele>1366.6</ele>
        <time>2023-07-07T09:34:35Z</time>
      </trkpt>
      <trkpt lat="44.37214" lon="6.67936">
        <ele>1366.6</ele>
        <time>2023-07-07T09:34:39Z</time>
      </trkpt>
      <trkpt lat="44.37215" lon="6.67951">
        <ele>1366.9</ele>
        <time>2023-07-07T09:34:43Z</time>
      </trkpt>
      <trkpt lat="44.37215" lon="6.67964">
        <ele>1367.2</ele>
        <time>2023-07-07T09:34:47Z</time>
      </trkpt>
      <trkpt lat="44.37218" lon="6.67977">
        <ele>1367.2</ele>
        <time>2023-07-07T09:34:51Z</time>
      </trkpt>
      <trkpt lat="44.37221" lon="6.67992">
        <ele>1367.6</ele>
        <time>2023-07-07T09:34:56Z</time>
      </trkpt>
      <trkpt lat="44.37226" lon="6.68003">
        <ele>1367.5</ele>
        <time>2023-07-07T09:35:01Z</time>
      </trkpt>
      <trkpt lat="44.37232" lon="6.68015">
        <ele>1367.2</ele>
        <time>2023-07-07T09:35:06Z</time>
      </trkpt>
      <trkpt lat="44.37237" lon="6.68027">
        <ele>1367.3</ele>
        <time>2023-07-07T09:35:11Z</time>
      </trkpt>
      <trkpt lat="44.37245" lon="6.68035">
        <ele>1367</ele>
        <time>2023-07-07T09:35:16Z</time>
      </trkpt>
      <trkpt lat="44.37251" lon="6.68045">
        <ele>1367.4</ele>
        <time>2023-07-07T09:35:21Z</time>
      </trkpt>
      <trkpt lat="44.37258" lon="6.68055">
        <ele>1367.8</ele>
        <time>2023-07-07T09:35:27Z</time>
      </trkpt>
      <trkpt lat="44.37268" lon="6.68062">
        <ele>1367.2</ele>
        <time>2023-07-07T09:35:43Z</time>
      </trkpt>
      <trkpt lat="44.3728" lon="6.68061">
        <ele>1365.5</ele>
        <time>2023-07-07T09:35:46Z</time>
      </trkpt>
      <trkpt lat="44.3729" lon="6.6806">
        <ele>1364.4</ele>
        <time>2023-07-07T09:35:48Z</time>
      </trkpt>
      <trkpt lat="44.37301" lon="6.68062">
        <ele>1363.4</ele>
        <time>2023-07-07T09:35:51Z</time>
      </trkpt>
      <trkpt lat="44.37311" lon="6.68068">
        <ele>1363.1</ele>
        <time>2023-07-07T09:35:57Z</time>
      </trkpt>
      <trkpt lat="44.37322" lon="6.68068">
        <ele>1362</ele>
        <time>2023-07-07T09:36:00Z</time>
      </trkpt>
      <trkpt lat="44.37335" lon="6.6807">
        <ele>1360.9</ele>
        <time>2023-07-07T09:36:03Z</time>
      </trkpt>
      <trkpt lat="44.37344" lon="6.68072">
        <ele>1360.4</ele>
        <time>2023-07-07T09:36:05Z</time>
      </trkpt>
      <trkpt lat="44.37357" lon="6.68074">
        <ele>1359.4</ele>
        <time>2023-07-07T09:36:07Z</time>
      </trkpt>
      <trkpt lat="44.37369" lon="6.68076">
        <ele>1358.6</ele>
        <time>2023-07-07T09:36:09Z</time>
      </trkpt>
      <trkpt lat="44.3738" lon="6.68078">
        <ele>1358</ele>
        <time>2023-07-07T09:36:11Z</time>
      </trkpt>
      <trkpt lat="44.37391" lon="6.68079">
        <ele>1357.4</ele>
        <time>2023-07-07T09:36:13Z</time>
      </trkpt>
      <trkpt lat="44.37404" lon="6.68081">
        <ele>1356.8</ele>
        <time>2023-07-07T09:36:15Z</time>
      </trkpt>
      <trkpt lat="44.37417" lon="6.68085">
        <ele>1355.9</ele>
        <time>2023-07-07T09:36:17Z</time>
      </trkpt>
      <trkpt lat="44.37429" lon="6.68089">
        <ele>1354.6</ele>
        <time>2023-07-07T09:36:19Z</time>
      </trkpt>
      <trkpt lat="44.37442" lon="6.6809">
        <ele>1353</ele>
        <time>2023-07-07T09:36:21Z</time>
      </trkpt>
      <trkpt lat="44.37455" lon="6.68087">
        <ele>1351.6</ele>
        <time>2023-07-07T09:36:23Z</time>
      </trkpt>
      <trkpt lat="44.37465" lon="6.68081">
        <ele>1350.2</ele>
        <time>2023-07-07T09:36:25Z</time>
      </trkpt>
      <trkpt lat="44.37471" lon="6.68069">
        <ele>1349.1</ele>
        <time>2023-07-07T09:36:28Z</time>
      </trkpt>
      <trkpt lat="44.37468" lon="6.68056">
        <ele>1349.7</ele>
        <time>2023-07-07T09:36:30Z</time>
      </trkpt>
      <trkpt lat="44.37462" lon="6.68046">
        <ele>1348.6</ele>
        <time>2023-07-07T09:36:32Z</time>
      </trkpt>
      <trkpt lat="44.37452" lon="6.68037">
        <ele>1347.9</ele>
        <time>2023-07-07T09:36:34Z</time>
      </trkpt>
      <trkpt lat="44.37441" lon="6.68028">
        <ele>1347.4</ele>
        <time>2023-07-07T09:36:36Z</time>
      </trkpt>
      <trkpt lat="44.3743" lon="6.68022">
        <ele>1346.5</ele>
        <time>2023-07-07T09:36:38Z</time>
      </trkpt>
      <trkpt lat="44.37416" lon="6.68014">
        <ele>1345.5</ele>
        <time>2023-07-07T09:36:40Z</time>
      </trkpt>
      <trkpt lat="44.37402" lon="6.68005">
        <ele>1344.1</ele>
        <time>2023-07-07T09:36:42Z</time>
      </trkpt>
      <trkpt lat="44.37387" lon="6.67995">
        <ele>1342.9</ele>
        <time>2023-07-07T09:36:44Z</time>
      </trkpt>
      <trkpt lat="44.37374" lon="6.67984">
        <ele>1341</ele>
        <time>2023-07-07T09:36:46Z</time>
      </trkpt>
      <trkpt lat="44.37361" lon="6.67972">
        <ele>1339.9</ele>
        <time>2023-07-07T09:36:48Z</time>
      </trkpt>
      <trkpt lat="44.3735" lon="6.6796">
        <ele>1338.9</ele>
        <time>2023-07-07T09:36:50Z</time>
      </trkpt>
      <trkpt lat="44.3734" lon="6.6795">
        <ele>1338.6</ele>
        <time>2023-07-07T09:36:52Z</time>
      </trkpt>
      <trkpt lat="44.37336" lon="6.67936">
        <ele>1337.3</ele>
        <time>2023-07-07T09:36:54Z</time>
      </trkpt>
      <trkpt lat="44.37338" lon="6.67924">
        <ele>1334.8</ele>
        <time>2023-07-07T09:36:56Z</time>
      </trkpt>
      <trkpt lat="44.37347" lon="6.67919">
        <ele>1331.9</ele>
        <time>2023-07-07T09:36:58Z</time>
      </trkpt>
      <trkpt lat="44.37359" lon="6.67925">
        <ele>1330.3</ele>
        <time>2023-07-07T09:37:00Z</time>
      </trkpt>
      <trkpt lat="44.37373" lon="6.67934">
        <ele>1329.1</ele>
        <time>2023-07-07T09:37:02Z</time>
      </trkpt>
      <trkpt lat="44.37388" lon="6.67943">
        <ele>1328.6</ele>
        <time>2023-07-07T09:37:04Z</time>
      </trkpt>
      <trkpt lat="44.37396" lon="6.67948">
        <ele>1328.4</ele>
        <time>2023-07-07T09:37:05Z</time>
      </trkpt>
      <trkpt lat="44.3741" lon="6.67955">
        <ele>1327.7</ele>
        <time>2023-07-07T09:37:07Z</time>
      </trkpt>
      <trkpt lat="44.37423" lon="6.67959">
        <ele>1326.6</ele>
        <time>2023-07-07T09:37:09Z</time>
      </trkpt>
      <trkpt lat="44.37439" lon="6.67959">
        <ele>1323.6</ele>
        <time>2023-07-07T09:37:11Z</time>
      </trkpt>
      <trkpt lat="44.37453" lon="6.67963">
        <ele>1321.5</ele>
        <time>2023-07-07T09:37:13Z</time>
      </trkpt>
      <trkpt lat="44.37469" lon="6.67971">
        <ele>1321.2</ele>
        <time>2023-07-07T09:37:15Z</time>
      </trkpt>
      <trkpt lat="44.37483" lon="6.67977">
        <ele>1320.2</ele>
        <time>2023-07-07T09:37:17Z</time>
      </trkpt>
      <trkpt lat="44.375" lon="6.67981">
        <ele>1318.2</ele>
        <time>2023-07-07T09:37:19Z</time>
      </trkpt>
      <trkpt lat="44.37515" lon="6.67987">
        <ele>1318.3</ele>
        <time>2023-07-07T09:37:21Z</time>
      </trkpt>
      <trkpt lat="44.37532" lon="6.6799">
        <ele>1316.3</ele>
        <time>2023-07-07T09:37:23Z</time>
      </trkpt>
      <trkpt lat="44.37546" lon="6.67997">
        <ele>1315.4</ele>
        <time>2023-07-07T09:37:25Z</time>
      </trkpt>
      <trkpt lat="44.37557" lon="6.68008">
        <ele>1317.1</ele>
        <time>2023-07-07T09:37:27Z</time>
      </trkpt>
      <trkpt lat="44.37566" lon="6.68016">
        <ele>1315.7</ele>
        <time>2023-07-07T09:37:29Z</time>
      </trkpt>
      <trkpt lat="44.37575" lon="6.68017">
        <ele>1311</ele>
        <time>2023-07-07T09:37:31Z</time>
      </trkpt>
      <trkpt lat="44.37581" lon="6.68006">
        <ele>1305.2</ele>
        <time>2023-07-07T09:37:33Z</time>
      </trkpt>
      <trkpt lat="44.37579" lon="6.67989">
        <ele>1301.5</ele>
        <time>2023-07-07T09:37:35Z</time>
      </trkpt>
      <trkpt lat="44.3757" lon="6.6798">
        <ele>1301.5</ele>
        <time>2023-07-07T09:37:37Z</time>
      </trkpt>
      <trkpt lat="44.37557" lon="6.67972">
        <ele>1302.3</ele>
        <time>2023-07-07T09:37:39Z</time>
      </trkpt>
      <trkpt lat="44.37541" lon="6.67962">
        <ele>1301.3</ele>
        <time>2023-07-07T09:37:41Z</time>
      </trkpt>
      <trkpt lat="44.37526" lon="6.67952">
        <ele>1299.2</ele>
        <time>2023-07-07T09:37:43Z</time>
      </trkpt>
      <trkpt lat="44.37518" lon="6.67945">
        <ele>1297.4</ele>
        <time>2023-07-07T09:37:44Z</time>
      </trkpt>
      <trkpt lat="44.3751" lon="6.67938">
        <ele>1296.1</ele>
        <time>2023-07-07T09:37:45Z</time>
      </trkpt>
      <trkpt lat="44.37495" lon="6.67925">
        <ele>1293.9</ele>
        <time>2023-07-07T09:37:47Z</time>
      </trkpt>
      <trkpt lat="44.37487" lon="6.67919">
        <ele>1293.2</ele>
        <time>2023-07-07T09:37:48Z</time>
      </trkpt>
      <trkpt lat="44.37472" lon="6.67906">
        <ele>1291.9</ele>
        <time>2023-07-07T09:37:50Z</time>
      </trkpt>
      <trkpt lat="44.37464" lon="6.679">
        <ele>1292</ele>
        <time>2023-07-07T09:37:51Z</time>
      </trkpt>
      <trkpt lat="44.37449" lon="6.67886">
        <ele>1290.5</ele>
        <time>2023-07-07T09:37:53Z</time>
      </trkpt>
      <trkpt lat="44.37442" lon="6.67877">
        <ele>1289.3</ele>
        <time>2023-07-07T09:37:54Z</time>
      </trkpt>
      <trkpt lat="44.37435" lon="6.67869">
        <ele>1288.5</ele>
        <time>2023-07-07T09:37:55Z</time>
      </trkpt>
      <trkpt lat="44.37429" lon="6.6786">
        <ele>1287.8</ele>
        <time>2023-07-07T09:37:56Z</time>
      </trkpt>
      <trkpt lat="44.37423" lon="6.67849">
        <ele>1286.7</ele>
        <time>2023-07-07T09:37:57Z</time>
      </trkpt>
      <trkpt lat="44.37416" lon="6.67839">
        <ele>1286</ele>
        <time>2023-07-07T09:37:58Z</time>
      </trkpt>
      <trkpt lat="44.37404" lon="6.67823">
        <ele>1285.4</ele>
        <time>2023-07-07T09:38:00Z</time>
      </trkpt>
      <trkpt lat="44.37392" lon="6.67805">
        <ele>1284.1</ele>
        <time>2023-07-07T09:38:02Z</time>
      </trkpt>
      <trkpt lat="44.37385" lon="6.67796">
        <ele>1284.5</ele>
        <time>2023-07-07T09:38:03Z</time>
      </trkpt>
      <trkpt lat="44.37376" lon="6.67776">
        <ele>1283.6</ele>
        <time>2023-07-07T09:38:05Z</time>
      </trkpt>
      <trkpt lat="44.37369" lon="6.67756">
        <ele>1282.8</ele>
        <time>2023-07-07T09:38:07Z</time>
      </trkpt>
      <trkpt lat="44.3736" lon="6.67736">
        <ele>1282.8</ele>
        <time>2023-07-07T09:38:09Z</time>
      </trkpt>
      <trkpt lat="44.37352" lon="6.6772">
        <ele>1282.7</ele>
        <time>2023-07-07T09:38:11Z</time>
      </trkpt>
      <trkpt lat="44.37353" lon="6.67706">
        <ele>1280.9</ele>
        <time>2023-07-07T09:38:13Z</time>
      </trkpt>
      <trkpt lat="44.3736" lon="6.67697">
        <ele>1278.5</ele>
        <time>2023-07-07T09:38:15Z</time>
      </trkpt>
      <trkpt lat="44.37371" lon="6.67702">
        <ele>1277.2</ele>
        <time>2023-07-07T09:38:17Z</time>
      </trkpt>
      <trkpt lat="44.37382" lon="6.67715">
        <ele>1276.2</ele>
        <time>2023-07-07T09:38:19Z</time>
      </trkpt>
      <trkpt lat="44.37394" lon="6.67731">
        <ele>1274.7</ele>
        <time>2023-07-07T09:38:21Z</time>
      </trkpt>
      <trkpt lat="44.37406" lon="6.67745">
        <ele>1273</ele>
        <time>2023-07-07T09:38:23Z</time>
      </trkpt>
      <trkpt lat="44.37419" lon="6.67759">
        <ele>1271.2</ele>
        <time>2023-07-07T09:38:25Z</time>
      </trkpt>
      <trkpt lat="44.37434" lon="6.67768">
        <ele>1269.2</ele>
        <time>2023-07-07T09:38:27Z</time>
      </trkpt>
      <trkpt lat="44.37444" lon="6.67771">
        <ele>1267.6</ele>
        <time>2023-07-07T09:38:28Z</time>
      </trkpt>
      <trkpt lat="44.37461" lon="6.67775">
        <ele>1265</ele>
        <time>2023-07-07T09:38:30Z</time>
      </trkpt>
      <trkpt lat="44.37477" lon="6.67784">
        <ele>1262.7</ele>
        <time>2023-07-07T09:38:32Z</time>
      </trkpt>
      <trkpt lat="44.37485" lon="6.6779">
        <ele>1261.9</ele>
        <time>2023-07-07T09:38:33Z</time>
      </trkpt>
      <trkpt lat="44.37492" lon="6.67798">
        <ele>1261.1</ele>
        <time>2023-07-07T09:38:34Z</time>
      </trkpt>
      <trkpt lat="44.37505" lon="6.67813">
        <ele>1259.8</ele>
        <time>2023-07-07T09:38:36Z</time>
      </trkpt>
      <trkpt lat="44.37513" lon="6.6782">
        <ele>1259.4</ele>
        <time>2023-07-07T09:38:37Z</time>
      </trkpt>
      <trkpt lat="44.37528" lon="6.67832">
        <ele>1257.8</ele>
        <time>2023-07-07T09:38:39Z</time>
      </trkpt>
      <trkpt lat="44.37537" lon="6.67834">
        <ele>1256.6</ele>
        <time>2023-07-07T09:38:40Z</time>
      </trkpt>
      <trkpt lat="44.37555" lon="6.67833">
        <ele>1253.2</ele>
        <time>2023-07-07T09:38:42Z</time>
      </trkpt>
      <trkpt lat="44.37565" lon="6.67832">
        <ele>1251.8</ele>
        <time>2023-07-07T09:38:43Z</time>
      </trkpt>
      <trkpt lat="44.37574" lon="6.6783">
        <ele>1250.6</ele>
        <time>2023-07-07T09:38:44Z</time>
      </trkpt>
      <trkpt lat="44.37591" lon="6.67825">
        <ele>1248.2</ele>
        <time>2023-07-07T09:38:46Z</time>
      </trkpt>
      <trkpt lat="44.376" lon="6.67822">
        <ele>1246.9</ele>
        <time>2023-07-07T09:38:47Z</time>
      </trkpt>
      <trkpt lat="44.37609" lon="6.6782">
        <ele>1245.8</ele>
        <time>2023-07-07T09:38:48Z</time>
      </trkpt>
      <trkpt lat="44.37618" lon="6.67821">
        <ele>1244.8</ele>
        <time>2023-07-07T09:38:49Z</time>
      </trkpt>
      <trkpt lat="44.37628" lon="6.67823">
        <ele>1243.8</ele>
        <time>2023-07-07T09:38:50Z</time>
      </trkpt>
      <trkpt lat="44.37645" lon="6.67831">
        <ele>1242.2</ele>
        <time>2023-07-07T09:38:52Z</time>
      </trkpt>
      <trkpt lat="44.37655" lon="6.67835">
        <ele>1241.4</ele>
        <time>2023-07-07T09:38:53Z</time>
      </trkpt>
      <trkpt lat="44.37664" lon="6.67842">
        <ele>1240.6</ele>
        <time>2023-07-07T09:38:54Z</time>
      </trkpt>
      <trkpt lat="44.37673" lon="6.67847">
        <ele>1239.8</ele>
        <time>2023-07-07T09:38:55Z</time>
      </trkpt>
      <trkpt lat="44.37682" lon="6.67851">
        <ele>1238.8</ele>
        <time>2023-07-07T09:38:56Z</time>
      </trkpt>
      <trkpt lat="44.37692" lon="6.67853">
        <ele>1237.8</ele>
        <time>2023-07-07T09:38:57Z</time>
      </trkpt>
      <trkpt lat="44.37701" lon="6.67853">
        <ele>1236.5</ele>
        <time>2023-07-07T09:38:58Z</time>
      </trkpt>
      <trkpt lat="44.37711" lon="6.67851">
        <ele>1235.1</ele>
        <time>2023-07-07T09:38:59Z</time>
      </trkpt>
      <trkpt lat="44.3772" lon="6.67848">
        <ele>1233.8</ele>
        <time>2023-07-07T09:39:00Z</time>
      </trkpt>
      <trkpt lat="44.3773" lon="6.67843">
        <ele>1232.5</ele>
        <time>2023-07-07T09:39:01Z</time>
      </trkpt>
      <trkpt lat="44.3774" lon="6.67838">
        <ele>1231.3</ele>
        <time>2023-07-07T09:39:02Z</time>
      </trkpt>
      <trkpt lat="44.37749" lon="6.67832">
        <ele>1230.1</ele>
        <time>2023-07-07T09:39:03Z</time>
      </trkpt>
      <trkpt lat="44.37767" lon="6.67823">
        <ele>1228.2</ele>
        <time>2023-07-07T09:39:05Z</time>
      </trkpt>
      <trkpt lat="44.37777" lon="6.6782">
        <ele>1227.1</ele>
        <time>2023-07-07T09:39:06Z</time>
      </trkpt>
      <trkpt lat="44.37786" lon="6.67819">
        <ele>1226.1</ele>
        <time>2023-07-07T09:39:07Z</time>
      </trkpt>
      <trkpt lat="44.37797" lon="6.67819">
        <ele>1225</ele>
        <time>2023-07-07T09:39:08Z</time>
      </trkpt>
      <trkpt lat="44.37807" lon="6.67819">
        <ele>1223.8</ele>
        <time>2023-07-07T09:39:09Z</time>
      </trkpt>
      <trkpt lat="44.37817" lon="6.67821">
        <ele>1222.4</ele>
        <time>2023-07-07T09:39:10Z</time>
      </trkpt>
      <trkpt lat="44.37827" lon="6.67822">
        <ele>1220.9</ele>
        <time>2023-07-07T09:39:11Z</time>
      </trkpt>
      <trkpt lat="44.37837" lon="6.6782">
        <ele>1219.5</ele>
        <time>2023-07-07T09:39:12Z</time>
      </trkpt>
      <trkpt lat="44.37847" lon="6.67822">
        <ele>1218</ele>
        <time>2023-07-07T09:39:13Z</time>
      </trkpt>
      <trkpt lat="44.37856" lon="6.67819">
        <ele>1216.7</ele>
        <time>2023-07-07T09:39:14Z</time>
      </trkpt>
      <trkpt lat="44.37866" lon="6.67816">
        <ele>1215.4</ele>
        <time>2023-07-07T09:39:15Z</time>
      </trkpt>
      <trkpt lat="44.37875" lon="6.67814">
        <ele>1214.1</ele>
        <time>2023-07-07T09:39:16Z</time>
      </trkpt>
      <trkpt lat="44.37886" lon="6.6781">
        <ele>1212.6</ele>
        <time>2023-07-07T09:39:17Z</time>
      </trkpt>
      <trkpt lat="44.37895" lon="6.67805">
        <ele>1211.6</ele>
        <time>2023-07-07T09:39:18Z</time>
      </trkpt>
      <trkpt lat="44.37909" lon="6.67793">
        <ele>1210.7</ele>
        <time>2023-07-07T09:39:20Z</time>
      </trkpt>
      <trkpt lat="44.37915" lon="6.67783">
        <ele>1210.1</ele>
        <time>2023-07-07T09:39:21Z</time>
      </trkpt>
      <trkpt lat="44.37921" lon="6.67772">
        <ele>1210</ele>
        <time>2023-07-07T09:39:22Z</time>
      </trkpt>
      <trkpt lat="44.37927" lon="6.67762">
        <ele>1209.8</ele>
        <time>2023-07-07T09:39:23Z</time>
      </trkpt>
      <trkpt lat="44.37938" lon="6.67746">
        <ele>1208.8</ele>
        <time>2023-07-07T09:39:25Z</time>
      </trkpt>
      <trkpt lat="44.37954" lon="6.67734">
        <ele>1207.7</ele>
        <time>2023-07-07T09:39:27Z</time>
      </trkpt>
      <trkpt lat="44.37963" lon="6.67729">
        <ele>1206.9</ele>
        <time>2023-07-07T09:39:28Z</time>
      </trkpt>
      <trkpt lat="44.37972" lon="6.67724">
        <ele>1206</ele>
        <time>2023-07-07T09:39:29Z</time>
      </trkpt>
      <trkpt lat="44.37982" lon="6.67719">
        <ele>1204.7</ele>
        <time>2023-07-07T09:39:30Z</time>
      </trkpt>
      <trkpt lat="44.37993" lon="6.67714">
        <ele>1203.4</ele>
        <time>2023-07-07T09:39:31Z</time>
      </trkpt>
      <trkpt lat="44.38003" lon="6.67709">
        <ele>1202.2</ele>
        <time>2023-07-07T09:39:32Z</time>
      </trkpt>
      <trkpt lat="44.38013" lon="6.67704">
        <ele>1201.1</ele>
        <time>2023-07-07T09:39:33Z</time>
      </trkpt>
      <trkpt lat="44.38024" lon="6.67698">
        <ele>1199.6</ele>
        <time>2023-07-07T09:39:34Z</time>
      </trkpt>
      <trkpt lat="44.38035" lon="6.67693">
        <ele>1198.3</ele>
        <time>2023-07-07T09:39:35Z</time>
      </trkpt>
      <trkpt lat="44.38046" lon="6.67688">
        <ele>1197.1</ele>
        <time>2023-07-07T09:39:36Z</time>
      </trkpt>
      <trkpt lat="44.38056" lon="6.67683">
        <ele>1195.9</ele>
        <time>2023-07-07T09:39:37Z</time>
      </trkpt>
      <trkpt lat="44.38066" lon="6.67678">
        <ele>1195</ele>
        <time>2023-07-07T09:39:38Z</time>
      </trkpt>
      <trkpt lat="44.38077" lon="6.67673">
        <ele>1193.9</ele>
        <time>2023-07-07T09:39:39Z</time>
      </trkpt>
      <trkpt lat="44.38087" lon="6.67667">
        <ele>1192.6</ele>
        <time>2023-07-07T09:39:40Z</time>
      </trkpt>
      <trkpt lat="44.38098" lon="6.67662">
        <ele>1191.2</ele>
        <time>2023-07-07T09:39:41Z</time>
      </trkpt>
      <trkpt lat="44.38109" lon="6.67657">
        <ele>1189.9</ele>
        <time>2023-07-07T09:39:42Z</time>
      </trkpt>
      <trkpt lat="44.38119" lon="6.6765">
        <ele>1189</ele>
        <time>2023-07-07T09:39:43Z</time>
      </trkpt>
      <trkpt lat="44.38129" lon="6.67641">
        <ele>1187.9</ele>
        <time>2023-07-07T09:39:44Z</time>
      </trkpt>
      <trkpt lat="44.38139" lon="6.67632">
        <ele>1187</ele>
        <time>2023-07-07T09:39:45Z</time>
      </trkpt>
      <trkpt lat="44.38148" lon="6.67622">
        <ele>1186.7</ele>
        <time>2023-07-07T09:39:46Z</time>
      </trkpt>
      <trkpt lat="44.38157" lon="6.67613">
        <ele>1186.4</ele>
        <time>2023-07-07T09:39:47Z</time>
      </trkpt>
      <trkpt lat="44.38167" lon="6.67605">
        <ele>1185.8</ele>
        <time>2023-07-07T09:39:48Z</time>
      </trkpt>
      <trkpt lat="44.38177" lon="6.67596">
        <ele>1184.9</ele>
        <time>2023-07-07T09:39:49Z</time>
      </trkpt>
      <trkpt lat="44.38186" lon="6.67587">
        <ele>1184.3</ele>
        <time>2023-07-07T09:39:50Z</time>
      </trkpt>
      <trkpt lat="44.38195" lon="6.67577">
        <ele>1183.7</ele>
        <time>2023-07-07T09:39:51Z</time>
      </trkpt>
      <trkpt lat="44.38204" lon="6.67567">
        <ele>1182.9</ele>
        <time>2023-07-07T09:39:52Z</time>
      </trkpt>
      <trkpt lat="44.38213" lon="6.67556">
        <ele>1182.3</ele>
        <time>2023-07-07T09:39:53Z</time>
      </trkpt>
      <trkpt lat="44.38224" lon="6.67549">
        <ele>1181.6</ele>
        <time>2023-07-07T09:39:54Z</time>
      </trkpt>
      <trkpt lat="44.38233" lon="6.67538">
        <ele>1180.5</ele>
        <time>2023-07-07T09:39:55Z</time>
      </trkpt>
      <trkpt lat="44.38242" lon="6.67529">
        <ele>1179.6</ele>
        <time>2023-07-07T09:39:56Z</time>
      </trkpt>
      <trkpt lat="44.38251" lon="6.67519">
        <ele>1179</ele>
        <time>2023-07-07T09:39:57Z</time>
      </trkpt>
      <trkpt lat="44.38261" lon="6.67509">
        <ele>1178.6</ele>
        <time>2023-07-07T09:39:58Z</time>
      </trkpt>
      <trkpt lat="44.38271" lon="6.67498">
        <ele>1178.2</ele>
        <time>2023-07-07T09:39:59Z</time>
      </trkpt>
      <trkpt lat="44.3828" lon="6.67487">
        <ele>1177.4</ele>
        <time>2023-07-07T09:40:00Z</time>
      </trkpt>
      <trkpt lat="44.3829" lon="6.67477">
        <ele>1176.7</ele>
        <time>2023-07-07T09:40:01Z</time>
      </trkpt>
      <trkpt lat="44.383" lon="6.67467">
        <ele>1176.2</ele>
        <time>2023-07-07T09:40:02Z</time>
      </trkpt>
      <trkpt lat="44.3831" lon="6.67457">
        <ele>1175.7</ele>
        <time>2023-07-07T09:40:03Z</time>
      </trkpt>
      <trkpt lat="44.38319" lon="6.67446">
        <ele>1175</ele>
        <time>2023-07-07T09:40:04Z</time>
      </trkpt>
      <trkpt lat="44.38329" lon="6.67437">
        <ele>1174.3</ele>
        <time>2023-07-07T09:40:05Z</time>
      </trkpt>
      <trkpt lat="44.38339" lon="6.67427">
        <ele>1173.8</ele>
        <time>2023-07-07T09:40:06Z</time>
      </trkpt>
      <trkpt lat="44.38349" lon="6.67418">
        <ele>1173.4</ele>
        <time>2023-07-07T09:40:07Z</time>
      </trkpt>
      <trkpt lat="44.38358" lon="6.67407">
        <ele>1172.8</ele>
        <time>2023-07-07T09:40:08Z</time>
      </trkpt>
      <trkpt lat="44.38369" lon="6.67398">
        <ele>1172</ele>
        <time>2023-07-07T09:40:09Z</time>
      </trkpt>
      <trkpt lat="44.38378" lon="6.67388">
        <ele>1171.4</ele>
        <time>2023-07-07T09:40:10Z</time>
      </trkpt>
      <trkpt lat="44.38389" lon="6.67379">
        <ele>1171</ele>
        <time>2023-07-07T09:40:11Z</time>
      </trkpt>
      <trkpt lat="44.38398" lon="6.67368">
        <ele>1170.7</ele>
        <time>2023-07-07T09:40:12Z</time>
      </trkpt>
      <trkpt lat="44.38408" lon="6.67362">
        <ele>1170.3</ele>
        <time>2023-07-07T09:40:13Z</time>
      </trkpt>
      <trkpt lat="44.38418" lon="6.67351">
        <ele>1169.9</ele>
        <time>2023-07-07T09:40:14Z</time>
      </trkpt>
      <trkpt lat="44.38428" lon="6.67343">
        <ele>1169.6</ele>
        <time>2023-07-07T09:40:15Z</time>
      </trkpt>
      <trkpt lat="44.38438" lon="6.67333">
        <ele>1169.2</ele>
        <time>2023-07-07T09:40:16Z</time>
      </trkpt>
      <trkpt lat="44.38448" lon="6.67325">
        <ele>1168.5</ele>
        <time>2023-07-07T09:40:17Z</time>
      </trkpt>
      <trkpt lat="44.38457" lon="6.67314">
        <ele>1167.7</ele>
        <time>2023-07-07T09:40:18Z</time>
      </trkpt>
      <trkpt lat="44.38467" lon="6.67305">
        <ele>1167.2</ele>
        <time>2023-07-07T09:40:19Z</time>
      </trkpt>
      <trkpt lat="44.38476" lon="6.67295">
        <ele>1166.9</ele>
        <time>2023-07-07T09:40:20Z</time>
      </trkpt>
      <trkpt lat="44.38485" lon="6.67285">
        <ele>1166.5</ele>
        <time>2023-07-07T09:40:21Z</time>
      </trkpt>
      <trkpt lat="44.38494" lon="6.67275">
        <ele>1166.1</ele>
        <time>2023-07-07T09:40:22Z</time>
      </trkpt>
      <trkpt lat="44.38503" lon="6.67265">
        <ele>1165.4</ele>
        <time>2023-07-07T09:40:23Z</time>
      </trkpt>
      <trkpt lat="44.38512" lon="6.67256">
        <ele>1164.7</ele>
        <time>2023-07-07T09:40:24Z</time>
      </trkpt>
      <trkpt lat="44.38521" lon="6.67247">
        <ele>1164.2</ele>
        <time>2023-07-07T09:40:25Z</time>
      </trkpt>
      <trkpt lat="44.38531" lon="6.67238">
        <ele>1163.8</ele>
        <time>2023-07-07T09:40:26Z</time>
      </trkpt>
      <trkpt lat="44.3854" lon="6.67229">
        <ele>1163.2</ele>
        <time>2023-07-07T09:40:27Z</time>
      </trkpt>
      <trkpt lat="44.38549" lon="6.6722">
        <ele>1162.4</ele>
        <time>2023-07-07T09:40:28Z</time>
      </trkpt>
      <trkpt lat="44.38559" lon="6.67211">
        <ele>1161.9</ele>
        <time>2023-07-07T09:40:29Z</time>
      </trkpt>
      <trkpt lat="44.38568" lon="6.67202">
        <ele>1161.5</ele>
        <time>2023-07-07T09:40:30Z</time>
      </trkpt>
      <trkpt lat="44.38577" lon="6.67193">
        <ele>1161.2</ele>
        <time>2023-07-07T09:40:31Z</time>
      </trkpt>
      <trkpt lat="44.38587" lon="6.67185">
        <ele>1160.7</ele>
        <time>2023-07-07T09:40:32Z</time>
      </trkpt>
      <trkpt lat="44.38597" lon="6.67177">
        <ele>1160.1</ele>
        <time>2023-07-07T09:40:33Z</time>
      </trkpt>
      <trkpt lat="44.38606" lon="6.67169">
        <ele>1159.4</ele>
        <time>2023-07-07T09:40:34Z</time>
      </trkpt>
      <trkpt lat="44.38615" lon="6.67162">
        <ele>1158.9</ele>
        <time>2023-07-07T09:40:35Z</time>
      </trkpt>
      <trkpt lat="44.38624" lon="6.67153">
        <ele>1158.5</ele>
        <time>2023-07-07T09:40:36Z</time>
      </trkpt>
      <trkpt lat="44.38634" lon="6.67144">
        <ele>1158.2</ele>
        <time>2023-07-07T09:40:37Z</time>
      </trkpt>
      <trkpt lat="44.38643" lon="6.67135">
        <ele>1157.7</ele>
        <time>2023-07-07T09:40:38Z</time>
      </trkpt>
      <trkpt lat="44.38652" lon="6.67126">
        <ele>1157.1</ele>
        <time>2023-07-07T09:40:39Z</time>
      </trkpt>
      <trkpt lat="44.38661" lon="6.67117">
        <ele>1156.4</ele>
        <time>2023-07-07T09:40:40Z</time>
      </trkpt>
      <trkpt lat="44.38669" lon="6.67107">
        <ele>1155.9</ele>
        <time>2023-07-07T09:40:41Z</time>
      </trkpt>
      <trkpt lat="44.38678" lon="6.67099">
        <ele>1155.4</ele>
        <time>2023-07-07T09:40:42Z</time>
      </trkpt>
      <trkpt lat="44.38687" lon="6.67089">
        <ele>1155.1</ele>
        <time>2023-07-07T09:40:43Z</time>
      </trkpt>
      <trkpt lat="44.38696" lon="6.67079">
        <ele>1154.9</ele>
        <time>2023-07-07T09:40:44Z</time>
      </trkpt>
      <trkpt lat="44.38704" lon="6.67069">
        <ele>1154.3</ele>
        <time>2023-07-07T09:40:45Z</time>
      </trkpt>
      <trkpt lat="44.38713" lon="6.67059">
        <ele>1153.6</ele>
        <time>2023-07-07T09:40:46Z</time>
      </trkpt>
      <trkpt lat="44.38722" lon="6.67052">
        <ele>1153</ele>
        <time>2023-07-07T09:40:47Z</time>
      </trkpt>
      <trkpt lat="44.38731" lon="6.67043">
        <ele>1152.5</ele>
        <time>2023-07-07T09:40:48Z</time>
      </trkpt>
      <trkpt lat="44.38739" lon="6.67034">
        <ele>1152.2</ele>
        <time>2023-07-07T09:40:49Z</time>
      </trkpt>
      <trkpt lat="44.38748" lon="6.67025">
        <ele>1152.1</ele>
        <time>2023-07-07T09:40:50Z</time>
      </trkpt>
      <trkpt lat="44.38757" lon="6.67016">
        <ele>1151.5</ele>
        <time>2023-07-07T09:40:51Z</time>
      </trkpt>
      <trkpt lat="44.38765" lon="6.67007">
        <ele>1150.9</ele>
        <time>2023-07-07T09:40:52Z</time>
      </trkpt>
      <trkpt lat="44.38774" lon="6.66999">
        <ele>1150.2</ele>
        <time>2023-07-07T09:40:53Z</time>
      </trkpt>
      <trkpt lat="44.38783" lon="6.66991">
        <ele>1149.8</ele>
        <time>2023-07-07T09:40:54Z</time>
      </trkpt>
      <trkpt lat="44.38792" lon="6.66982">
        <ele>1149.5</ele>
        <time>2023-07-07T09:40:55Z</time>
      </trkpt>
      <trkpt lat="44.38801" lon="6.66974">
        <ele>1149.2</ele>
        <time>2023-07-07T09:40:56Z</time>
      </trkpt>
      <trkpt lat="44.38809" lon="6.66965">
        <ele>1148.9</ele>
        <time>2023-07-07T09:40:57Z</time>
      </trkpt>
      <trkpt lat="44.38817" lon="6.66957">
        <ele>1148.6</ele>
        <time>2023-07-07T09:40:58Z</time>
      </trkpt>
      <trkpt lat="44.38826" lon="6.66948">
        <ele>1148.3</ele>
        <time>2023-07-07T09:40:59Z</time>
      </trkpt>
      <trkpt lat="44.38834" lon="6.66939">
        <ele>1148</ele>
        <time>2023-07-07T09:41:00Z</time>
      </trkpt>
      <trkpt lat="44.38843" lon="6.6693">
        <ele>1147.7</ele>
        <time>2023-07-07T09:41:01Z</time>
      </trkpt>
      <trkpt lat="44.3885" lon="6.66922">
        <ele>1147.4</ele>
        <time>2023-07-07T09:41:02Z</time>
      </trkpt>
      <trkpt lat="44.38857" lon="6.66913">
        <ele>1147.2</ele>
        <time>2023-07-07T09:41:03Z</time>
      </trkpt>
      <trkpt lat="44.38871" lon="6.66897">
        <ele>1147.7</ele>
        <time>2023-07-07T09:41:05Z</time>
      </trkpt>
      <trkpt lat="44.38882" lon="6.6688">
        <ele>1148.2</ele>
        <time>2023-07-07T09:41:07Z</time>
      </trkpt>
      <trkpt lat="44.38892" lon="6.66863">
        <ele>1148.7</ele>
        <time>2023-07-07T09:41:09Z</time>
      </trkpt>
      <trkpt lat="44.38904" lon="6.66849">
        <ele>1147.9</ele>
        <time>2023-07-07T09:41:11Z</time>
      </trkpt>
      <trkpt lat="44.38914" lon="6.66837">
        <ele>1147.2</ele>
        <time>2023-07-07T09:41:13Z</time>
      </trkpt>
      <trkpt lat="44.38925" lon="6.66827">
        <ele>1146.4</ele>
        <time>2023-07-07T09:41:15Z</time>
      </trkpt>
      <trkpt lat="44.38934" lon="6.66818">
        <ele>1146</ele>
        <time>2023-07-07T09:41:17Z</time>
      </trkpt>
      <trkpt lat="44.38943" lon="6.66809">
        <ele>1146</ele>
        <time>2023-07-07T09:41:19Z</time>
      </trkpt>
      <trkpt lat="44.38952" lon="6.66801">
        <ele>1146.7</ele>
        <time>2023-07-07T09:41:21Z</time>
      </trkpt>
      <trkpt lat="44.38961" lon="6.66795">
        <ele>1147.4</ele>
        <time>2023-07-07T09:41:23Z</time>
      </trkpt>
      <trkpt lat="44.3897" lon="6.66791">
        <ele>1147.9</ele>
        <time>2023-07-07T09:41:25Z</time>
      </trkpt>
      <trkpt lat="44.38981" lon="6.66789">
        <ele>1148.5</ele>
        <time>2023-07-07T09:41:28Z</time>
      </trkpt>
      <trkpt lat="44.38991" lon="6.66789">
        <ele>1149</ele>
        <time>2023-07-07T09:41:31Z</time>
      </trkpt>
      <trkpt lat="44.38999" lon="6.66781">
        <ele>1149.1</ele>
        <time>2023-07-07T09:41:34Z</time>
      </trkpt>
      <trkpt lat="44.39004" lon="6.66765">
        <ele>1149.3</ele>
        <time>2023-07-07T09:41:37Z</time>
      </trkpt>
      <trkpt lat="44.39006" lon="6.66751">
        <ele>1149.4</ele>
        <time>2023-07-07T09:41:39Z</time>
      </trkpt>
      <trkpt lat="44.39007" lon="6.66739">
        <ele>1149.5</ele>
        <time>2023-07-07T09:41:41Z</time>
      </trkpt>
      <trkpt lat="44.3901" lon="6.66725">
        <ele>1149.7</ele>
        <time>2023-07-07T09:41:43Z</time>
      </trkpt>
      <trkpt lat="44.39012" lon="6.66711">
        <ele>1149.6</ele>
        <time>2023-07-07T09:41:45Z</time>
      </trkpt>
      <trkpt lat="44.39014" lon="6.66696">
        <ele>1149.5</ele>
        <time>2023-07-07T09:41:47Z</time>
      </trkpt>
      <trkpt lat="44.39016" lon="6.66684">
        <ele>1149.5</ele>
        <time>2023-07-07T09:41:49Z</time>
      </trkpt>
      <trkpt lat="44.39018" lon="6.66669">
        <ele>1149.3</ele>
        <time>2023-07-07T09:41:51Z</time>
      </trkpt>
      <trkpt lat="44.39019" lon="6.66655">
        <ele>1149.3</ele>
        <time>2023-07-07T09:41:53Z</time>
      </trkpt>
      <trkpt lat="44.39018" lon="6.6664">
        <ele>1149.3</ele>
        <time>2023-07-07T09:41:55Z</time>
      </trkpt>
      <trkpt lat="44.39015" lon="6.66626">
        <ele>1149.6</ele>
        <time>2023-07-07T09:41:57Z</time>
      </trkpt>
      <trkpt lat="44.39011" lon="6.66611">
        <ele>1149.8</ele>
        <time>2023-07-07T09:41:59Z</time>
      </trkpt>
      <trkpt lat="44.39005" lon="6.66597">
        <ele>1149.9</ele>
        <time>2023-07-07T09:42:01Z</time>
      </trkpt>
      <trkpt lat="44.38999" lon="6.66583">
        <ele>1149.9</ele>
        <time>2023-07-07T09:42:03Z</time>
      </trkpt>
      <trkpt lat="44.38991" lon="6.6657">
        <ele>1149.9</ele>
        <time>2023-07-07T09:42:05Z</time>
      </trkpt>
      <trkpt lat="44.38984" lon="6.66556">
        <ele>1149.8</ele>
        <time>2023-07-07T09:42:07Z</time>
      </trkpt>
      <trkpt lat="44.38977" lon="6.66541">
        <ele>1149.9</ele>
        <time>2023-07-07T09:42:09Z</time>
      </trkpt>
      <trkpt lat="44.38974" lon="6.66525">
        <ele>1150.1</ele>
        <time>2023-07-07T09:42:11Z</time>
      </trkpt>
      <trkpt lat="44.3897" lon="6.66508">
        <ele>1149.9</ele>
        <time>2023-07-07T09:42:13Z</time>
      </trkpt>
      <trkpt lat="44.38964" lon="6.66494">
        <ele>1149.5</ele>
        <time>2023-07-07T09:42:15Z</time>
      </trkpt>
      <trkpt lat="44.38957" lon="6.66483">
        <ele>1148.8</ele>
        <time>2023-07-07T09:42:17Z</time>
      </trkpt>
      <trkpt lat="44.38949" lon="6.6647">
        <ele>1148.1</ele>
        <time>2023-07-07T09:42:19Z</time>
      </trkpt>
      <trkpt lat="44.38941" lon="6.66458">
        <ele>1147.4</ele>
        <time>2023-07-07T09:42:21Z</time>
      </trkpt>
      <trkpt lat="44.38933" lon="6.66445">
        <ele>1146.6</ele>
        <time>2023-07-07T09:42:23Z</time>
      </trkpt>
      <trkpt lat="44.38925" lon="6.6643">
        <ele>1145.8</ele>
        <time>2023-07-07T09:42:25Z</time>
      </trkpt>
      <trkpt lat="44.38918" lon="6.66418">
        <ele>1145.1</ele>
        <time>2023-07-07T09:42:27Z</time>
      </trkpt>
      <trkpt lat="44.38913" lon="6.66402">
        <ele>1144.5</ele>
        <time>2023-07-07T09:42:29Z</time>
      </trkpt>
      <trkpt lat="44.38907" lon="6.66386">
        <ele>1144</ele>
        <time>2023-07-07T09:42:31Z</time>
      </trkpt>
      <trkpt lat="44.38903" lon="6.6637">
        <ele>1143.7</ele>
        <time>2023-07-07T09:42:33Z</time>
      </trkpt>
      <trkpt lat="44.38897" lon="6.66356">
        <ele>1143.3</ele>
        <time>2023-07-07T09:42:35Z</time>
      </trkpt>
      <trkpt lat="44.38893" lon="6.66343">
        <ele>1143</ele>
        <time>2023-07-07T09:42:37Z</time>
      </trkpt>
      <trkpt lat="44.38888" lon="6.6633">
        <ele>1143</ele>
        <time>2023-07-07T09:42:39Z</time>
      </trkpt>
      <trkpt lat="44.38883" lon="6.66313">
        <ele>1143</ele>
        <time>2023-07-07T09:42:41Z</time>
      </trkpt>
      <trkpt lat="44.38877" lon="6.663">
        <ele>1143</ele>
        <time>2023-07-07T09:42:43Z</time>
      </trkpt>
      <trkpt lat="44.3887" lon="6.66285">
        <ele>1143</ele>
        <time>2023-07-07T09:42:45Z</time>
      </trkpt>
      <trkpt lat="44.38864" lon="6.66269">
        <ele>1142.7</ele>
        <time>2023-07-07T09:42:47Z</time>
      </trkpt>
      <trkpt lat="44.3886" lon="6.66253">
        <ele>1142.1</ele>
        <time>2023-07-07T09:42:49Z</time>
      </trkpt>
      <trkpt lat="44.38856" lon="6.66237">
        <ele>1142.1</ele>
        <time>2023-07-07T09:42:51Z</time>
      </trkpt>
      <trkpt lat="44.38855" lon="6.66224">
        <ele>1142</ele>
        <time>2023-07-07T09:42:53Z</time>
      </trkpt>
      <trkpt lat="44.38852" lon="6.66207">
        <ele>1142</ele>
        <time>2023-07-07T09:42:55Z</time>
      </trkpt>
      <trkpt lat="44.38849" lon="6.6619">
        <ele>1142</ele>
        <time>2023-07-07T09:42:57Z</time>
      </trkpt>
      <trkpt lat="44.38848" lon="6.66177">
        <ele>1142</ele>
        <time>2023-07-07T09:42:59Z</time>
      </trkpt>
      <trkpt lat="44.38846" lon="6.66161">
        <ele>1142</ele>
        <time>2023-07-07T09:43:01Z</time>
      </trkpt>
      <trkpt lat="44.38845" lon="6.66145">
        <ele>1142</ele>
        <time>2023-07-07T09:43:03Z</time>
      </trkpt>
      <trkpt lat="44.38844" lon="6.6613">
        <ele>1141.8</ele>
        <time>2023-07-07T09:43:05Z</time>
      </trkpt>
      <trkpt lat="44.38842" lon="6.66115">
        <ele>1141.4</ele>
        <time>2023-07-07T09:43:07Z</time>
      </trkpt>
      <trkpt lat="44.3884" lon="6.66101">
        <ele>1141.3</ele>
        <time>2023-07-07T09:43:09Z</time>
      </trkpt>
      <trkpt lat="44.38838" lon="6.66087">
        <ele>1141.3</ele>
        <time>2023-07-07T09:43:11Z</time>
      </trkpt>
      <trkpt lat="44.38837" lon="6.66073">
        <ele>1141.6</ele>
        <time>2023-07-07T09:43:13Z</time>
      </trkpt>
      <trkpt lat="44.38835" lon="6.66059">
        <ele>1142</ele>
        <time>2023-07-07T09:43:15Z</time>
      </trkpt>
      <trkpt lat="44.38833" lon="6.66041">
        <ele>1142</ele>
        <time>2023-07-07T09:43:18Z</time>
      </trkpt>
      <trkpt lat="44.38832" lon="6.66028">
        <ele>1141.9</ele>
        <time>2023-07-07T09:43:20Z</time>
      </trkpt>
      <trkpt lat="44.3883" lon="6.6601">
        <ele>1141.9</ele>
        <time>2023-07-07T09:43:23Z</time>
      </trkpt>
      <trkpt lat="44.38828" lon="6.65996">
        <ele>1141.8</ele>
        <time>2023-07-07T09:43:25Z</time>
      </trkpt>
      <trkpt lat="44.38827" lon="6.65982">
        <ele>1141.8</ele>
        <time>2023-07-07T09:43:27Z</time>
      </trkpt>
      <trkpt lat="44.38825" lon="6.65967">
        <ele>1141.8</ele>
        <time>2023-07-07T09:43:29Z</time>
      </trkpt>
      <trkpt lat="44.38823" lon="6.65951">
        <ele>1141.9</ele>
        <time>2023-07-07T09:43:31Z</time>
      </trkpt>
      <trkpt lat="44.38821" lon="6.65935">
        <ele>1142</ele>
        <time>2023-07-07T09:43:33Z</time>
      </trkpt>
      <trkpt lat="44.38819" lon="6.6592">
        <ele>1142</ele>
        <time>2023-07-07T09:43:35Z</time>
      </trkpt>
      <trkpt lat="44.38817" lon="6.65905">
        <ele>1141.8</ele>
        <time>2023-07-07T09:43:37Z</time>
      </trkpt>
      <trkpt lat="44.38815" lon="6.6589">
        <ele>1141.4</ele>
        <time>2023-07-07T09:43:39Z</time>
      </trkpt>
      <trkpt lat="44.38814" lon="6.65873">
        <ele>1141.3</ele>
        <time>2023-07-07T09:43:41Z</time>
      </trkpt>
      <trkpt lat="44.38811" lon="6.65857">
        <ele>1141.2</ele>
        <time>2023-07-07T09:43:43Z</time>
      </trkpt>
      <trkpt lat="44.38809" lon="6.6584">
        <ele>1141.1</ele>
        <time>2023-07-07T09:43:45Z</time>
      </trkpt>
      <trkpt lat="44.38808" lon="6.65825">
        <ele>1141.1</ele>
        <time>2023-07-07T09:43:47Z</time>
      </trkpt>
      <trkpt lat="44.38806" lon="6.65809">
        <ele>1141</ele>
        <time>2023-07-07T09:43:49Z</time>
      </trkpt>
      <trkpt lat="44.38803" lon="6.65794">
        <ele>1140.5</ele>
        <time>2023-07-07T09:43:51Z</time>
      </trkpt>
      <trkpt lat="44.38802" lon="6.65779">
        <ele>1140</ele>
        <time>2023-07-07T09:43:53Z</time>
      </trkpt>
      <trkpt lat="44.388" lon="6.65765">
        <ele>1139.9</ele>
        <time>2023-07-07T09:43:55Z</time>
      </trkpt>
      <trkpt lat="44.38797" lon="6.65752">
        <ele>1139.7</ele>
        <time>2023-07-07T09:43:57Z</time>
      </trkpt>
      <trkpt lat="44.38794" lon="6.65738">
        <ele>1139.1</ele>
        <time>2023-07-07T09:43:59Z</time>
      </trkpt>
      <trkpt lat="44.38792" lon="6.65724">
        <ele>1138.6</ele>
        <time>2023-07-07T09:44:01Z</time>
      </trkpt>
      <trkpt lat="44.38792" lon="6.65711">
        <ele>1138.5</ele>
        <time>2023-07-07T09:44:03Z</time>
      </trkpt>
      <trkpt lat="44.38793" lon="6.65698">
        <ele>1138.6</ele>
        <time>2023-07-07T09:44:05Z</time>
      </trkpt>
      <trkpt lat="44.38792" lon="6.65683">
        <ele>1138.5</ele>
        <time>2023-07-07T09:44:08Z</time>
      </trkpt>
      <trkpt lat="44.3879" lon="6.65665">
        <ele>1138.4</ele>
        <time>2023-07-07T09:44:11Z</time>
      </trkpt>
      <trkpt lat="44.38788" lon="6.65651">
        <ele>1138.4</ele>
        <time>2023-07-07T09:44:13Z</time>
      </trkpt>
      <trkpt lat="44.38786" lon="6.65639">
        <ele>1138.3</ele>
        <time>2023-07-07T09:44:15Z</time>
      </trkpt>
      <trkpt lat="44.38784" lon="6.65621">
        <ele>1138.2</ele>
        <time>2023-07-07T09:44:18Z</time>
      </trkpt>
      <trkpt lat="44.38782" lon="6.65602">
        <ele>1138.1</ele>
        <time>2023-07-07T09:44:21Z</time>
      </trkpt>
      <trkpt lat="44.3878" lon="6.65586">
        <ele>1138.1</ele>
        <time>2023-07-07T09:44:24Z</time>
      </trkpt>
      <trkpt lat="44.38779" lon="6.65568">
        <ele>1138.1</ele>
        <time>2023-07-07T09:44:27Z</time>
      </trkpt>
      <trkpt lat="44.38775" lon="6.65554">
        <ele>1137.9</ele>
        <time>2023-07-07T09:44:29Z</time>
      </trkpt>
      <trkpt lat="44.38771" lon="6.65537">
        <ele>1137.1</ele>
        <time>2023-07-07T09:44:32Z</time>
      </trkpt>
      <trkpt lat="44.38771" lon="6.65523">
        <ele>1136.8</ele>
        <time>2023-07-07T09:44:34Z</time>
      </trkpt>
      <trkpt lat="44.38775" lon="6.65511">
        <ele>1136.9</ele>
        <time>2023-07-07T09:44:37Z</time>
      </trkpt>
      <trkpt lat="44.38774" lon="6.65492">
        <ele>1136.9</ele>
        <time>2023-07-07T09:44:40Z</time>
      </trkpt>
      <trkpt lat="44.38769" lon="6.65477">
        <ele>1136.7</ele>
        <time>2023-07-07T09:44:42Z</time>
      </trkpt>
      <trkpt lat="44.38768" lon="6.65464">
        <ele>1136.4</ele>
        <time>2023-07-07T09:44:44Z</time>
      </trkpt>
      <trkpt lat="44.38765" lon="6.6545">
        <ele>1136.1</ele>
        <time>2023-07-07T09:44:46Z</time>
      </trkpt>
      <trkpt lat="44.38764" lon="6.65438">
        <ele>1135.9</ele>
        <time>2023-07-07T09:44:48Z</time>
      </trkpt>
      <trkpt lat="44.38762" lon="6.65425">
        <ele>1135.6</ele>
        <time>2023-07-07T09:44:50Z</time>
      </trkpt>
      <trkpt lat="44.38767" lon="6.65412">
        <ele>1135.6</ele>
        <time>2023-07-07T09:44:53Z</time>
      </trkpt>
      <trkpt lat="44.38778" lon="6.65411">
        <ele>1136</ele>
        <time>2023-07-07T09:44:57Z</time>
      </trkpt>
      <trkpt lat="44.38783" lon="6.65399">
        <ele>1136.2</ele>
        <time>2023-07-07T09:45:01Z</time>
      </trkpt>
      <trkpt lat="44.3878" lon="6.65385">
        <ele>1135.9</ele>
        <time>2023-07-07T09:45:05Z</time>
      </trkpt>
      <trkpt lat="44.38778" lon="6.65371">
        <ele>1135.4</ele>
        <time>2023-07-07T09:45:08Z</time>
      </trkpt>
      <trkpt lat="44.38776" lon="6.65358">
        <ele>1134.9</ele>
        <time>2023-07-07T09:45:12Z</time>
      </trkpt>
      <trkpt lat="44.38784" lon="6.65349">
        <ele>1134.9</ele>
        <time>2023-07-07T09:45:15Z</time>
      </trkpt>
      <trkpt lat="44.38793" lon="6.65344">
        <ele>1135.3</ele>
        <time>2023-07-07T09:45:18Z</time>
      </trkpt>
      <trkpt lat="44.38802" lon="6.65338">
        <ele>1135.8</ele>
        <time>2023-07-07T09:45:22Z</time>
      </trkpt>
      <trkpt lat="44.38811" lon="6.6533">
        <ele>1136.3</ele>
        <time>2023-07-07T09:45:26Z</time>
      </trkpt>
      <trkpt lat="44.38813" lon="6.65316">
        <ele>1136.1</ele>
        <time>2023-07-07T09:45:30Z</time>
      </trkpt>
      <trkpt lat="44.38813" lon="6.65302">
        <ele>1135.8</ele>
        <time>2023-07-07T09:45:33Z</time>
      </trkpt>
      <trkpt lat="44.38812" lon="6.65287">
        <ele>1135.6</ele>
        <time>2023-07-07T09:45:36Z</time>
      </trkpt>
      <trkpt lat="44.38812" lon="6.65274">
        <ele>1135.4</ele>
        <time>2023-07-07T09:45:39Z</time>
      </trkpt>
      <trkpt lat="44.38812" lon="6.6526">
        <ele>1135.5</ele>
        <time>2023-07-07T09:45:42Z</time>
      </trkpt>
      <trkpt lat="44.38821" lon="6.6525">
        <ele>1136.1</ele>
        <time>2023-07-07T09:45:45Z</time>
      </trkpt>
      <trkpt lat="44.38831" lon="6.65244">
        <ele>1136.8</ele>
        <time>2023-07-07T09:45:48Z</time>
      </trkpt>
      <trkpt lat="44.38834" lon="6.6523">
        <ele>1137.2</ele>
        <time>2023-07-07T09:45:51Z</time>
      </trkpt>
      <trkpt lat="44.38831" lon="6.65214">
        <ele>1136.8</ele>
        <time>2023-07-07T09:45:54Z</time>
      </trkpt>
      <trkpt lat="44.38827" lon="6.65197">
        <ele>1136.6</ele>
        <time>2023-07-07T09:45:57Z</time>
      </trkpt>
      <trkpt lat="44.38822" lon="6.65178">
        <ele>1136.2</ele>
        <time>2023-07-07T09:46:00Z</time>
      </trkpt>
      <trkpt lat="44.3882" lon="6.65165">
        <ele>1136.1</ele>
        <time>2023-07-07T09:46:02Z</time>
      </trkpt>
      <trkpt lat="44.38818" lon="6.65152">
        <ele>1136.1</ele>
        <time>2023-07-07T09:46:04Z</time>
      </trkpt>
      <trkpt lat="44.38816" lon="6.65139">
        <ele>1136.1</ele>
        <time>2023-07-07T09:46:06Z</time>
      </trkpt>
      <trkpt lat="44.38815" lon="6.65126">
        <ele>1136</ele>
        <time>2023-07-07T09:46:08Z</time>
      </trkpt>
      <trkpt lat="44.38813" lon="6.65113">
        <ele>1135.8</ele>
        <time>2023-07-07T09:46:10Z</time>
      </trkpt>
      <trkpt lat="44.38812" lon="6.65097">
        <ele>1135.8</ele>
        <time>2023-07-07T09:46:13Z</time>
      </trkpt>
      <trkpt lat="44.38805" lon="6.65087">
        <ele>1135</ele>
        <time>2023-07-07T09:46:15Z</time>
      </trkpt>
      <trkpt lat="44.38794" lon="6.65086">
        <ele>1134.1</ele>
        <time>2023-07-07T09:46:18Z</time>
      </trkpt>
      <trkpt lat="44.38784" lon="6.65091">
        <ele>1133.5</ele>
        <time>2023-07-07T09:46:21Z</time>
      </trkpt>
      <trkpt lat="44.38774" lon="6.6509">
        <ele>1132.9</ele>
        <time>2023-07-07T09:46:24Z</time>
      </trkpt>
      <trkpt lat="44.38765" lon="6.65078">
        <ele>1132.5</ele>
        <time>2023-07-07T09:46:27Z</time>
      </trkpt>
      <trkpt lat="44.38759" lon="6.65064">
        <ele>1132.3</ele>
        <time>2023-07-07T09:46:30Z</time>
      </trkpt>
      <trkpt lat="44.38757" lon="6.6505">
        <ele>1132.3</ele>
        <time>2023-07-07T09:46:32Z</time>
      </trkpt>
      <trkpt lat="44.38754" lon="6.65032">
        <ele>1132.2</ele>
        <time>2023-07-07T09:46:35Z</time>
      </trkpt>
      <trkpt lat="44.38752" lon="6.65018">
        <ele>1132.5</ele>
        <time>2023-07-07T09:46:37Z</time>
      </trkpt>
      <trkpt lat="44.38751" lon="6.65003">
        <ele>1132.9</ele>
        <time>2023-07-07T09:46:39Z</time>
      </trkpt>
      <trkpt lat="44.38749" lon="6.64989">
        <ele>1132.6</ele>
        <time>2023-07-07T09:46:41Z</time>
      </trkpt>
      <trkpt lat="44.38747" lon="6.64974">
        <ele>1132.1</ele>
        <time>2023-07-07T09:46:43Z</time>
      </trkpt>
      <trkpt lat="44.38741" lon="6.64962">
        <ele>1132</ele>
        <time>2023-07-07T09:46:45Z</time>
      </trkpt>
      <trkpt lat="44.38732" lon="6.64959">
        <ele>1132</ele>
        <time>2023-07-07T09:46:47Z</time>
      </trkpt>
      <trkpt lat="44.38722" lon="6.64962">
        <ele>1132</ele>
        <time>2023-07-07T09:46:49Z</time>
      </trkpt>
      <trkpt lat="44.38712" lon="6.64967">
        <ele>1132</ele>
        <time>2023-07-07T09:46:51Z</time>
      </trkpt>
      <trkpt lat="44.38702" lon="6.64972">
        <ele>1132</ele>
        <time>2023-07-07T09:46:53Z</time>
      </trkpt>
      <trkpt lat="44.38692" lon="6.64976">
        <ele>1132</ele>
        <time>2023-07-07T09:46:55Z</time>
      </trkpt>
      <trkpt lat="44.38683" lon="6.64981">
        <ele>1132</ele>
        <time>2023-07-07T09:46:57Z</time>
      </trkpt>
      <trkpt lat="44.38674" lon="6.64986">
        <ele>1132</ele>
        <time>2023-07-07T09:47:02Z</time>
      </trkpt>
      <trkpt lat="44.38667" lon="6.64996">
        <ele>1132</ele>
        <time>2023-07-07T09:47:06Z</time>
      </trkpt>
      <trkpt lat="44.38664" lon="6.65008">
        <ele>1132</ele>
        <time>2023-07-07T09:47:11Z</time>
      </trkpt>
      <trkpt lat="44.38658" lon="6.65019">
        <ele>1132</ele>
        <time>2023-07-07T09:47:16Z</time>
      </trkpt>
      <trkpt lat="44.38652" lon="6.65032">
        <ele>1132</ele>
        <time>2023-07-07T09:47:21Z</time>
      </trkpt>
      <trkpt lat="44.38648" lon="6.65045">
        <ele>1132</ele>
        <time>2023-07-07T09:47:26Z</time>
      </trkpt>
      <trkpt lat="44.38638" lon="6.65051">
        <ele>1132</ele>
        <time>2023-07-07T09:47:31Z</time>
      </trkpt>
      <trkpt lat="44.38629" lon="6.65058">
        <ele>1132</ele>
        <time>2023-07-07T09:47:38Z</time>
      </trkpt>
      <trkpt lat="44.3862" lon="6.65062">
        <ele>1132</ele>
        <time>2023-07-07T09:47:43Z</time>
      </trkpt>
      <trkpt lat="44.38611" lon="6.65068">
        <ele>1132</ele>
        <time>2023-07-07T09:47:48Z</time>
      </trkpt>
      <trkpt lat="44.38602" lon="6.65071">
        <ele>1132</ele>
        <time>2023-07-07T09:47:52Z</time>
      </trkpt>
      <trkpt lat="44.38592" lon="6.65075">
        <ele>1132</ele>
        <time>2023-07-07T09:48:18Z</time>
      </trkpt>
      <trkpt lat="44.38588" lon="6.65086">
        <ele>1132.1</ele>
        <time>2023-07-07T09:48:22Z</time>
      </trkpt>
      <trkpt lat="44.38589" lon="6.65101">
        <ele>1132.5</ele>
        <time>2023-07-07T09:48:27Z</time>
      </trkpt>
      <trkpt lat="44.38592" lon="6.65115">
        <ele>1132.7</ele>
        <time>2023-07-07T09:48:31Z</time>
      </trkpt>
      <trkpt lat="44.38595" lon="6.65131">
        <ele>1132.9</ele>
        <time>2023-07-07T09:48:35Z</time>
      </trkpt>
      <trkpt lat="44.38598" lon="6.65146">
        <ele>1133</ele>
        <time>2023-07-07T09:48:39Z</time>
      </trkpt>
      <trkpt lat="44.38601" lon="6.65161">
        <ele>1133</ele>
        <time>2023-07-07T09:48:43Z</time>
      </trkpt>
      <trkpt lat="44.38602" lon="6.65174">
        <ele>1133</ele>
        <time>2023-07-07T09:48:47Z</time>
      </trkpt>
      <trkpt lat="44.38604" lon="6.65189">
        <ele>1133</ele>
        <time>2023-07-07T09:48:53Z</time>
      </trkpt>
      <trkpt lat="44.38605" lon="6.65203">
        <ele>1133.3</ele>
        <time>2023-07-07T09:49:00Z</time>
      </trkpt>
      <trkpt lat="44.38609" lon="6.65218">
        <ele>1133.8</ele>
        <time>2023-07-07T09:49:05Z</time>
      </trkpt>
      <trkpt lat="44.38611" lon="6.65231">
        <ele>1134</ele>
        <time>2023-07-07T09:49:09Z</time>
      </trkpt>
      <trkpt lat="44.38612" lon="6.65244">
        <ele>1134</ele>
        <time>2023-07-07T09:49:37Z</time>
      </trkpt>
      <trkpt lat="44.38611" lon="6.65258">
        <ele>1134</ele>
        <time>2023-07-07T09:49:42Z</time>
      </trkpt>
      <trkpt lat="44.38606" lon="6.65269">
        <ele>1134</ele>
        <time>2023-07-07T09:49:48Z</time>
      </trkpt>
      <trkpt lat="44.38603" lon="6.65282">
        <ele>1134.2</ele>
        <time>2023-07-07T09:49:52Z</time>
      </trkpt>
      <trkpt lat="44.386" lon="6.65298">
        <ele>1134.7</ele>
        <time>2023-07-07T09:49:56Z</time>
      </trkpt>
      <trkpt lat="44.386" lon="6.65312">
        <ele>1135</ele>
        <time>2023-07-07T09:49:59Z</time>
      </trkpt>
      <trkpt lat="44.386" lon="6.65325">
        <ele>1135</ele>
        <time>2023-07-07T09:50:02Z</time>
      </trkpt>
      <trkpt lat="44.386" lon="6.65341">
        <ele>1135</ele>
        <time>2023-07-07T09:50:06Z</time>
      </trkpt>
      <trkpt lat="44.38598" lon="6.65355">
        <ele>1135</ele>
        <time>2023-07-07T09:50:11Z</time>
      </trkpt>
      <trkpt lat="44.38595" lon="6.65367">
        <ele>1135</ele>
        <time>2023-07-07T09:50:15Z</time>
      </trkpt>
      <trkpt lat="44.38593" lon="6.65382">
        <ele>1135</ele>
        <time>2023-07-07T09:50:19Z</time>
      </trkpt>
      <trkpt lat="44.3859" lon="6.65397">
        <ele>1135.3</ele>
        <time>2023-07-07T09:50:23Z</time>
      </trkpt>
      <trkpt lat="44.38593" lon="6.6541">
        <ele>1135.7</ele>
        <time>2023-07-07T09:50:28Z</time>
      </trkpt>
      <trkpt lat="44.38603" lon="6.65409">
        <ele>1135.7</ele>
        <time>2023-07-07T09:50:33Z</time>
      </trkpt>
      <trkpt lat="44.38614" lon="6.65406">
        <ele>1135.6</ele>
        <time>2023-07-07T09:50:37Z</time>
      </trkpt>
      <trkpt lat="44.38625" lon="6.65405">
        <ele>1135.6</ele>
        <time>2023-07-07T09:50:40Z</time>
      </trkpt>
      <trkpt lat="44.38634" lon="6.65403">
        <ele>1135.5</ele>
        <time>2023-07-07T09:50:43Z</time>
      </trkpt>
      <trkpt lat="44.38645" lon="6.654">
        <ele>1135.4</ele>
        <time>2023-07-07T09:50:47Z</time>
      </trkpt>
      <trkpt lat="44.38654" lon="6.65395">
        <ele>1135.2</ele>
        <time>2023-07-07T09:50:52Z</time>
      </trkpt>
      <trkpt lat="44.38664" lon="6.65388">
        <ele>1135</ele>
        <time>2023-07-07T09:50:57Z</time>
      </trkpt>
      <trkpt lat="44.38674" lon="6.65388">
        <ele>1135</ele>
        <time>2023-07-07T09:51:00Z</time>
      </trkpt>
      <trkpt lat="44.38684" lon="6.65384">
        <ele>1135</ele>
        <time>2023-07-07T09:51:03Z</time>
      </trkpt>
      <trkpt lat="44.38693" lon="6.65381">
        <ele>1135</ele>
        <time>2023-07-07T09:51:06Z</time>
      </trkpt>
      <trkpt lat="44.38702" lon="6.65379">
        <ele>1135</ele>
        <time>2023-07-07T09:51:09Z</time>
      </trkpt>
      <trkpt lat="44.38713" lon="6.65377">
        <ele>1135</ele>
        <time>2023-07-07T09:51:12Z</time>
      </trkpt>
      <trkpt lat="44.38723" lon="6.65374">
        <ele>1135</ele>
        <time>2023-07-07T09:51:15Z</time>
      </trkpt>
      <trkpt lat="44.38732" lon="6.65372">
        <ele>1135</ele>
        <time>2023-07-07T09:51:18Z</time>
      </trkpt>
      <trkpt lat="44.38741" lon="6.65368">
        <ele>1135</ele>
        <time>2023-07-07T09:51:23Z</time>
      </trkpt>
      <trkpt lat="44.38745" lon="6.65356">
        <ele>1134.8</ele>
        <time>2023-07-07T09:51:40Z</time>
      </trkpt>
      <trkpt lat="44.38743" lon="6.65342">
        <ele>1134.5</ele>
        <time>2023-07-07T09:51:49Z</time>
      </trkpt>
      <trkpt lat="44.3874" lon="6.6533">
        <ele>1134.3</ele>
        <time>2023-07-07T09:51:58Z</time>
      </trkpt>
      <trkpt lat="44.38739" lon="6.65316">
        <ele>1134.2</ele>
        <time>2023-07-07T09:52:08Z</time>
      </trkpt>
      <trkpt lat="44.38738" lon="6.65303">
        <ele>1134</ele>
        <time>2023-07-07T09:52:21Z</time>
      </trkpt>
      <trkpt lat="44.38748" lon="6.65301">
        <ele>1134</ele>
        <time>2023-07-07T09:52:37Z</time>
      </trkpt>
      <trkpt lat="44.38757" lon="6.65298">
        <ele>1134</ele>
        <time>2023-07-07T09:53:08Z</time>
      </trkpt>
      <trkpt lat="44.38763" lon="6.65287">
        <ele>1134</ele>
        <time>2023-07-07T09:55:01Z</time>
      </trkpt>
    </trkseg>
  </trk>
</gpx>